     2.10           OBSERVATION DATA    G (GPS)             RINEX VERSION / TYPE
teqc 2005May6 SOPAC 20050707 00:37:54UTC                    PGM / RUN BY / DATE
Linux 2.4.20-8|Pentium IV|gcc|Linux|486/DX+                 COMMENT
BIT 2 OF LLI FLAGS DATA COLLECTED UNDER A/S CONDITION       COMMENT
U 1079                                                      MARKER NAME
U107                                                        MARKER NUMBER
Mike Simmons                                                OBSERVER / AGENCY
0220160680 TRIMBLE 4700 1.30                                REC # / TYPE / VERS
0220185535 TRM33429.00+GP NONE                              ANT # / TYPE
 -2653154.0000 -4189483.0000  3998127.0000                  APPROX POSITION XYZ
        2.0000        0.0000        0.0000                  ANTENNA: DELTA H/E/N
     1     1                                                WAVELENGTH FACT L1/2
     6    L1    L2    C1    P2    P1    D1                  # / TYPES OF OBSERV
    15.0000                                                 INTERVAL
Northern California Height Modernization 2004               COMMENT
                                                            COMMENT
SOPAC - Scripps Orbit and Permanent Array Center            COMMENT
IGPP - Institute of Geophysics and Planetary Physics        COMMENT
SIO - Scripps Institution of Oceanography                   COMMENT
UCSD - University of California, San Diego                  COMMENT
                                                            COMMENT
email: archive@gpsmail.ucsd.edu                             COMMENT
ftp://garner.ucsd.edu                                       COMMENT
http://sopac.ucsd.edu                                       COMMENT
                                                            COMMENT
                                                            COMMENT
Approximate Lat, Lon : 39.066, -122.346                     COMMENT
                                                            COMMENT
SNR is mapped to RINEX snr flag value [0-9]                 COMMENT
L1 & L2: 2-19 dBHz = 1, 20-27 dBHz = 2, 28-31 dBHz = 3      COMMENT
32-35 dBHz = 4, 36-38 dBHz = 5, 39-41 dBHz = 6              COMMENT
42-44 dBHz = 7, 45-48 dBHz = 8, >= 49 dBHz = 9              COMMENT
  2004     9    13    22     4   45.0000000     GPS         TIME OF FIRST OBS
                                                            END OF HEADER
 04  9 13 22  4 45.0000000  0  7G 3G 8G10G13G19G27G28
     75161.75957     45956.53952  23455198.5084   23455198.3984
     -1822.2344
    -66321.25559    -48565.30857  20937670.1094   20937667.1054
      1592.9844
    -26495.89057    -19945.96553  23316583.7974   23316581.8364
       643.8134
     87883.11159     55365.61157  21070845.7664   21070841.7734
     -2159.1094
    -25218.46558    -21457.12955  22389239.8984   22389236.1094
       592.2194
    -18842.60759    -16785.50957  20670824.0084   20670821.0314
       445.0634
   -115422.99658    -84372.22255  22600658.6174   22600656.1294
      2815.4844
 04  9 13 22  5  0.0000000  0  7G 3G 8G10G13G19G27G28
    102580.24347     67321.54342  23460417.0784   23460415.5434
     -1833.6414
    -90167.02549    -67146.43047  20933132.2584   20933129.4534
      1586.2664
    -36060.25447    -27398.75043  23314763.6644   23314763.1844
       631.1724
    120347.25149     80662.30247  21077023.5164   21077019.7234
     -2169.5314
    -34011.00748    -28308.47445  22387567.2814   22387562.2734
       579.9384
    -25472.42249    -21951.61347  20669562.2584   20669558.7704
       438.7814
   -157598.62548   -117236.31544  22592632.6884   22592629.7464
      2807.7194
 04  9 13 22  5 15.0000000  0  7G 3G 8G10G13G19G27G28
    130178.43048     88826.57043  23465668.6954   23465666.9264
     -1846.1414
   -113904.09949    -85642.86247  20928615.3284   20928612.5474
      1578.5474
    -45425.66147    -34696.49643  23312981.7194   23312980.3754
       617.4064
    152975.99249    106087.26047  21083232.6024   21083228.8674
     -2181.0314
    -42610.14948    -35009.12145  22385930.9304   22385925.5354
       566.5164
    -31999.10849    -27037.35847  20668319.9844   20668316.9414
       431.4384
   -199650.12348   -150003.69045  22584630.1804   22584627.9344
      2799.1254
 04  9 13 22  5 30.0000000  0  7G 3G 8G10G13G19G27G28
    157968.38348    110481.06243  23470957.0314   23470956.2234
     -1859.3444
   -137519.91949   -104044.81347  20924121.6024   20924118.6914
      1570.0314
    -54579.85747    -41829.65443  23311240.1024   23311238.2384
       602.9064
    185781.47449    131649.94447  21089475.3204   21089471.8714
     -2193.2034
    -51003.40349    -41549.33746  22384333.9224   22384328.7774
       552.4224
    -38410.19749    -32033.03347  20667100.3134   20667097.0004
       423.2664
   -241564.90548   -182664.53745  22576654.3524   22576651.5944
      2789.4694
 04  9 13 22  5 45.0000000  0  7G 3G 8G10G13G19G27G28
    185962.64348    132294.71943  23476283.5084   23476283.6134
     -1873.4844
   -161001.97749   -122342.52247  20919653.1414   20919650.0634
      1560.6254
    -63509.98747    -48788.22343  23309540.4774   23309539.0594
       587.4534
    218776.40649    157360.23747  21095753.9304   21095750.2274
     -2206.3914
    -59177.89148    -47919.08946  22382779.1094   22382773.7814
       537.3134
    -44692.93749    -36928.68947  20665904.7734   20665901.3674
       414.1254
   -283329.97148   -215208.73945  22568706.8134   22568704.4064
      2778.9694
 04  9 13 22  6  0.0000000  0  7G 3G 8G10G13G19G27G28
    214173.98948    154277.53343  23481653.2424   23481652.6914
     -1888.1724
   -184336.81649   -140525.52147  20915212.2974   20915209.5124
      1550.4844
    -72203.00747    -55562.02243  23307885.7664   23307884.7274
       571.4064
    251973.50949    183228.07347  21102070.9844   21102068.1024
     -2220.1254
    -67120.42348    -54108.09846  22381266.7504   22381262.9104
       521.5164
    -50834.22849    -41714.12647  20664736.2194   20664732.5354
       404.4384
   -324932.31148   -247626.09645  22560789.9304   22560788.0084
      2767.9064
 04  9 13 22  6 15.0000000  0  7G 3G 8G10G13G19G27G28
    242608.33747    176434.15043  23487062.8364   23487063.3634
     -1903.1874
   -207518.62549   -158589.26247  20910800.7664   20910798.5084
      1540.1724
    -80652.91847    -62146.35943  23306278.2504   23306276.4304
       555.0944
    285378.82849    209258.16447  21108428.1724   21108424.5704
     -2234.0784
    -74824.73848    -60111.46446  22379800.8364   22379797.4494
       505.5944
    -56827.85949    -46384.49147  20663595.6174   20663592.3444
       394.5004
   -366365.76948   -279911.89445  22552905.7114   22552902.9184
      2756.4694
 04  9 13 22  6 30.0000000  0  7G 3G 8G10G13G19G27G28
    271266.93347    198765.44643  23492517.1174   23492517.1564
     -1918.2974
   -230545.60549   -176532.37247  20906419.1884   20906416.6374
      1529.7814
    -88858.05347    -68539.99643  23304716.5554   23304715.3714
       538.6884
    318993.86549    235451.67247  21114824.6954   21114820.9884
     -2248.1724
    -82289.29547    -65927.98746  22378379.4774   22378377.1604
       489.4384
    -62672.40549    -50938.69447  20662483.6484   20662479.9694
       384.4224
   -407628.60748   -312064.72545  22545053.4534   22545050.5554
      2744.9384
 04  9 13 22  6 45.0000000  0  7G 3G 8G10G13G19G27G28
    300152.49647    221273.59943  23498013.2504   23498014.1294
     -1933.0944
   -253414.69949   -194352.44047  20902067.4774   20902064.5704
      1519.4694
    -96815.51446    -74740.63743  23303202.6094   23303200.5904
       522.3594
    352821.13749    261810.55547  21121261.8134   21121258.6454
     -2262.0944
    -89511.08348    -71555.34446  22377005.0634   22377002.5594
       473.5474
    -68364.76749    -55374.30547  20661399.9774   20661396.7584
       374.5164
   -448717.82048   -344082.26045  22537234.3754   22537232.0704
      2733.5784
 04  9 13 22  7  0.0000000  0  7G 3G 8G10G13G19G27G28
    329265.81747    243959.22942  23503552.6254   23503553.6724
     -1948.5474
   -276125.12749   -212048.89147  20897746.1414   20897742.9104
      1508.6724
   -104524.37946    -80747.56143  23301735.0944   23301734.0784
       505.5944
    386861.37749    288335.37347  21127739.5084   21127736.0274
     -2276.5314
    -96488.98048    -76992.66746  22375677.4534   22375673.9304
       457.0634
    -73903.95049    -59690.57147  20660346.4614   20660342.5744
       364.1564
   -489632.36148   -375963.70245  22529448.6174   22529445.9924
      2721.8284
 04  9 13 22  7 15.0000000  0  7G 3G 8G10G13G19G27G28
    358606.64646    266822.13842  23509136.1334   23509137.0004
     -1963.3124
   -298676.58049   -229621.45447  20893454.0944   20893451.7384
      1498.4694
   -111984.54247    -86560.67543  23300315.9064   23300314.5474
       489.2974
    421114.52649    315026.10747  21134258.0784   21134254.6454
     -2290.2814
   -103222.76348    -82239.78446  22374396.9384   22374391.8094
       441.1414
    -79289.75349    -63887.30747  20659321.6644   20659318.0864
       354.2814
   -530371.93948   -407708.80745  22521696.2664   22521693.3014
      2710.5164
 04  9 13 22  7 30.0000000  0  7G 3G 8G10G13G19G27G28
    388167.73847    289856.69043  23514762.3674   23514762.2034
     -1978.0314
   -321076.06949   -247075.60047  20889191.6024   20889189.0084
      1488.2814
   -119203.02446    -92185.49943  23298942.2114   23298941.0474
       473.1564
    455573.49949    341877.22047  21140814.8984   21140811.8204
     -2304.1094
   -109719.41148    -87302.12146  22373160.4454   22373154.9184
       425.2034
    -84529.20949    -67970.02047  20658324.7344   20658320.9144
       344.4534
   -570943.51248   -439322.98245  22513975.3984   22513972.4024
      2699.1724
 04  9 13 22  7 45.0000000  0  7G 3G 8G10G13G19G27G28
    417946.74347    313061.05143  23520428.4304   23520429.0984
     -1992.2344
   -343325.76149   -264413.01747  20884957.6174   20884955.1564
      1478.6414
   -126181.94047    -97623.60243  23297613.5084   23297613.4344
       457.5314
    490236.09149    368887.00147  21147411.2034   21147408.2274
     -2317.3124
   -115980.92048    -92181.23645  22371969.1644   22371963.5004
       409.8914
    -89624.39249    -71940.29347  20657354.9774   20657351.2934
       335.1254
   -611349.00448   -470807.76245  22506287.4224   22506284.1254
      2688.4694
 04  9 13 22  8  0.0000000  0  7G 3G 8G10G13G19G27G28
    447938.51448    336431.22843  23526137.1954   23526135.7704
     -2006.6254
   -365430.50549   -281637.50847  20880751.4144   20880748.6254
      1468.7344
   -132926.07947   -102878.81443  23296331.1884   23296329.5984
       441.6254
    525097.19249    396051.46647  21154045.2114   21154041.7544
     -2330.7814
   -122012.02648    -96880.83346  22370821.7194   22370815.5554
       394.2194
    -94579.94948    -75801.77747  20656411.8054   20656408.4694
       325.5634
   -651593.16148   -502166.82145  22498628.0634   22498626.4264
      2677.4694
 04  9 13 22  8 15.0000000  0  7G 3G 8G10G13G19G27G28
    478144.53148    359968.36843  23531884.5474   23531883.4734
     -2020.9534
   -387388.29249   -298747.47447  20876572.9774   20876570.3364
      1458.9534
   -139433.99647   -107949.89243  23295092.6414   23295091.3674
       425.9224
    560158.25049    423371.73347  21160717.1484   21160713.5164
     -2344.1254
   -127810.99748   -101399.52346  22369718.7034   22369713.7464
       378.8444
    -99394.34449    -79553.25947  20655495.9454   20655492.2194
       316.2194
   -691674.31348   -533398.86344  22491001.2814   22490998.2544
      2666.5944
 04  9 13 22  8 30.0000000  0  7G 3G 8G10G13G19G27G28
    508558.79148    383667.75343  23537672.1724   23537672.4574
     -2034.3444
   -409204.85849   -315747.38347  20872421.4774   20872418.5394
      1449.9534
   -145711.26047   -112841.27644  23293898.2974   23293897.5634
       411.0784
    595413.48749    450843.32147  21167425.8914   21167422.6414
     -2356.6094
   -133383.47448   -105741.71446  22368657.2974   22368653.4304
       364.2344
   -104073.23448    -83199.15747  20654605.4224   20654601.9654
       307.6254
   -731597.97348   -564508.18045  22483403.9144   22483400.9924
      2656.5634
 04  9 13 22  8 45.0000000  0  7G 3G 8G10G13G19G27G28
    539176.25347    407525.47643  23543499.2194   23543498.1564
     -2047.9534
   -430884.88949   -332640.92447  20868295.7584   20868292.7854
      1440.8134
   -151762.61248   -117556.62144  23292747.1804   23292746.0474
       395.8914
    630857.90849    478462.30747  21174170.5084   21174167.6294
     -2369.2814
   -138734.11348   -109911.04446  22367639.1564   22367635.8524
       349.1884
   -108621.20349    -86743.03847  20653739.9534   20653736.5084
       298.7504
   -771368.80948   -595498.43345  22475835.9614   22475833.0124
      2646.2814
 04  9 13 22  9  0.0000000  0  7G 3G 8G10G13G19G27G28
    569991.70248    431537.43943  23549362.7734   23549362.7034
     -2060.9694
   -452433.59149   -349432.13047  20864195.7194   20864192.4614
      1432.2664
   -157593.15148   -122099.89844  23291637.4614   23291636.0824
       381.3594
    666486.24649    506224.62047  21180950.4774   21180947.2734
     -2381.3284
   -143867.79949   -113911.32546  22366662.0084   22366658.7974
       335.0164
   -113043.35949    -90188.88747  20652898.3834   20652895.1094
       290.6094
   -810991.75248   -626373.39845  22468296.1174   22468293.8484
      2636.5634
 04  9 13 22  9 15.0000000  0  7G 3G 8G10G13G19G27G28
    601001.61547    455700.98243  23555263.5394   23555264.0634
     -2073.9534
   -473853.91649   -366123.28947  20860119.2894   20860116.5514
      1423.5314
   -163206.10747   -126473.66643  23290569.5704   23290567.9574
       366.7194
    702295.17049    534127.64547  21187765.0084   21187761.8914
     -2393.4844
   -148787.74348   -117745.04046  22365725.7194   22365721.8324
       320.6564
   -117342.79849    -93539.10647  20652080.1174   20652076.3954
       282.3914
   -850470.00048   -657135.66545  22460783.5704   22460780.5554
      2626.8134
 04  9 13 22  9 30.0000000  0  7G 3G 8G10G13G19G27G28
    632208.10347    480017.64143  23561201.7194   23561202.8324
     -2086.9694
   -495143.51849   -382712.58147  20856067.9694   20856064.5944
      1415.0004
   -168599.17648   -130676.07744  23289543.1804   23289541.2194
       352.2814
    738286.84749    562173.07047  21194613.8674   21194611.1524
     -2405.5164
   -153491.46748   -121410.27746  22364830.4454   22364827.1524
       306.5004
   -121517.15349    -96791.85547  20651285.9304   20651282.2304
       274.1724
   -889801.04548   -687783.20445  22453298.9064   22453296.4024
      2617.2194
 04  9 13 22  9 45.0000000  0  7G 3G 8G10G13G19G27G28
    663606.95548    504484.22443  23567176.9614   23567177.1054
     -2099.3444
   -516306.37349   -399203.11947  20852041.0084   20852037.6524
      1406.8284
   -173776.39447   -134710.28943  23288558.0314   23288556.3054
       338.1724
    774457.06849    590357.63747  21201496.7584   21201493.7704
     -2417.0784
   -157982.93448   -124910.12746  22363975.5704   22363971.5314
       292.5634
   -125570.31349    -99950.16947  20650514.5004   20650511.4654
       266.3444
   -928988.76448   -718319.04545  22445841.1884   22445839.2774
      2608.0004
 04  9 13 22 10  0.0000000  0  7G 3G 8G10G13G19G27G28
    695192.19248    529096.05143  23573188.4844   23573188.0354
     -2111.8914
   -537348.16549   -415599.32747  20848036.9534   20848033.9064
      1398.8134
   -178743.43147   -138580.70243  23287612.1564   23287610.8364
       324.0944
    810800.02549    618676.78547  21208412.5634   21208409.4804
     -2428.5624
   -162267.80749   -128248.98046  22363161.1334   22363156.3204
       278.7974
   -129508.00949   -103018.51747  20649765.2424   20649761.8134
       258.7344
   -968038.76348   -748747.60145  22438411.4064   22438407.8404
      2598.7814
 04  9 13 22 10 15.0000000  0  7G 3G 8G10G13G19G27G28
    726962.79148    553852.29243  23579233.4064   23579233.4304
     -2124.5624
   -558269.51749   -431901.68047  20844055.2664   20844052.4804
      1390.3754
   -183501.05547   -142287.97743  23286706.3524   23286705.8714
       309.8134
    847314.65849    647129.71147  21215361.2584   21215358.1334
     -2440.3444
   -166346.65949   -131427.33046  22362384.7664   22362380.5044
       264.7034
   -133330.78149   -105997.30747  20649037.8364   20649034.1764
       250.6724
  -1006951.70148   -779069.35145  22431005.0084   22431002.9494
      2589.2504
 04  9 13 22 10 30.0000000  0  7G 3G 8G10G13G19G27G28
    758920.96648    578754.73743  23585315.5394   23585314.4534
     -2136.5004
   -579067.89149   -448108.19847  20840097.4224   20840094.4694
      1382.7664
   -188046.78747   -145830.12144  23285842.0864   23285840.8244
       296.2814
    884003.34149    675718.26747  21222342.7034   21222339.7424
     -2451.4064
   -170216.87049   -134443.07046  22361648.9064   22361644.0514
       251.3914
   -137036.22349   -108884.67047  20648332.6254   20648329.4384
       243.4534
  -1045724.94948   -809282.24445  22423627.5084   22423624.4304
      2580.5634
 04  9 13 22 10 45.0000000  0  7G 3G 8G10G13G19G27G28
    791057.54348    603796.20142  23591431.0314   23591430.3834
     -2148.4064
   -599752.28749   -464225.91247  20836161.4924   20836159.0824
      1375.1884
   -192389.63347   -149214.16943  23285014.9224   23285014.2424
       282.8594
    920856.90949    704435.29547  21229355.6484   21229352.4144
     -2462.3284
   -173887.36749   -137303.20846  22360949.9454   22360945.3524
       238.0314
   -140633.26449   -111687.56147  20647648.2034   20647644.8404
       236.2034
  -1084367.29248   -839393.12845  22416274.3674   22416272.0594
      2571.7974
 04  9 13 22 11  0.0000000  0  7G 3G 8G10G13G19G27G28
    823370.64548    628975.21742  23597579.3444   23597578.1054
     -2160.2194
   -620324.00349   -480255.82447  20832246.8054   20832243.7704
      1367.6414
   -196531.08048   -152441.29243  23284227.6254   23284226.6804
       269.2814
    957873.81249    733279.60847  21236400.3594   21236396.7664
     -2473.2814
   -177359.57348   -140008.81846  22360288.8364   22360285.0204
       224.8134
   -144123.33349   -114407.10347  20646984.1174   20646980.7664
       229.0784
  -1122880.10948   -869403.09845  22408945.2344   22408942.5084
      2563.0944
 04  9 13 22 11 15.0000000  0  7G 3G 8G10G13G19G27G28
    855860.07248    654291.59842  23603762.0084   23603760.7814
     -2172.0004
   -640782.96949   -496197.88047  20828353.8524   20828350.7854
      1360.0784
   -200471.21648   -155511.52143  23283477.1564   23283476.5434
       255.8754
    995053.76049    762250.96747  21243475.1334   21243471.9304
     -2484.2194
   -180633.46048   -142559.89645  22359665.3444   22359661.5234
       211.5004
   -147506.34349   -117043.22547  20646339.7504   20646336.2304
       221.8594
  -1161263.41848   -899312.13545  22401641.3914   22401638.5474
      2554.4224
 04  9 13 22 11 30.0000000  0  7G 3G 8G10G13G19G27G28
    888521.65547    679742.14842  23609976.8834   23609976.2774
     -2183.0944
   -661133.06049   -512055.08547  20824481.3134   20824478.4304
      1353.0944
   -204213.92648   -158427.94543  23282764.7274   23282763.8874
       243.0314
   1032392.63849    791346.16346  21250580.5314   21250577.1724
     -2494.4844
   -183712.79948   -144959.38145  22359080.1174   22359074.8324
       198.9224
   -150786.07249   -119598.85247  20645715.6724   20645712.5274
       215.3284
  -1199520.93848   -929123.16645  22394360.9224   22394358.1054
      2546.3754
 04  9 13 22 11 45.0000000  0  7G 3G 8G10G13G19G27G28
    921352.85547    705324.80842  23616224.9064   23616223.9734
     -2194.5314
   -681376.61449   -527829.28747  20820629.1254   20820625.8874
      1345.8754
   -207761.61448   -161192.38043  23282090.6174   23282089.6414
       229.9064
   1069887.92349    820563.23047  21257715.8754   21257712.0984
     -2505.0784
   -186599.81249   -147209.02346  22358530.9924   22358525.2814
       185.8914
   -153964.89949   -122075.87147  20645111.0394   20645108.0274
       208.5004
  -1237654.99148   -958837.99345  22387103.9384   22387102.3204
      2538.0474
 04  9 13 22 12  0.0000000  0  7G 3G 8G10G13G19G27G28
    954355.19348    731040.86142  23622504.9534   23622504.8524
     -2205.7664
   -701511.64649   -543518.92447  20816797.5704   20816794.3954
      1338.7974
   -211112.40348   -163803.41143  23281452.5864   23281451.5704
       216.9224
   1107541.28649    849903.48646  21264880.8284   21264877.4884
     -2515.3914
   -189292.63549   -149307.34446  22358018.8914   22358012.9884
       173.1724
   -157040.85049   -124472.72247  20644525.9224   20644523.0664
       201.7504
  -1275663.59148   -988455.04945  22379871.3834   22379869.1294
      2529.8134
 04  9 13 22 12 15.0000000  0  7G 3G 8G10G13G19G27G28
    987526.67747    756888.69242  23628817.4454   23628817.4734
     -2216.9224
   -721539.97649   -559125.41047  20812986.0704   20812983.2624
      1331.7814
   -214268.10048   -166262.41043  23280852.3754   23280851.5084
       203.9844
   1145350.84049    879365.44047  21272075.9614   21272072.5664
     -2525.6724
   -191792.95849   -151255.65446  22357542.7344   22357537.8204
       160.4384
   -160015.54749   -126790.66947  20643959.9224   20643956.6684
       195.0474
  -1313548.32848  -1017975.59945  22372662.5314   22372659.1564
      2521.6724
 04  9 13 22 12 30.0000000  0  7G 3G 8G10G13G19G27G28
   1020863.04248    782865.05042  23635161.6804   23635160.7854
     -2227.9694
   -741465.43849   -574651.75447  20809194.5864   20809191.4024
      1324.8914
   -217232.66048   -168572.46143  23280288.5314   23280286.9414
       191.2034
   1183312.33749    908945.79046  21279299.6024   21279296.3364
     -2535.9224
   -194104.63849   -153056.97646  22357103.0004   22357097.9184
       147.7344
   -162893.00049   -129032.85647  20643412.0784   20643408.9384
       188.5314
  -1351313.11848  -1047402.67645  22365475.8754   22365473.3594
      2513.6094
 04  9 13 22 12 45.0000000  0  7G 3G 8G10G13G19G27G28
   1054362.37148    808968.36542  23641535.7584   23641535.7464
     -2238.6724
   -761289.55549   -590099.11347  20805422.2424   20805418.9964
      1318.2194
   -220007.89948   -170734.98843  23279759.3594   23279758.5274
       178.6884
   1221424.01349    938643.16047  21286551.8984   21286548.7894
     -2545.7814
   -196229.37149   -154712.60846  22356698.6024   22356694.7934
       135.5004
   -165674.83149   -131200.51847  20642883.2504   20642879.3984
       182.2814
  -1388959.47648  -1076737.48645  22358311.7584   22358308.7774
      2505.8754
 04  9 13 22 13  0.0000000  0  7G 3G 8G10G13G19G27G28
   1088023.83447    835198.03743  23647942.0314   23647941.2274
     -2249.5624
   -781012.92149   -605467.97147  20801668.8284   20801665.8634
      1311.4844
   -222594.46448   -172750.54043  23279268.1884   23279266.4384
       166.0004
   1259685.14749    968457.00747  21293832.5704   21293829.2584
     -2555.7344
   -198167.63848   -156222.93246  22356329.5704   22356325.7734
       122.9534
   -168361.56349   -133294.07947  20642371.4844   20642367.9344
       175.8444
  -1426487.79648  -1105980.30345  22351170.7974   22351167.6994
      2497.8444
 04  9 13 22 13 15.0000000  0  7G 3G 8G10G13G19G27G28
   1121846.63347    861553.40442  23654377.8134   23654377.9264
     -2260.1874
   -800636.01749   -620758.70547  20797934.5784   20797931.5594
      1304.8134
   -224992.71248   -174619.30743  23278811.2894   23278810.2194
       153.6414
   1298095.05149    998386.76846  21301142.2504   21301138.9264
     -2565.6874
   -199919.73347   -157588.21246  22355995.5704   22355992.1804
       110.5784
   -170953.48049   -135313.77247  20641878.7114   20641874.8284
       169.6414
  -1463898.54248  -1135131.49645  22344051.6254   22344048.5204
      2490.1414
 04  9 13 22 13 30.0000000  0  7G 3G 8G10G13G19G27G28
   1155827.80247    888032.19742  23660844.2344   23660843.9104
     -2270.6564
   -820161.33849   -635973.23147  20794218.7664   20794216.1054
      1298.4064
   -227205.43448   -176343.52443  23278390.5314   23278388.5784
       141.3444
   1336650.77649   1028430.16746  21308479.2424   21308475.8134
     -2575.2344
   -201488.44348   -158810.57446  22355697.4454   22355693.7774
        98.5314
   -173453.41149   -137261.78147  20641402.8134   20641399.3404
       163.5634
  -1501194.40348  -1164193.17345  22336954.4844   22336951.4104
      2482.5314
 04  9 13 22 13 45.0000000  0  7G 3G 8G10G13G19G27G28
   1189967.92247    914634.80242  23667339.8444   23667340.3634
     -2281.2974
   -839588.21749   -651111.06147  20790521.6954   20790519.1884
      1291.8914
   -229231.99647   -177922.70143  23278004.8364   23278003.1454
       129.0004
   1375352.92249   1058587.64146  21315843.6024   21315840.5274
     -2585.0164
   -202872.75748   -159889.27746  22355434.1174   22355429.8324
        86.1564
   -175860.45249   -139137.40447  20640944.6334   20640941.3484
       157.4224
  -1538374.51948  -1193164.67445  22329879.2194   22329876.8164
      2474.9224
 04  9 13 22 14  0.0000000  0  7G 3G 8G10G13G19G27G28
   1224264.07747    941359.02142  23673867.9144   23673867.4304
     -2291.4374
   -858919.12949   -666174.10747  20786843.4694   20786840.7814
      1285.7034
   -231074.94148   -179358.78543  23277654.1724   23277652.8634
       116.9224
   1414198.69549   1088857.04346  21323236.2664   21323232.6604
     -2594.3594
   -204075.27349   -160826.30546  22355206.2194   22355200.8914
        74.2194
   -178177.09149   -140942.58647  20640503.7424   20640500.7154
       151.5944
  -1575441.25548  -1222047.81545  22322825.3054   22322822.9844
      2467.4534
 04  9 13 22 14 15.0000000  0  7G 3G 8G10G13G19G27G28
   1258715.35647    968204.11443  23680423.2584   23680423.5984
     -2301.9374
   -878154.56049   -681162.75747  20783183.2194   20783180.6374
      1279.0784
   -232734.99048   -180652.33243  23277338.1024   23277337.5354
       104.5314
   1453187.21649   1119237.68846  21330655.1884   21330652.4654
     -2604.0314
   -205096.64249   -161622.19246  22355011.3364   22355006.9264
        62.0314
   -180403.91349   -142677.78547  20640080.0164   20640076.8204
       145.4384
  -1612395.28048  -1250843.13745  22315792.9774   22315790.1054
      2459.7974
 04  9 13 22 14 30.0000000  0  7G 3G 8G10G13G19G27G28
   1293319.48847    995168.30843  23687007.9844   23687008.5634
     -2312.1094
   -897296.66849   -696078.68847  20779540.6804   20779537.8674
      1272.9224
   -234214.18948   -181804.99343  23277056.6884   23277055.2114
        92.5004
   1492316.21649   1149727.78446  21338101.0164   21338097.9964
     -2613.3914
   -205938.83849   -162278.44746  22354850.6094   22354846.7734
        50.0004
   -182543.00349   -144344.61947  20639672.9534   20639669.9264
       139.5314
  -1649238.42148  -1279552.04545  22308782.3364   22308778.8874
      2452.4384
 04  9 13 22 14 45.0000000  0  7G 3G 8G10G13G19G27G28
   1328078.02048   1022252.82443  23693623.0164   23693623.3284
     -2322.2664
   -916343.55249   -710920.41347  20775916.0164   20775913.0354
      1266.7504
   -235510.78048   -182815.30643  23276810.0314   23276808.0744
        80.4844
   1531587.42849   1180328.70646  21345574.4144   21345570.9454
     -2622.6874
   -206600.05149   -162793.65945  22354724.2894   22354720.8324
        38.2034
   -184592.35549   -145941.51047  20639283.4224   20639279.5314
       133.7664
  -1685968.69648  -1308173.00945  22301792.7114   22301789.6764
      2445.0784
 04  9 13 22 15  0.0000000  0  7G 3G 8G10G13G19G27G28
   1362987.30948   1049454.77944  23700266.3134   23700266.1334
     -2332.4694
   -935298.22449   -725690.29547  20772309.1884   20772306.2034
      1260.5004
   -236628.10248   -183685.96643  23276597.2894   23276595.8794
        68.4064
   1570997.46349   1211037.78446  21353073.9304   21353070.5744
     -2632.0314
   -207083.36549   -163170.28046  22354632.4614   22354628.8444
        26.1254
   -186555.12949   -147470.95747  20638909.4224   20638906.2544
       127.7814
  -1722589.43148  -1336708.62145  22294823.8524   22294820.4924
      2437.6254
 04  9 13 22 15 15.0000000  0  7G 3G 8G10G13G19G27G28
   1398048.78348   1076775.35243  23706938.5314   23706938.4104
     -2342.3914
   -954158.86049   -740386.89047  20768720.3834   20768717.2464
      1254.3594
   -237564.37048   -184415.54843  23276418.8524   23276417.8874
        56.5004
   1610547.73449   1241856.14446  21360599.8754   21360596.9024
     -2641.2344
   -207387.04149   -163406.91246  22354574.9224   22354571.7974
        14.3594
   -188429.68049   -148931.65547  20638552.9844   20638549.3524
       122.0784
  -1759098.72248  -1365157.39445  22287876.4924   22287873.2734
      2430.3754
 04  9 13 22 15 30.0000000  0  7G 3G 8G10G13G19G27G28
   1433260.13048   1104212.69443  23713638.5234   23713638.4494
     -2352.2664
   -972927.84349   -755012.08247  20765148.6024   20765145.5204
      1248.2664
   -238321.86448   -185005.80843  23276274.5704   23276274.0904
        44.5784
   1650235.82349   1272781.90046  21368152.4614   21368148.8594
     -2650.3754
   -207513.14949   -163505.17646  22354551.2114   22354547.2544
         2.6564
   -190218.15049   -150325.28347  20638212.5944   20638209.4224
       116.4534
  -1795498.64149  -1393520.93845  22280950.3674   22280946.9614
      2423.1094
 04  9 13 22 15 45.0000000  0  7G 3G 8G10G13G19G27G28
   1468617.87548   1131764.13743  23720366.0784   23720367.1334
     -2361.9224
   -991608.26849   -769568.25247  20761593.5944   20761590.6334
      1242.5784
   -238903.94448   -185459.39743  23276164.3524   23276163.4304
        33.0784
   1690058.29249   1303812.36046  21375730.3054   21375727.5394
     -2659.1094
   -207464.89048   -163467.59546  22354560.8674   22354555.7774
        -8.8444
   -191923.55749   -151654.17947  20637887.8364   20637884.2974
       111.0634
  -1831792.39148  -1421801.75145  22274043.5634   22274040.2624
      2416.2034
 04  9 13 22 16  0.0000000  0  7G 3G 8G10G13G19G27G28
   1504121.70548   1159429.41443  23727122.9774   23727122.9414
     -2372.0004
  -1010200.07949   -784055.38247  20758056.0234   20758053.0004
      1236.2814
   -239310.56448   -185776.26943  23276086.8444   23276085.4104
        21.0944
   1730015.10549   1334947.51246  21383334.3204   21383330.6604
     -2668.5164
   -207242.24649   -163294.12045  22354602.4224   22354597.4574
       -20.8444
   -193545.88849   -152918.34447  20637579.3984   20637576.1914
       105.1884
  -1867979.87248  -1449999.76145  22267156.8984   22267154.2854
      2408.7194
 04  9 13 22 16 15.0000000  0  7G 3G 8G10G13G19G27G28
   1539773.94948   1187210.32242  23733907.1724   23733907.6844
     -2381.5784
  -1028700.43249   -798471.24047  20754535.2034   20754532.3634
      1230.4844
   -239539.20548   -185954.44043  23276043.7114   23276042.2544
         9.4694
   1770108.53149   1366189.10146  21390963.5394   21390960.1564
     -2677.3124
   -206842.54348   -162982.67045  22354678.3364   22354673.8634
       -32.3914
   -195082.42449   -154115.65147  20637286.8364   20637283.8324
        99.7664
  -1904058.34349  -1478112.84345  22260292.0314   22260288.2544
      2401.7814
 04  9 13 22 16 30.0000000  0  7G 3G 8G10G13G19G27G28
   1575573.99048   1215106.40742  23740719.6954   23740719.5314
     -2391.5164
  -1047109.60949   -812816.06147  20751032.2504   20751029.5204
      1224.2344
   -239590.29348   -185994.27543  23276034.1414   23276032.4224
        -2.5004
   1810338.15649   1397536.82146  21398619.2424   21398615.9414
     -2686.4694
   -206266.07448   -162533.47645  22354787.8134   22354783.8444
       -44.2974
   -196533.49949   -155246.37047  20637010.7424   20637007.2234
        93.8754
  -1940027.98348  -1506141.09945  22253446.1804   22253444.0204
      2394.2814
 04  9 13 22 16 45.0000000  0  7G 3G 8G10G13G19G27G28
   1611517.26047   1243114.07742  23747559.6884   23747558.9964
     -2400.9844
  -1065431.97849   -827093.23047  20747545.6174   20747542.8094
      1218.5634
   -239468.15148   -185899.10743  23276056.8914   23276055.2584
       -13.8754
   1850699.42649   1428987.13446  21406299.0784   21406296.6414
     -2695.1724
   -205517.00548   -161949.78446  22354930.6564   22354926.7424
       -55.6874
   -197903.32449   -156313.77947  20636749.9144   20636746.8484
        88.6094
  -1975893.06049  -1534087.88845  22246621.8134   22246618.9804
      2387.5164
 04  9 13 22 17  0.0000000  0  7G 3G 8G10G13G19G27G28
   1647602.20048   1271232.19342  23754426.7584   23754426.3164
     -2410.3444
  -1083668.64649   -841303.62147  20744075.3834   20744071.9964
      1213.0474
   -239174.12148   -185670.01143  23276113.1484   23276111.4344
       -25.1874
   1891190.88549   1460538.88846  21414005.2894   21414001.8634
     -2703.6254
   -204596.62749   -161232.60246  22355105.5394   22355101.8094
       -66.9064
   -199193.06649   -157318.78447  20636504.8054   20636501.4734
        83.4224
  -2011654.68549  -1561954.05945  22239816.6954   22239813.5554
      2380.7344
 04  9 13 22 17 15.0000000  0  7G 3G 8G10G13G19G27G28
   1683830.76948   1299462.18442  23761321.0634   23761320.6024
     -2420.0624
  -1101817.24949   -855445.39747  20740621.7424   20740618.5784
      1206.7974
   -238705.97548   -185305.25343  23276201.9694   23276201.4734
       -37.0784
   1931814.50949   1492193.61247  21421735.5634   21421732.5474
     -2712.7344
   -203502.61349   -160380.13746  22355314.6334   22355310.7734
       -78.8914
   -200400.37649   -158259.55747  20636275.4304   20636271.4774
        77.6094
  -2047310.51349  -1589737.80545  22233031.7194   22233028.5164
      2373.3134
 04  9 13 22 17 30.0000000  0  7G 3G 8G10G13G19G27G28
   1720203.57347   1327804.56142  23768242.2424   23768242.4264
     -2429.8284
  -1119876.93149   -869517.87547  20737185.3134   20737182.2384
      1200.8754
   -238062.97348   -184804.23343  23276324.9534   23276323.2304
       -48.8594
   1972571.05349   1523951.93846  21429490.7814   21429488.1024
     -2721.6724
   -202234.09949   -159391.69246  22355555.9924   22355551.8524
       -90.5474
   -201524.45649   -159135.47247  20636061.1564   20636057.6644
        72.0164
  -2082859.64349  -1617438.41345  22226266.9304   22226263.8754
      2366.2504
 04  9 13 22 17 45.0000000  0  7G 3G 8G10G13G19G27G28
   1756717.36247   1356256.77742  23775189.8594   23775190.6214
     -2438.6254
  -1137850.42649   -883523.20447  20733764.9384   20733762.0354
      1195.6724
   -237248.04248   -184169.24643  23276479.9144   23276477.9924
       -59.7504
   2013457.44149   1555811.42346  21437271.4224   21437268.2974
     -2729.8124
   -200793.91049   -158269.46146  22355829.5004   22355825.9064
      -101.4534
   -202567.90449   -159948.56047  20635862.8364   20635859.1374
        67.1564
  -2118304.68749  -1645057.88545  22219521.5704   22219518.6484
      2359.8134
 04  9 13 22 18  0.0000000  0  7G 3G 8G10G13G19G27G28
   1793369.65446   1384816.93342  23782164.1334   23782165.9454
     -2448.2664
  -1155739.93949   -897463.07247  20730360.4534   20730357.5984
      1189.6724
   -236263.40248   -183402.01443  23276666.4304   23276665.0474
       -71.5164
   2054471.24449   1587770.18646  21445076.5634   21445073.4534
     -2738.6874
   -199184.21949   -157015.16945  22356135.8204   22356131.2664
      -113.1874
   -203533.13049   -160700.68747  20635678.8284   20635675.7734
        61.5474
  -2153647.99949  -1672598.12645  22212795.9694   22212793.7814
      2352.6724
 04  9 13 22 18 15.0000000  0  7G 3G 8G10G13G19G27G28
   1830166.10747   1413489.41442  23789167.8674   23789168.3244
     -2457.5784
  -1173539.59349   -911332.93748  20726973.4454   20726970.3244
      1183.9224
   -235103.28148   -182498.04343  23276887.7894   23276886.2504
       -82.8594
   2095618.09149   1619832.63646  21452906.4304   21452903.4694
     -2747.2974
   -197399.08449   -155624.14045  22356475.1414   22356470.6994
      -124.5624
   -204414.04949   -161387.13247  20635511.1254   20635508.0554
        56.2344
  -2188883.56849  -1700054.38345  22206091.0164   22206088.0434
      2345.7194
 04  9 13 22 18 30.0000000  0  7G 3G 8G10G13G19G27G28
   1867104.24946   1442272.26342  23796195.5394   23796197.0944
     -2467.3284
  -1191251.70849   -925134.59647  20723603.1804   20723600.2774
      1177.8134
   -233770.06347   -181459.18743  23277141.1414   23277140.2424
       -94.7194
   2136895.37648   1651996.72046  21460761.0554   21460758.1564
     -2756.1874
   -195440.82349   -154098.24345  22356847.5704   22356842.7304
      -136.3914
   -205212.98049   -162009.68447  20635359.3444   20635355.9804
        50.4844
  -2224013.64849  -1727428.45445  22199406.7424   22199402.9574
      2338.4844
 04  9 13 22 18 45.0000000  0  7G 3G 8G10G13G19G27G28
   1904183.39047   1471165.03342  23803252.4694   23803253.0904
     -2476.7664
  -1208876.28649   -938868.01947  20720249.1884   20720246.3554
      1171.8594
   -232264.23748   -180285.82443  23277428.6254   23277426.7114
      -106.4064
   2178302.69749   1684262.12546  21468641.1484   21468637.5784
     -2764.9844
   -193309.73349   -152437.65546  22357254.0314   22357248.4454
      -147.9694
   -205930.06849   -162568.46847  20635222.5004   20635219.1294
        44.9384
  -2259038.41449  -1754720.45945  22192741.2734   22192737.7384
      2331.3444
 04  9 13 22 19  0.0000000  0  7G 3G 8G10G13G19G27G28
   1941402.72947   1500167.01742  23810334.6564   23810335.7544
     -2486.0314
  -1226413.82349   -952533.63947  20716912.1254   20716908.8634
      1166.2814
   -230586.23047   -178978.30143  23277747.5084   23277746.1684
      -117.6254
   2219839.26249   1716628.24846  21476545.1024   21476541.7344
     -2773.5004
   -191006.30149   -150642.78745  22357692.0314   22357687.1604
      -159.2974
   -206565.86449   -163063.90747  20635101.7974   20635098.5944
        39.6094
  -2293958.23349  -1781930.68545  22186096.2274   22186092.5864
      2324.5004
 04  9 13 22 19 15.0000000  0  7G 3G 8G10G13G19G27G28
   1978760.92647   1529277.30642  23817444.2664   23817444.1214
     -2495.2814
  -1243865.55049   -966132.39247  20713591.1644   20713588.0664
      1160.3914
   -228737.24247   -177537.55643  23278099.8284   23278098.2274
      -129.1094
   2261503.96249   1749094.21546  21484473.8754   21484470.9384
     -2782.0624
   -188531.44048   -148714.34146  22358163.1564   22358158.2624
      -170.8594
   -207121.17949   -163496.63247  20634996.3914   20634992.7384
        34.1564
  -2328774.08449  -1809059.90145  22179470.9774   22179467.3554
      2317.4224
 04  9 13 22 19 30.0000000  0  7G 3G 8G10G13G19G27G28
   2016257.39147   1558495.24642  23824580.1724   23824579.3364
     -2504.2664
  -1261231.35249   -979664.18647  20710286.3984   20710283.3164
      1154.9534
   -226717.64747   -175963.86743  23278483.3054   23278482.8094
      -140.2344
   2303296.42049   1781659.72446  21492426.2664   21492423.4384
     -2790.2664
   -185885.36748   -146652.48446  22358666.6334   22358662.7194
      -182.0314
   -207596.35749   -163866.91547  20634905.8364   20634902.2664
        29.1564
  -2363486.12649  -1836108.22045  22172864.7114   22172861.2664
      2310.7344
 04  9 13 22 19 45.0000000  0  7G 3G 8G10G13G19G27G28
   2053891.25748   1587820.30342  23831741.2114   23831740.8714
     -2513.4374
  -1278511.77449   -993129.44647  20706998.0634   20706994.7704
      1149.4064
   -224528.00048   -174257.64144  23278900.8524   23278899.2544
      -151.5314
   2345215.69448   1814324.05846  21500403.3284   21500400.5274
     -2798.7664
   -183068.81549   -144457.77246  22359202.4614   22359199.4774
      -193.2974
   -207991.90049   -164175.13747  20634830.4694   20634826.9924
        23.8914
  -2398094.87149  -1863076.06545  22166279.5634   22166275.8634
      2303.9534
 04  9 13 22 20  0.0000000  0  7G 3G 8G10G13G19G27G28
   2091661.98647   1617251.99042  23838928.0944   23838928.6804
     -2522.6874
  -1295707.14749  -1006528.44647  20703725.6884   20703723.0004
      1143.4844
   -222168.72646   -172419.28443  23279348.1484   23279348.1374
      -162.9374
   2387261.20448   1847086.74946  21508404.6024   21508401.4534
     -2807.3284
   -180081.90548   -142130.31546  22359770.6884   22359767.2304
      -204.8284
   -208307.85349   -164421.34047  20634770.2894   20634766.7034
        18.3594
  -2432600.46949  -1889963.53045  22159712.7274   22159709.2624
      2296.8444
 04  9 13 22 20 15.0000000  0  7G 3G 8G10G13G19G27G28
   2129567.33848   1646788.58042  23846142.1954   23846142.2624
     -2531.6254
  -1312819.30849  -1019862.59948  20700469.5474   20700466.7504
      1137.9844
   -219641.69347   -170450.17244  23279830.2894   23279829.4184
      -174.2034
   2429430.77848   1879946.12746  21516428.8364   21516426.2234
     -2815.4374
   -176926.53048   -139671.58346  22360371.4224   22360368.1884
      -215.9374
   -208546.26949   -164607.12047  20634724.8984   20634722.0594
        13.2504
  -2467004.72248  -1916772.00845  22153166.4064   22153162.7384
      2290.1414
 04  9 13 22 20 30.0000000  0  7G 3G 8G10G13G19G27G28
   2167609.54247   1676431.80742  23853381.7034   23853382.0664
     -2540.9064
  -1329845.54449  -1033129.79447  20697229.7114   20697226.1764
      1132.1254
   -216944.52448   -168348.50344  23280343.8444   23280342.1524
      -185.6094
   2471726.99349   1912904.18746  21524477.5704   21524474.6724
     -2824.0944
   -173600.00849   -137079.49946  22361004.1884   22361001.0784
      -227.6094
   -208704.41949   -164730.37247  20634694.8914   20634691.7464
         7.7504
  -2501304.96749  -1943499.45845  22146638.8054   22146635.8134
      2283.1414
 04  9 13 22 20 45.0000000  0  7G 3G 8G10G13G19G27G28
   2205789.33447   1706182.20342  23860646.6254   23860647.5904
     -2549.8124
  -1346784.93449  -1046329.31747  20694006.4224   20694003.4264
      1126.5314
   -214076.34248   -166113.58443  23280889.3834   23280888.6374
      -196.7664
   2514150.45948   1945961.38646  21532550.8134   21532547.9224
     -2832.4064
   -170101.54249   -134353.42046  22361670.2034   22361666.4304
      -238.9224
   -208781.16349   -164790.19347  20634680.7344   20634676.7194
         2.4694
  -2535500.28748  -1970145.14345  22140131.6414   22140129.0274
      2276.3134
 04  9 13 22 21  0.0000000  0  7G 3G 8G10G13G19G27G28
   2244104.58247   1736038.16743  23867937.4924   23867938.9064
     -2558.9224
  -1363639.24849  -1059462.55547  20690798.7424   20690796.0704
      1120.7344
   -211039.19548   -163746.98043  23281467.3284   23281466.1954
      -208.1724
   2556698.99949   1979116.06046  21540647.6644   21540643.9804
     -2840.7974
   -166433.03849   -131494.86046  22362368.5704   22362364.5944
      -250.2814
   -208778.63549   -164788.22247  20634680.9924   20634677.6254
        -2.8124
  -2569592.52649  -1996710.51645  22133644.9224   22133640.7624
      2269.3134
 04  9 13 22 21 15.0000000  0  7G 3G 8G10G13G19G27G28
   2282555.53448   1765999.86043  23875256.2034   23875255.4804
     -2567.9534
  -1380407.76149  -1072528.93447  20687607.8284   20687604.8054
      1115.1094
   -207832.42148   -161248.23543  23282078.0084   23282076.3594
      -219.3594
   2599373.16848   2012368.61746  21548767.6644   21548764.6564
     -2849.0784
   -162593.65949   -128503.15046  22363099.4924   22363094.5434
      -261.6414
   -208695.85749   -164723.73547  20634696.4534   20634693.3984
        -8.2504
  -2603580.94849  -2023194.96945  22127176.6564   22127173.7464
      2262.4064
 04  9 13 22 21 30.0000000  0  7G 3G 8G10G13G19G27G28
   2321140.69748   1796066.14043  23882598.0394   23882598.6564
     -2576.8594
  -1397091.45249  -1085529.20947  20684432.8524   20684429.6914
      1109.3284
   -204457.19048   -158618.19643  23282720.0084   23282718.5434
      -230.6564
   2642171.52448   2045717.95646  21556912.3754   21556909.2854
     -2857.4534
   -158584.64449   -125379.24546  22363862.2894   22363858.0864
      -272.9694
   -208534.11449   -164597.71347  20634727.7894   20634724.1684
       -13.4844
  -2637466.54549  -2049599.32245  22120728.0704   22120725.1454
      2255.4534
 04  9 13 22 21 45.0000000  0  7G 3G 8G10G13G19G27G28
   2359859.71648   1826236.75443  23889966.3594   23889966.6724
     -2585.4224
  -1413690.53849  -1098463.56547  20681274.3594   20681271.1524
      1104.0474
   -200913.88248   -155857.21543  23283394.0554   23283393.2194
      -241.5164
   2685093.67148   2079163.74046  21565080.4144   21565077.6174
     -2865.3594
   -154406.17649   -122123.32646  22364657.9694   22364652.6764
      -283.9374
   -208293.33149   -164410.09547  20634772.8054   20634769.8444
       -18.4374
  -2671249.36549  -2075923.57545  22114299.7734   22114296.1994
      2249.0164
 04  9 13 22 22  0.0000000  0  7G 3G 8G10G13G19G27G28
   2398709.84948   1856509.50943  23897359.2734   23897359.1604
     -2594.3754
  -1430207.49149  -1111333.91248  20678131.0084   20678128.5044
      1098.3594
   -197205.02347   -152967.18043  23284099.2344   23284098.3324
      -252.8594
   2728137.08849   2112704.02946  21573271.0394   21573268.1564
     -2873.6564
   -150060.54049   -118737.13146  22365484.5314   22365479.7704
      -295.3284
   -207975.89249   -164162.74647  20634833.4384   20634830.0554
       -23.7664
  -2704931.74749  -2102169.55845  22107889.8984   22107886.6564
      2242.1094
 04  9 13 22 22 15.0000000  0  7G 3G 8G10G13G19G27G28
   2437693.94948   1886886.65242  23904777.1094   23904776.8914
     -2603.7034
  -1446639.10349  -1124137.77047  20675004.2894   20675001.2464
      1092.3594
   -193327.55646   -149945.81843  23284837.3674   23284835.8674
      -264.3284
   2771304.74649   2146341.13946  21581485.6254   21581482.6174
     -2882.2664
   -145544.61148   -115218.23546  22366343.0554   22366339.1804
      -306.9374
   -207578.48249   -163853.09247  20634909.0474   20634905.6954
       -29.3284
  -2738510.48149  -2128334.79545  22101500.1094   22101497.1844
      2234.8914
 04  9 13 22 22 30.0000000  0  7G 3G 8G10G13G19G27G28
   2476814.83247   1917370.43642  23912221.9304   23912221.9264
     -2612.6874
  -1462981.98849  -1136872.49248  20671894.8284   20671891.4224
      1086.5474
   -189278.49546   -146790.70443  23285608.8364   23285606.8714
      -275.6254
   2814599.37749   2180077.16746  21589724.6024   21589721.2234
     -2890.5164
   -140855.41048   -111564.33746  22367235.8834   22367230.8954
      -318.3754
   -207098.13749   -163478.80647  20635000.6564   20634997.8364
       -34.7974
  -2771982.35749  -2154416.75045  22095130.7814   22095126.9774
      2227.8594
 04  9 13 22 22 45.0000000  0  7G 3G 8G10G13G19G27G28
   2516066.56647   1947956.13142  23919690.8054   23919690.5824
     -2621.3754
  -1479241.65249  -1149542.36547  20668800.3364   20668797.3014
      1080.9844
   -185063.49347   -143506.30243  23286409.8984   23286409.0744
      -286.7034
   2858015.16348   2213907.62046  21597985.9614   21597983.0864
     -2898.6254
   -135998.46348   -107779.71046  22368160.1254   22368154.9884
      -329.5944
   -206540.33249   -163044.15847  20635107.0004   20635103.5354
       -39.9534
  -2805353.00149  -2180419.83445  22088780.3834   22088776.7624
      2221.1564
 04  9 13 22 23  0.0000000  0  7G 3G 8G10G13G19G27G28
   2555451.34547   1978645.52442  23927185.5704   23927185.6524
     -2630.0784
  -1495415.65749  -1162145.48747  20665722.6094   20665719.4104
      1075.5004
   -180680.11048   -140090.72343  23287243.5944   23287243.7584
      -297.7034
   2901554.41649   2247834.27046  21606271.5554   21606268.1844
     -2906.6724
   -130971.19948   -103862.37846  22369116.1724   22369111.9344
      -340.7814
   -205902.49849   -162547.16047  20635228.0864   20635225.0824
       -45.1094
  -2838619.83049  -2206342.03045  22082450.0554   22082446.8204
      2214.4064
 04  9 13 22 23 15.0000000  0  7G 3G 8G10G13G19G27G28
   2594969.28246   2009438.60942  23934705.5944   23934705.8594
     -2639.0784
  -1511503.33349  -1174681.34247  20662661.3524   20662658.2464
      1069.4844
   -176128.14347   -136543.74343  23288110.3834   23288109.4414
      -309.2034
   2945217.26549   2281857.23346  21614579.9454   21614577.0864
     -2915.1874
   -125773.38648    -99812.16246  22370105.6024   22370101.8954
      -352.3754
   -205184.23749   -161987.48447  20635365.0634   20635361.8404
       -50.7034
  -2871782.36249  -2232182.95345  22076139.1094   22076136.3054
      2207.2344
 04  9 13 22 23 30.0000000  0  7G 3G 8G10G13G19G27G28
   2634621.83347   2040336.64342  23942251.0474   23942251.8554
     -2648.1254
  -1527503.20749  -1187148.77847  20659616.7274   20659614.1954
      1063.5004
   -171405.85247   -132864.05743  23289009.2344   23289008.3524
      -320.7034
   2989005.23049   2315977.68746  21622912.9774   21622909.3754
     -2923.5314
   -120403.10348    -95627.52545  22371127.3754   22371123.7074
      -363.9534
   -204383.51149   -161363.55347  20635517.5234   20635514.2704
       -56.3124
  -2904838.64449  -2257941.07245  22069849.1484   22069846.0864
      2200.0474
 04  9 13 22 23 45.0000000  0  7G 3G 8G10G13G19G27G28
   2674407.89647   2071338.65043  23949822.1254   23949823.7504
     -2656.7974
  -1543415.86749  -1199548.25147  20656588.2734   20656585.5044
      1058.0164
   -166514.27446   -129052.46643  23289939.9384   23289939.4844
      -331.6414
   3032917.35349   2350194.89246  21631268.9534   21631265.8954
     -2931.6414
   -114861.21648    -91309.18646  22372181.2814   22372178.3484
      -375.1254
   -203501.27249   -160676.10447  20635684.9844   20635681.8834
       -61.5004
  -2937789.54649  -2283617.08146  22063578.9224   22063575.5784
      2193.2344
 04  9 13 22 24  0.0000000  0  7G 3G 8G10G13G19G27G28
   2714326.17248   2102443.73143  23957419.9224   23957419.9224
     -2665.7664
  -1559242.14849  -1211880.42547  20653577.0164   20653573.8134
      1052.0784
   -161454.45148   -125109.79843  23290903.4064   23290901.8324
      -343.0944
   3076952.38249   2384507.85646  21639648.5474   21639645.6054
     -2939.9064
   -109148.69148    -86857.88745  22373268.6094   22373265.4344
      -386.6414
   -202538.43449   -159925.86047  20635868.2894   20635865.2154
       -66.9844
  -2970636.03949  -2309211.72945  22057327.9924   22057324.4614
      2186.1414
 04  9 13 22 24 15.0000000  0  7G 3G 8G10G13G19G27G28
   2754376.62747   2133651.82143  23965040.5784   23965041.0204
     -2674.2194
  -1574981.84049  -1224145.11647  20650581.6024   20650578.8094
      1046.5784
   -156226.35348   -121035.96443  23291897.8134   23291896.7154
      -354.0004
   3121110.28849   2418916.58746  21648051.2814   21648048.8444
     -2947.8124
   -103265.33848    -82273.46346  22374388.4384   22374385.3984
      -397.7814
   -201494.65949   -159112.54447  20636067.3364   20636063.7854
       -72.1094
  -3003377.71149  -2334724.70946  22051097.3134   22051094.4384
      2179.4534
 04  9 13 22 24 30.0000000  0  7G 3G 8G10G13G19G27G28
   2794560.06847   2164963.53042  23972687.4454   23972687.9414
     -2683.3444
  -1590633.73649  -1236341.40348  20647603.0554   20647600.0044
      1040.5944
   -150828.94448   -116830.22543  23292925.6094   23292924.2344
      -365.4224
   3165391.88149   2453421.69546  21656477.6724   21656475.6484
     -2956.2974
    -97210.11448    -77555.12646  22375540.4924   22375537.3634
      -409.5004
   -200368.75849   -158235.22047  20636281.1024   20636277.9344
       -77.7974
  -3036013.44149  -2360155.12845  22044886.7424   22044883.7194
      2172.2034
 04  9 13 22 24 45.0000000  0  7G 3G 8G10G13G19G27G28
   2834875.14647   2196377.77942  23980358.1644   23980359.6764
     -2691.9534
  -1606198.85449  -1248470.06347  20644641.4614   20644638.2114
      1034.7974
   -145263.19948   -112493.31543  23293983.6254   23293982.7774
      -376.6414
   3209796.09249   2488022.33046  21664927.9144   21664925.8204
     -2964.3754
    -90983.93648    -72703.57346  22376725.7424   22376722.2704
      -420.7504
   -199161.52649   -157294.53147  20636510.7894   20636507.8754
       -83.1724
  -3068544.10049  -2385503.68146  22038696.7814   22038693.9614
      2165.2034
 04  9 13 22 25  0.0000000  0  7G 3G 8G10G13G19G27G28
   2875323.28647   2227895.74542  23988057.0164   23988057.0274
     -2700.7664
  -1621675.17449  -1260529.54447  20641696.2664   20641693.3984
      1028.8444
   -139527.42948   -108023.92543  23295075.3204   23295074.6524
      -387.9374
   3254324.48349   2522719.74646  21673401.1884   21673398.7544
     -2972.5944
    -84584.98948    -67717.40146  22377943.2734   22377939.9774
      -432.2194
   -197871.29349   -156289.16647  20636756.5084   20636753.3244
       -88.7034
  -3100967.84549  -2410768.91446  22032527.1094   22032523.7274
      2158.0634
 04  9 13 22 25 15.0000000  0  7G 3G 8G10G13G19G27G28
   2915902.51646   2259515.85442  23995777.0554   23995778.3054
     -2709.6874
  -1637064.55749  -1272521.26547  20638767.6644   20638765.0044
      1023.0164
   -133623.66348   -103423.59243  23296199.8674   23296198.2304
      -399.1874
   3298974.95448   2557512.28146  21681897.9224   21681895.2664
     -2980.7504
    -78015.07049    -62597.99846  22379193.9614   22379190.0824
      -443.7194
   -196499.74449   -155220.43247  20637017.6414   20637014.5594
       -94.1414
  -3133286.33849  -2435952.13745  22026376.3054   22026373.2774
      2151.0634
 04  9 13 22 25 30.0000000  0  7G 3G 8G10G13G19G27G28
   2956614.86746   2291239.68342  24003525.0234   24003526.0274
     -2718.5624
  -1652364.38049  -1284443.20048  20635856.0084   20635853.8714
      1017.1564
   -127549.51148    -98690.50943  23297355.3054   23297354.2344
      -410.5624
   3343749.67049   2592401.62646  21690418.4304   21690415.5124
     -2989.0314
    -71271.75949    -57343.48546  22380476.9224   22380473.2034
      -455.2504
   -195044.28149   -154086.32047  20637294.4614   20637291.4454
       -99.7194
  -3165497.12149  -2461051.42946  22020247.3444   22020244.0824
      2143.9384
 04  9 13 22 25 45.0000000  0  7G 3G 8G10G13G19G27G28
   2997458.34647   2323065.71542  24011298.2274   24011297.9694
     -2727.3444
  -1667576.43449  -1296296.76947  20632961.5864   20632958.7034
      1011.1884
   -121306.87648    -93826.15443  23298543.1564   23298542.0864
      -421.7034
   3388646.77249   2627386.34046  21698961.7034   21698959.2074
     -2997.2034
    -64356.90848    -51955.31746  22381792.6094   22381789.4534
      -466.7034
   -193506.65549   -152888.18847  20637587.5084   20637584.1804
      -105.2344
  -3197601.84949  -2486068.08246  22014137.9384   22014135.1254
      2136.7814
 04  9 13 22 26  0.0000000  0  7G 3G 8G10G13G19G27G28
   3038432.08748   2354993.28542  24019094.9844   24019094.9734
     -2736.0164
  -1682701.06749  -1308082.18647  20630083.5634   20630080.2234
      1005.3594
   -114896.36548    -88830.95943  23299763.2274   23299761.9804
      -433.0004
   3433665.37649   2662465.73746  21707529.3134   21707525.7424
     -3005.3124
    -57271.05649    -46433.87846  22383141.2974   22383137.8284
      -478.1254
   -191887.27949   -151626.34647  20637895.2814   20637891.7734
      -110.6874
  -3229600.97049  -2511002.43846  22008048.9144   22008044.7624
      2129.7504
 04  9 13 22 26 15.0000000  0  7G 3G 8G10G13G19G27G28
   3079535.57347   2387021.94242  24026916.9064   24026917.3834
     -2744.6874
  -1697738.33449  -1319799.54947  20627221.6724   20627219.0594
       999.4694
   -108318.30348    -83705.22044  23301014.3984   23301014.0434
      -444.2974
   3478805.18749   2697639.56846  21716119.3204   21716116.0394
     -3013.5624
    -50014.38549    -40779.33346  22384521.7274   22384518.0434
      -489.6564
   -190186.29549   -150300.91147  20638218.5314   20638215.4924
      -116.2974
  -3261494.66449  -2535854.66046  22001979.7584   22001976.8134
      2122.5944
 04  9 13 22 26 30.0000000  0  7G 3G 8G10G13G19G27G28
   3120771.30548   2419153.61843  24034763.6884   24034764.3164
     -2753.3754
  -1712685.50649  -1331446.69347  20624377.3834   20624375.1294
       993.5474
   -101569.96048    -78446.80144  23302298.8594   23302298.4104
      -455.4844
   3524068.87849   2732909.94646  21724732.5004   21724729.3984
     -3021.7194
    -42583.96049    -34989.41046  22385935.9924   22385932.7734
      -501.1564
   -188400.71749   -148909.56447  20638558.9064   20638555.6684
      -121.8594
  -3293280.00349  -2560622.43246  21995930.9454   21995927.4454
      2115.4844
 04  9 13 22 26 45.0000000  0  7G 3G 8G10G13G19G27G28
   3162140.00647   2451388.88242  24042635.2584   24042636.4924
     -2762.1564
  -1727541.65349  -1343022.90947  20621550.3054   20621547.3484
       987.5474
    -94650.48848    -73055.03643  23303615.6724   23303614.7234
      -466.7034
   3569456.92549   2768277.21946  21733369.2974   21733366.4454
     -3029.7664
    -34978.94449    -29063.43246  22387383.7734   22387379.1054
      -512.5944
   -186529.63149   -147451.58647  20638915.0004   20638911.4694
      -127.4064
  -3324955.96049  -2585304.98346  21989902.3594   21989898.8554
      2108.2974
 04  9 13 22 27  0.0000000  0  6G 8G10G13G19G27G28
  -1742307.07349  -1354528.43748  20618740.2894   20618738.0084
       981.4224
    -87560.45848    -67530.36343  23304964.5704   23304964.2154
      -478.1564
   3614968.72449   2803740.91946  21742030.5554   21742027.2034
     -3038.1724
    -27199.80849    -23001.78646  22388863.7734   22388859.4144
      -524.3754
   -184573.44249   -145927.29547  20639287.2504   20639283.9884
      -133.1874
  -3356522.91049  -2609902.58846  21983895.6174   21983893.4574
      2100.8754
 04  9 13 22 27 15.0000000  0  6G 8G10G13G19G27G28
  -1756981.95549  -1365963.42047  20615948.0634   20615945.4734
       975.2194
    -80300.56348    -61873.31643  23306346.5634   23306345.4304
      -489.8594
   3660603.63448   2839300.53946  21750713.5234   21750711.0634
     -3046.5004
    -19247.17949    -16804.94246  22390377.0704   22390373.1564
      -536.0944
   -182532.50749   -144336.97047  20639675.2894   20639672.1564
      -138.9844
  -3387981.30749  -2634415.61446  21977909.9924   21977906.2234
      2093.4694
 04  9 13 22 27 30.0000000  0  6G 8G10G13G19G27G28
  -1771563.61149  -1377325.74347  20613173.3674   20613170.5554
       969.3134
    -72868.23648    -56081.93143  23307760.7424   23307759.4024
      -500.8914
   3706364.07148   2874957.98846  21759421.6644   21759419.3014
     -3054.5004
    -11118.18949    -10470.67446  22391923.5394   22391919.7584
      -547.4694
   -180404.09649   -142678.48047  20640080.5234   20640077.1174
      -144.5314
  -3419328.31949  -2658841.84646  21971945.0084   21971941.2894
      2086.3754
 04  9 13 22 27 45.0000000  0  6G 8G10G13G19G27G28
  -1786052.83649  -1388616.05647  20610415.9694   20610413.4964
       962.7814
    -65264.20048    -50156.75243  23309207.6804   23309207.4414
      -512.7664
   3752249.17348   2910712.57446  21768153.5864   21768150.8834
     -3063.2344
     -2813.52449     -3999.51746  22393504.5004   22393500.5004
      -559.5944
   -178188.61249   -140952.14447  20640502.1804   20640498.8834
      -150.7194
  -3450564.51049  -2683181.72446  21966000.4694   21965997.5434
      2078.6414
 04  9 13 22 28  0.0000000  0  6G 8G10G13G19G27G28
  -1800448.93449  -1399833.79548  20607676.2194   20607673.4614
       956.7344
    -57488.24948    -44097.57343  23310687.8364   23310686.8914
      -524.1094
   3798259.16148   2946564.46346  21776909.0474   21776905.9804
     -3071.4224
      5667.23749      2608.85446  22395118.0864   22395114.3484
      -571.2344
   -175885.65149   -139157.63347  20640940.0084   20640937.0434
      -156.3444
  -3481689.37649  -2707434.83546  21960077.3984   21960074.1214
      2071.3594
 04  9 13 22 28 15.0000000  0  6G 8G10G13G19G27G28
  -1814752.07549  -1410979.10547  20604954.9144   20604951.5784
       950.1724
    -49540.65848    -37904.68543  23312199.8284   23312199.0514
      -535.6874
   3844393.44849   2982513.21946  21785688.1484   21785685.4414
     -3079.9374
     14323.70949      9354.13445  22396764.9614   22396761.6524
      -583.2194
   -173495.47649   -137295.17747  20641395.2664   20641391.6524
      -162.4844
  -3512703.17149  -2731601.43246  21954175.7664   21954172.0594
      2063.7034
 04  9 13 22 28 30.0000000  0  6G 8G10G13G19G27G28
  -1828960.83949  -1422050.88047  20602250.9144   20602247.7194
       944.0314
    -41420.30348    -31577.19443  23313744.8284   23313744.2304
      -547.2034
   3890653.21848   3018559.75446  21794491.0634   21794488.5274
     -3088.2344
     23157.15248     16237.32645  22398446.1414   22398442.2384
      -594.8124
   -171016.64549   -135363.62847  20641867.0314   20641863.1954
      -168.2974
  -3543604.61849  -2755680.46346  21948295.7274   21948293.1684
      2056.2344
 04  9 13 22 28 45.0000000  0  6G 8G10G13G19G27G28
  -1843074.98849  -1433048.91947  20599565.2034   20599562.4184
       937.5314
    -33127.02148    -25114.90843  23315323.7344   23315322.2154
      -558.8594
   3937038.29048   3054703.92646  21803318.4694   21803315.3284
     -3096.7344
     32167.87149     23258.64646  22400161.1414   22400156.4844
      -606.8594
   -168448.89249   -133362.79547  20642355.6564   20642352.3714
      -174.3914
  -3574393.39249  -2779671.70146  21942437.0634   21942432.8674
      2048.6254
 04  9 13 22 29  0.0000000  0  6G 8G10G13G19G27G28
  -1857094.79449  -1443973.43947  20596897.0234   20596894.2034
       931.4844
    -24661.38448    -18518.31843  23316934.3674   23316933.4734
      -570.0944
   3983547.98948   3090945.19946  21812168.7664   21812166.0084
     -3104.8124
     41355.38249     30417.72645  22401909.2034   22401904.9614
      -618.3594
   -165792.49649   -131292.89247  20642861.0634   20642857.6804
      -180.0944
  -3605069.69949  -2803575.29846  21936599.1564   21936596.2814
      2041.3284
 04  9 13 22 29 15.0000000  0  6G 8G10G13G19G27G28
  -1871019.91849  -1454824.18947  20594247.3984   20594244.3524
       925.0944
    -16023.09048    -11787.21343  23318577.9454   23318576.7384
      -581.7194
   4030182.81348   3127283.97546  21821043.1884   21821040.3874
     -3113.2194
     50720.15248     37714.93046  22403690.6954   22403686.3404
      -630.2504
   -163046.96849   -129153.53747  20643383.4774   20643380.2114
      -186.0944
  -3635633.04549  -2827390.88746  21930783.2274   21930779.7034
      2033.6564
 04  9 13 22 29 30.0000000  0  6G 8G10G13G19G27G28
  -1884850.61149  -1465601.36947  20591615.8284   20591612.7664
       918.9064
     -7212.76148     -4922.07943  23320254.4064   23320253.9574
      -593.1414
   4076942.05348   3163719.69146  21829941.5234   21829937.9924
     -3121.4534
     60261.63449     45149.85646  22405506.5234   22405502.4884
      -642.0004
   -160212.60749   -126944.95947  20643922.6094   20643919.2114
      -191.9694
  -3666083.81649  -2851118.74246  21924988.3674   21924984.5474
      2026.2194
 04  9 13 22 29 45.0000000  0  6G 8G10G13G19G27G28
  -1898588.14349  -1476305.93747  20589001.6174   20588998.5314
       912.7814
      1768.11148      2075.99343  23321964.0864   23321962.1294
      -604.3754
   4123823.86648   3200250.94246  21838862.3054   21838859.0274
     -3129.4224
     69978.35248     52721.29846  22407356.1954   22407351.5864
      -653.5474
   -157290.82349   -124668.25447  20644478.8284   20644475.6374
      -197.6414
  -3696423.41449  -2874759.98046  21919215.0234   21919212.1804
      2018.9224
 04  9 13 22 30  0.0000000  0  6G 8G10G13G19G27G28
  -1912230.85449  -1486936.62447  20586405.3594   20586402.0864
       906.4064
     10921.13548      9208.19343  23323705.0234   23323703.8284
      -615.9224
   4170829.79648   3236878.89045  21847807.3284   21847804.1524
     -3137.8594
     79872.04049     60430.65746  22409239.3984   22409234.5234
      -665.4844
   -154279.82849   -122322.04247  20645051.7344   20645048.7774
      -203.7344
  -3726650.03749  -2898313.17746  21913462.9774   21913459.5904
      2011.2974
 04  9 13 22 30 15.0000000  0  6G 8G10G13G19G27G28
  -1925775.86949  -1497491.18547  20583827.8284   20583824.8324
       899.5634
     20248.79248     16476.47643  23325480.8524   23325479.4804
      -627.8444
   4217962.31148   3273605.47646  21856776.5784   21856773.5354
     -3146.5314
     89945.42549     68280.03646  22411156.0784   22411151.0824
      -677.7034
   -151176.77249   -119904.09347  20645642.3914   20645639.5314
      -210.0944
  -3756760.93849  -2921776.21046  21907733.3834   21907728.7664
      2003.3594
 04  9 13 22 30 30.0000000  0  6G 8G10G13G19G27G28
  -1939226.15849  -1507971.91947  20581268.0394   20581265.5744
       893.6564
     29747.77448     23878.26743  23327288.3914   23327286.7544
      -638.8914
   4265217.97548   3310428.02646  21865768.6174   21865765.7344
     -3154.4064
    100195.30549     76266.93046  22413106.8284   22413101.8984
      -689.1094
   -147984.85049   -117416.90047  20646250.0004   20646247.0824
      -215.7504
  -3786759.24249  -2945151.49946  21902024.6884   21902022.0514
      1996.2034
 04  9 13 22 30 45.0000000  0  6G 8G10G13G19G27G28
  -1952579.98449  -1518377.51147  20578727.2504   20578723.9384
       886.8284
     39419.72348     31414.81344  23329128.8984   23329127.9924
      -650.7194
   4312598.44548   3347347.82246  21874785.6644   21874782.6294
     -3162.9844
    110623.35649     84392.68346  22415091.0474   22415086.3594
      -701.2974
   -144702.10249   -114858.92247  20646874.4224   20646871.3754
      -222.0314
  -3816643.04949  -2968437.58046  21896337.9144   21896334.3674
      1988.2664
 04  9 13 22 31  0.0000000  0  6G 8G10G13G19G27G28
  -1965836.85249  -1528707.54547  20576204.2584   20576201.4264
       880.6564
     49265.12447     39086.53243  23331002.4844   23331000.9964
      -662.0314
   4360103.90148   3384365.00146  21883824.8754   21883822.1414
     -3171.0474
    121230.06449     92657.64246  22417109.5164   22417105.2704
      -712.9694
   -141327.93149   -112229.71847  20647516.7114   20647513.3524
      -227.8754
  -3846411.75549  -2991633.95546  21890673.1884   21890670.0124
      1980.8134
 04  9 13 22 31 15.0000000  0  6G 8G10G13G19G27G28
  -1978997.37149  -1538962.49647  20573699.9384   20573697.3284
       874.1254
     59282.88446     46892.54243  23332908.9924   23332907.6684
      -673.6414
   4407733.21248   3421478.71045  21892888.3984   21892886.3094
     -3179.4374
    132014.45748    101061.04846  22419161.4534   22419156.6484
      -724.8754
   -137863.20549   -109529.94647  20648175.7274   20648172.5514
      -234.0944
  -3876066.22049  -3014741.32246  21885030.3364   21885026.8244
      1973.0944
 04  9 13 22 31 30.0000000  0  6G 8G10G13G19G27G28
  -1992061.86349  -1549142.62247  20571213.8594   20571210.8134
       867.9064
     69472.40846     54832.43443  23334847.6884   23334846.7774
      -684.9694
   4455485.87848   3458688.52545  21901975.6804   21901973.3484
     -3187.4694
    142976.24048    109602.69446  22421247.7894   22421243.5744
      -736.5004
   -134308.12149   -106759.75847  20648852.4384   20648849.1884
      -239.8914
  -3905606.70749  -3037759.87646  21879409.0164   21879405.3754
      1965.7034
 04  9 13 22 31 45.0000000  0  6G 8G10G13G19G27G28
  -2005030.09249  -1559247.74647  20568746.1884   20568743.1294
       861.4224
     79833.61246     62906.06943  23336819.5084   23336818.5354
      -696.4374
   4503361.46648   3495994.14346  21911086.5004   21911083.5164
     -3195.6254
    154115.30348    118282.46346  22423367.1254   22423363.1724
      -748.3124
   -130662.65849   -103919.15047  20649546.0474   20649543.6294
      -245.8914
  -3935033.16348  -3060689.56646  21873809.1564   21873805.8014
      1958.0314
 04  9 13 22 32  0.0000000  0  6G 8G10G13G19G27G28
  -2017901.74849  -1569277.60547  20566296.7424   20566293.5514
       854.7504
     90366.85647     71113.77043  23338823.8204   23338822.6484
      -708.0944
   4551360.35248   3533395.82246  21920219.9144   21920217.2854
     -3204.1874
    165432.16548    127100.78746  22425521.0784   22425516.7624
      -760.5474
   -126926.22549   -101007.65247  20650256.9534   20650254.0784
      -252.2814
  -3964345.20149  -3083530.11546  21868231.0704   21868227.1804
      1950.2504
 04  9 13 22 32 15.0000000  0  6G 8G10G13G19G27G28
  -2030678.28049  -1579233.35047  20563865.3834   20563862.5984
       848.4844
    101070.42748     79454.17244  23340860.4224   23340859.8404
      -719.3594
   4599480.65948   3570892.12545  21929377.3134   21929374.5784
     -3212.1414
    176925.04349    136056.26846  22427707.7274   22427704.0514
      -772.1874
   -123100.36049    -98026.47347  20650985.3524   20650981.7034
      -258.1564
  -3993544.15749  -3106282.53246  21862674.8594   21862671.7234
      1942.8444
 04  9 13 22 32 30.0000000  0  6G 8G10G13G19G27G28
  -2043359.86449  -1589115.11047  20561452.4694   20561449.3914
       841.9844
    111943.85648     87926.95244  23342929.7974   23342928.8594
      -730.8754
   4647722.03748   3608482.75546  21938557.3054   21938554.6334
     -3220.3594
    188593.66749    145148.68846  22429927.8364   22429924.5004
      -784.0314
   -119185.26949    -94975.77047  20651730.2034   20651727.2114
      -264.2194
  -4022630.22149  -3128946.98546  21857139.8594   21857136.6724
      1935.0784
 04  9 13 22 32 45.0000000  0  6G 8G10G13G19G27G28
  -2055943.36149  -1598920.43247  20559057.7034   20559054.3014
       835.5944
    122990.03548     96534.35444  23345031.8204   23345031.4454
      -742.2194
   4696087.26048   3646169.89045  21947760.9534   21947757.9184
     -3228.5474
    200441.16348    154380.47446  22432181.9924   22432178.5204
      -795.9064
   -115177.75449    -91853.04147  20652492.7894   20652489.6454
      -270.3124
  -4051600.38449  -3151521.13546  21851627.3284   21851622.8594
      1927.4064
 04  9 13 22 33  0.0000000  0  6G 8G10G13G19G27G28
  -2068427.29049  -1608648.17947  20556682.2894   20556679.0634
       828.9064
    134210.35248    105277.42643  23347166.8524   23347165.9964
      -753.8444
   4744577.28748   3683954.27445  21956988.3134   21956985.7034
     -3236.8124
    212468.82948    163752.67045  22434471.1884   22434466.7584
      -807.8754
   -111076.23849    -88657.06547  20653273.3594   20653270.3244
      -276.5624
  -4080453.16049  -3174003.80246  21846136.1564   21846133.6134
      1919.5944
 04  9 13 22 33 15.0000000  0  6G 8G10G13G19G27G28
  -2080814.69449  -1618300.69347  20554324.8834   20554322.5084
       822.7664
    145601.49048    114153.59543  23349334.3674   23349333.8524
      -764.9224
   4793188.87348   3721833.39246  21966239.4844   21966236.2854
     -3244.5944
    224673.50548    173262.79245  22436793.3284   22436789.2704
      -819.2814
   -106883.88049    -85390.30247  20654071.0474   20654068.4414
      -282.2814
  -4109191.53449  -3196397.33946  21840667.9924   21840663.7854
      1912.2974
 04  9 13 22 33 30.0000000  0  6G 8G10G13G19G27G28
  -2093109.73249  -1627881.25347  20551984.9454   20551982.2074
       816.5314
    157158.74048    123159.21844  23351533.5474   23351532.9884
      -776.1094
   4841917.33548   3759803.56546  21975511.8054   21975508.5904
     -3252.6254
    237050.68248    182907.32746  22439149.0314   22439144.6844
      -831.0624
   -102605.14149    -82056.22247  20654885.1024   20654882.3524
      -288.2344
  -4137819.99549  -3218705.22946  21835220.1414   21835216.7814
      1904.7034
 04  9 13 22 33 45.0000000  0  6G 8G10G13G19G27G28
  -2105308.99149  -1637387.17847  20549663.7814   20549661.0434
       810.0944
    168885.64848    132297.05243  23353765.0864   23353764.9574
      -787.2974
   4890766.05648   3797867.45245  21984806.7504   21984804.4414
     -3260.5784
    249603.98049    192689.11046  22441538.0864   22441533.2624
      -842.7034
    -98236.01849    -78651.72947  20655716.7894   20655713.7664
      -294.2194
  -4166334.79449  -3240924.55146  21829794.0004   21829790.9574
      1897.3134
 04  9 13 22 34  0.0000000  0  6G 8G10G13G19G27G28
  -2117412.66249  -1646818.61647  20547360.5394   20547357.7154
       803.9844
    180781.40748    141566.44143  23356029.2584   23356028.4534
      -798.4374
   4939734.15748   3836024.38045  21994125.5864   21994122.8554
     -3268.2194
    262332.76049    202607.63645  22443960.0164   22443955.7074
      -854.2504
    -93777.23149    -75177.35847  20656565.1954   20656561.7464
      -300.0314
  -4194736.42649  -3263055.67346  21824388.5634   21824385.2544
      1889.8754
 04  9 13 22 34 15.0000000  0  6G 8G10G13G19G27G28
  -2129419.37449  -1656174.49947  20545075.6254   20545073.0394
       797.1094
    192847.25048    150968.37443  23358325.1254   23358323.9224
      -810.1254
   4988822.89948   3874275.29646  22003466.9534   22003464.3954
     -3276.6874
    275238.29249    212663.88545  22446415.8444   22446411.1214
      -866.3914
    -89227.15849    -71631.86447  20657431.0634   20657428.1954
      -306.5314
  -4223023.50549  -3285097.54646  21819006.4844   21819003.1294
      1881.9384
 04  9 13 22 34 30.0000000  0  6G 8G10G13G19G27G28
  -2141330.81249  -1665456.13847  20542809.2734   20542806.0704
       790.9534
    205081.69147    160501.67044  23360653.8284   23360652.8594
      -821.2814
   5038030.50048   3912618.82345  22012830.9844   22012828.1254
     -3284.5784
    288319.06148    222856.67345  22448904.6024   22448901.1054
      -877.9224
    -84587.20249    -68016.32847  20658314.3754   20658310.8674
      -312.3594
  -4251197.37749  -3307051.20146  21813644.7584   21813641.6024
      1874.5004
 04  9 13 22 34 45.0000000  0  6G 8G10G13G19G27G28
  -2153150.86149  -1674666.57147  20540559.6804   20540556.6764
       785.0164
    217479.98447    170162.65943  23363013.5394   23363012.1134
      -831.8914
   5087352.33448   3951051.38045  22022216.5634   22022213.6644
     -3291.8914
    301570.53648    233182.49245  22451426.5634   22451422.8244
      -889.1094
    -79861.83649    -64334.23547  20659213.6484   20659210.3524
      -317.8594
  -4279262.55549  -3328920.18446  21808304.0554   21808300.7544
      1867.4534
 04  9 13 22 35  0.0000000  0  6G 8G10G13G19G27G28
  -2164877.65349  -1683804.33847  20538328.3364   20538325.1684
       778.6884
    230043.90848    179952.70243  23365403.0704   23365402.8714
      -843.1724
   5136789.90948   3989574.11645  22031624.6174   22031621.5944
     -3299.7504
    314994.60748    243642.77946  22453980.6884   22453977.8284
      -900.6874
    -75049.11649    -60584.07547  20660129.0234   20660126.1094
      -323.8124
  -4307216.97049  -3350702.82346  21802984.8914   21802981.6564
      1859.8754
 04  9 13 22 35 15.0000000  0  6G 8G10G13G19G27G28
  -2176510.69349  -1692869.04747  20536114.3754   20536111.6024
       772.5944
    242773.77448    189872.05243  23367825.8984   23367825.4804
      -854.0314
   5186343.55148   4028187.29845  22041053.8674   22041051.3834
     -3307.2034
    328591.67648    254237.85546  22456568.8134   22456565.8874
      -912.0164
    -70148.21349    -56765.19747  20661061.2894   20661058.8634
      -329.5164
  -4335060.06449  -3372398.74446  21797686.0704   21797682.8134
      1852.6414
 04  9 13 22 35 30.0000000  0  6G 8G10G13G19G27G28
  -2188051.29649  -1701861.73847  20533918.4384   20533915.5004
       766.2814
    255667.86448    199919.34843  23370280.2814   23370279.0084
      -865.0944
   5236011.50448   4066889.53145  22050506.2114   22050503.1604
     -3315.0314
    342360.22948    264966.56846  22459188.6954   22459186.0274
      -923.6564
    -65160.78349    -52878.90447  20662010.9774   20662007.7074
      -335.3284
  -4362793.31449  -3394009.06946  21792408.7504   21792405.2704
      1845.2034
 04  9 13 22 35 45.0000000  0  6G 8G10G13G19G27G28
  -2199498.44549  -1710781.59047  20531739.9384   20531736.9184
       760.1724
    268727.03648    210095.31943  23372765.2584   23372763.7624
      -876.0004
   5285794.53248   4105681.45545  22059979.2034   22059976.2734
     -3322.5314
    356301.13349    275829.60246  22461842.2584   22461838.6564
      -934.9844
    -60085.59549    -48924.22247  20662976.5234   20662973.5394
      -341.1724
  -4390415.61148  -3415532.92846  21787152.7974   21787149.0314
      1837.9064
 04  9 13 22 36  0.0000000  0  6G 8G10G13G19G27G28
  -2210853.21049  -1719629.45947  20529579.3984   20529576.1374
       753.9844
    281950.15148    220399.00643  23375281.3444   23375280.4694
      -886.8284
   5335691.35548   4144562.03945  22069474.2114   22069471.5634
     -3330.1724
    370413.28149    286826.06145  22464527.6564   22464523.2194
      -946.3754
    -54923.75349    -44902.02047  20663958.8134   20663955.8324
      -346.8594
  -4417927.88149  -3436971.05446  21781917.2974   21781913.3094
      1830.5634
 04  9 13 22 36 15.0000000  0  6G 8G10G13G19G27G28
  -2222117.23149  -1728406.63347  20527436.0084   20527433.7974
       747.8914
    295335.25148    230828.93243  23377827.5234   23377827.4384
      -897.7194
   5385699.99048   4183529.76145  22078990.3984   22078987.5554
     -3337.6094
    384694.97549    297954.65145  22467245.0004   22467240.6454
      -957.7034
    -49676.72849    -40813.44547  20664957.3914   20664954.1764
      -352.6254
  -4445331.92249  -3458324.84946  21776702.4924   21776699.1214
      1823.3594
 04  9 13 22 36 30.0000000  0  6G 8G10G13G19G27G28
  -2233292.60849  -1737114.72347  20525309.1724   20525306.5744
       742.0784
    308879.91048    241383.18743  23380405.8284   23380404.2624
      -908.2814
   5435817.91848   4222582.65445  22088527.4614   22088524.5594
     -3344.8124
    399143.88049    309213.52745  22469994.9844   22469989.9024
      -968.8594
    -44346.76049    -36660.23347  20665971.6484   20665968.6254
      -358.1094
  -4472629.92149  -3479596.00946  21771507.7814   21771504.1884
      1816.3134
 04  9 13 22 36 45.0000000  0  6G 8G10G13G19G27G28
  -2244376.68849  -1745751.67847  20523199.7424   20523197.5664
       735.8134
    322586.49848    252063.64243  23383013.8364   23383012.8794
      -919.2504
   5486047.39248   4261722.44345  22098085.7424   22098083.5514
     -3352.3754
    413762.40848    320604.57445  22472776.3054   22472772.4734
      -980.3284
    -38931.29049    -32440.39547  20667002.0634   20666999.0124
      -363.9374
  -4499819.38749  -3500782.59946  21766334.0314   21766330.1844
      1808.9844
 04  9 13 22 37  0.0000000  0  6G 8G10G13G19G27G28
  -2255367.91349  -1754316.27347  20521108.8364   20521105.6844
       729.6564
    336456.30948    262871.21943  23385653.8914   23385652.5664
      -930.0784
   5536389.79248   4300950.21945  22107665.6254   22107663.1724
     -3359.9694
    428551.97548    332128.88045  22475590.3444   22475587.7034
      -991.6564
    -33428.69749    -28152.68047  20668049.3364   20668046.2504
      -369.7344
  -4526898.64749  -3521883.31646  21761180.9304   21761177.8364
      1801.6094
 04  9 13 22 37 15.0000000  0  6G 8G10G13G19G27G28
  -2266267.25349  -1762809.26447  20519034.3054   20519031.2934
       723.7344
    350488.00348    273805.00643  23388323.6644   23388323.0704
      -940.6724
   5586843.51848   4340264.77445  22117266.6884   22117264.4614
     -3367.1724
    443511.29348    343785.47746  22478436.9844   22478434.4064
     -1002.7814
    -27840.10449    -23797.93947  20669112.7974   20669109.8594
      -375.2974
  -4553868.88848  -3542899.07646  21756048.6644   21756044.6414
      1794.5314
 04  9 13 22 37 30.0000000  0  6G 8G10G13G19G27G28
  -2277077.89849  -1771233.14447  20516977.2194   20516974.1174
       717.7974
    364678.11047    284862.20343  23391023.9304   23391023.3404
      -951.2814
   5637405.07748   4379663.33045  22126888.4694   22126886.3524
     -3374.3594
    458636.96748    355571.68946  22481315.6254   22481312.6334
     -1013.8754
    -22168.66249    -19378.65147  20670192.2974   20670188.8594
      -380.8594
  -4580733.42749  -3563832.47346  21750936.5864   21750933.0474
      1787.4384
 04  9 13 22 37 45.0000000  0  6G 8G10G13G19G27G28
  -2287800.25149  -1779588.23047  20514936.9064   20514934.1484
       711.7974
    379026.21947    296042.52243  23393754.4304   23393753.5234
      -961.9064
   5688073.88048   4419145.46445  22136530.0004   22136527.9884
     -3381.6254
    473928.76048    367487.35246  22484225.2344   22484221.9804
     -1025.0474
    -16414.59149    -14894.96347  20671286.8444   20671283.6724
      -386.4694
  -4607492.32049  -3584683.56346  21745844.6414   21745840.4064
      1780.3444
 04  9 13 22 38  0.0000000  0  6G 8G10G13G19G27G28
  -2298432.88749  -1787873.41247  20512913.5864   20512910.7664
       705.8594
    393533.20648    307346.62643  23396515.0634   23396514.4224
      -972.3284
   5738850.78948   4458711.83345  22146192.6094   22146190.4694
     -3388.7344
    489387.60248    379533.18046  22487167.1954   22487163.8834
     -1036.1724
    -10576.70249    -10345.97547  20672398.0944   20672394.8364
      -391.9064
  -4634144.43948  -3605451.43946  21740772.5944   21740769.2154
      1773.2664
 04  9 13 22 38 15.0000000  0  6G 8G10G13G19G27G28
  -2308978.10749  -1796090.46247  20510906.7504   20510904.0434
       700.1254
    408196.69948    318772.67343  23399304.5084   23399304.5634
      -982.7504
   5789733.24748   4498360.44245  22155875.5164   22155873.2544
     -3395.6874
    505011.25048    391707.44845  22490140.1644   22490136.9024
     -1047.0944
     -4657.02749     -5733.25047  20673524.3674   20673521.3204
      -397.3124
  -4660692.07749  -3626137.90146  21735720.9774   21735716.9144
      1766.3444
 04  9 13 22 38 30.0000000  0  6G 8G10G13G19G27G28
  -2319435.21049  -1804238.85947  20508916.9774   20508914.3404
       694.1884
    423017.04048    330320.96043  23402125.6564   23402124.6174
      -993.2974
   5840721.73649   4538091.69945  22165578.6174   22165576.0044
     -3402.6414
    520800.07248    404010.40945  22493144.5314   22493140.8984
     -1058.1254
      1344.85349     -1056.47147  20674666.9694   20674663.2734
      -402.8284
  -4687134.62849  -3646742.47546  21730689.2034   21730685.2814
      1759.3284
 04  9 13 22 38 45.0000000  0  6G 8G10G13G19G27G28
  -2329806.49449  -1812320.38547  20506943.5004   20506940.5004
       688.5944
    437991.62148    341989.42244  23404975.1174   23404974.3594
     -1003.4224
   5891813.80948   4577903.64645  22175300.7424   22175298.5204
     -3409.4694
    536751.67448    416440.20545  22496180.3594   22496175.8794
     -1068.8124
      7426.82049      3682.71147  20675824.0314   20675821.0864
      -408.1564
  -4713474.43249  -3667266.98946  21725676.5784   21725673.2734
      1752.6094
 04  9 13 22 39  0.0000000  0  6G 8G10G13G19G27G28
  -2340091.95049  -1820335.02347  20504986.0314   20504983.1524
       682.7974
    453120.22847    353777.91443  23407853.3134   23407853.6294
     -1013.6564
   5943008.78248   4617795.78445  22185043.5004   22185041.0354
     -3416.5474
    552865.96849    428996.79245  22499247.1174   22499242.5824
     -1079.7504
     13588.81749      8484.24747  20676996.5634   20676993.1844
      -413.5004
  -4739711.46248  -3687711.41446  21720683.5634   21720679.8874
      1745.7034
 04  9 13 22 39 15.0000000  0  6G 8G10G13G19G27G28
  -2350290.67449  -1828282.09447  20503045.3834   20503042.1604
       676.8134
    468403.64748    365687.04543  23410761.9694   23410761.9614
     -1024.2504
   5994307.28148   4657768.58945  22194805.3754   22194802.3094
     -3423.5784
    569143.69948    441680.72046  22502344.8444   22502341.1524
     -1090.8444
     19831.87449     13348.95947  20678184.5084   20678181.4844
      -419.0314
  -4765844.73149  -3708074.99946  21715710.5004   21715707.5394
      1738.5784
 04  9 13 22 39 30.0000000  0  6G 8G10G13G19G27G28
  -2360401.90249  -1836160.98147  20501121.3284   20501118.5164
       671.1724
    483842.17048    377717.05243  23413700.4614   23413699.5594
     -1034.3914
   6045709.63048   4697822.31245  22204586.7114   22204584.3594
     -3430.2504
    585585.21749    454492.27046  22505474.0634   22505470.8874
     -1101.5314
     26156.49449     18277.22347  20679387.8834   20679384.8594
      -424.3914
  -4791873.70948  -3728357.30746  21710757.4534   21710753.9184
      1731.7504
 04  9 13 22 39 45.0000000  0  6G 8G10G13G19G27G28
  -2370424.57849  -1843970.85047  20499214.2274   20499211.1484
       665.3134
    499436.72448    389868.59243  23416668.1804   23416667.4694
     -1044.7814
   6097216.88648   4737957.77445  22214387.8984   22214385.4884
     -3437.2664
    602191.79449    467432.44946  22508633.5634   22508630.3634
     -1112.4844
     32564.00649     23270.07747  20680607.2344   20680604.8164
      -429.8124
  -4817797.23349  -3748557.44746  21705824.4534   21705821.0594
      1724.7814
 04  9 13 22 40  0.0000000  0  6G 8G10G13G19G27G28
  -2380359.49049  -1851712.35047  20497323.5084   20497320.4654
       659.4064
    515186.15348    402140.82043  23419665.2734   23419664.2664
     -1055.1414
   6148827.69048   4778173.93445  22224209.7114   22224207.1994
     -3444.2034
    618962.32049    480500.36146  22511825.1724   22511821.8134
     -1123.5004
     39053.52049     28326.82647  20681842.4454   20681839.1844
      -435.4224
  -4843616.13048  -3768676.06446  21700911.2734   21700907.8834
      1717.6724
 04  9 13 22 40 15.0000000  0  6G 8G10G13G19G27G28
  -2390207.08049  -1859385.79847  20495449.5004   20495446.6054
       653.6254
    531089.52847    414533.02243  23422690.7894   23422690.3714
     -1065.3754
   6200541.06948   4818470.01945  22234049.8834   22234047.6374
     -3450.9694
    635895.83548    493695.29145  22515046.7664   22515043.7894
     -1134.3284
     45624.41949     33446.99847  20683092.7424   20683089.2934
      -440.7504
  -4869331.14449  -3788713.71946  21696017.6094   21696014.3484
      1710.8594
 04  9 13 22 40 30.0000000  0  6G 8G10G13G19G27G28
  -2399968.60949  -1866992.17747  20493592.0704   20493589.0594
       647.9224
    547145.58748    427044.19943  23425746.7424   23425746.3554
     -1075.4374
   6252355.62948   4858844.94445  22243910.0004   22243908.2034
     -3457.5944
    652991.18749    507016.32045  22518300.2194   22518295.5944
     -1145.0164
     52275.60549     38629.73447  20684358.6254   20684355.7854
      -446.0624
  -4894943.34848  -3808671.27446  21691144.2034   21691140.3754
      1704.1254
 04  9 13 22 40 45.0000000  0  6G 8G10G13G19G27G28
  -2409645.76349  -1874532.82547  20491750.2424   20491747.4534
       642.3444
    563352.25748    439672.71243  23428830.8204   23428830.4184
     -1085.5004
   6304269.17848   4899296.99945  22253788.5234   22253786.6214
     -3464.2344
    670246.37349    520461.90745  22521583.8594   22521579.2814
     -1155.7344
     59005.43349     43873.73447  20685638.8914   20685636.2664
      -451.3284
  -4920454.58949  -3828550.15946  21686289.6254   21686285.5164
      1697.3134
 04  9 13 22 41  0.0000000  0  6G 8G10G13G19G27G28
  -2419237.32849  -1882006.77547  20489925.3594   20489922.2274
       636.4384
    579710.21948    452419.12243  23431943.7974   23431942.2584
     -1095.7194
   6356282.53848   4939826.83045  22263686.6254   22263684.7934
     -3470.9844
    687662.36249    534032.79145  22524898.7194   22524893.4454
     -1166.5624
     65814.80349     49179.74047  20686935.0554   20686932.2074
      -456.7974
  -4945863.87048  -3848349.59246  21681454.1884   21681450.6374
      1690.4694
 04  9 13 22 41 15.0000000  0  6G 8G10G13G19G27G28
  -2428741.14249  -1889412.35147  20488116.7504   20488113.8484
       630.6564
    596221.50848    465285.04043  23435085.1484   23435085.0744
     -1105.8444
   6408397.68148   4980435.97645  22273603.3834   22273601.8524
     -3477.6414
    705241.31349    547730.67246  22528243.7894   22528239.0274
     -1177.3124
     72706.18649     54549.63947  20688246.3674   20688243.0554
      -462.0944
  -4971168.85348  -3868067.74046  21676638.9534   21676634.8244
      1683.5944
 04  9 13 22 41 30.0000000  0  6G 8G10G13G19G27G28
  -2438159.98749  -1896751.71547  20486324.4454   20486321.2814
       625.1884
    612883.13048    478268.11643  23438256.5474   23438255.6804
     -1115.7814
   6460611.45948   5021121.99245  22283540.5474   22283537.4414
     -3484.1564
    722980.22848    561553.17946  22531618.5234   22531615.4734
     -1187.8754
     79676.71149     59981.18847  20689572.6644   20689569.8134
      -467.2974
  -4996372.36248  -3887706.83546  21671843.1254   21671839.3834
      1676.8914
 04  9 13 22 41 45.0000000  0  6G 8G10G13G19G27G28
  -2447492.63649  -1904023.91747  20484548.5084   20484544.9924
       619.2504
    629695.84448    491368.87543  23441455.7974   23441454.8524
     -1125.9534
   6512924.73048   5061885.52345  22293494.7274   22293492.8134
     -3490.9224
    740879.97748    575501.01745  22535025.1094   22535022.0944
     -1198.7504
     86727.56849     65475.35647  20690914.4534   20690911.5704
      -472.7814
  -5021473.34248  -3907266.02546  21667066.0784   21667062.6024
      1669.9534
 04  9 13 22 42  0.0000000  0  6G 8G10G13G19G27G28
  -2456738.70648  -1911228.63947  20482789.0084   20482785.9654
       613.5944
    646659.99248    504587.66943  23444683.7584   23444683.3404
     -1135.8914
   6565337.62348   5102726.68045  22303468.7114   22303466.5554
     -3497.5314
    758941.08149    589574.57146  22538462.5164   22538459.3324
     -1209.4224
     93859.24849     71032.49247  20692271.8754   20692268.6414
      -478.0944
  -5046471.34448  -3926744.98046  21662309.2814   21662305.5864
      1663.1414
 04  9 13 22 42 15.0000000  0  6G 8G10G13G19G27G28
  -2465900.29949  -1918367.54247  20481045.4384   20481042.3324
       607.8594
    663773.01248    517922.43443  23447940.8054   23447939.4144
     -1145.9224
   6617847.60148   5143643.48345  22313461.1564   22313459.5354
     -3504.0474
    777160.93148    603771.83146  22541929.3984   22541926.1804
     -1220.0004
    101069.47849     76650.84247  20693643.7584   20693640.6294
      -483.3754
  -5071368.63048  -3946145.45746  21657571.3134   21657567.8834
      1656.3594
 04  9 13 22 42 30.0000000  0  6G 8G10G13G19G27G28
  -2474976.89249  -1925440.21547  20479318.2894   20479315.7034
       602.4534
    681035.37448    531373.58043  23451224.8834   23451224.6414
     -1155.6254
   6670454.79848   5184636.04645  22323471.7114   22323470.1604
     -3510.1564
    795540.11348    618093.24346  22545427.2734   22545422.9454
     -1230.4224
    108359.08049     82331.03247  20695030.9694   20695027.6174
      -488.4534
  -5096164.53348  -3965466.92846  21652852.6724   21652849.0664
      1649.8754
 04  9 13 22 42 45.0000000  0  6G 8G10G13G19G27G28
  -2483966.62049  -1932445.21547  20477607.9534   20477604.7464
       596.3134
    698448.37248    544942.10143  23454538.8754   23454538.1254
     -1166.0164
   6723160.69248   5225705.49645  22333501.6024   22333499.3364
     -3517.1564
    814080.05848    632539.93746  22548955.1804   22548950.7194
     -1241.5164
    115729.59649     88074.26647  20696433.5394   20696430.4104
      -494.2034
  -5120857.38649  -3984708.10846  21648154.0474   21648151.0044
      1642.6094
 04  9 13 22 43  0.0000000  0  6G 8G10G13G19G27G28
  -2492872.42149  -1939384.80147  20475912.9534   20475910.3444
       590.9844
    716008.88448    558625.60743  23457881.0394   23457879.8284
     -1175.5474
   6775961.99148   5266849.31745  22343549.1414   22343547.6564
     -3523.1564
    832777.77349    647109.57546  22552513.1254   22552508.2344
     -1251.7664
    123178.16649     93878.34047  20697850.7814   20697847.5984
      -499.1564
  -5145450.20848  -4003871.33046  21643473.8364   21643470.4884
      1636.2504
 04  9 13 22 43 15.0000000  0  6G 8G10G13G19G27G28
  -2501695.04449  -1946259.57547  20474234.0314   20474231.1484
       585.1564
    733715.70948    572423.09343  23461250.0234   23461249.6134
     -1185.5624
   6828857.41048   5308066.47645  22353615.2424   22353613.4654
     -3529.7664
    851632.11548    661801.25845  22556100.4614   22556095.8244
     -1262.3914
    130704.03849     99742.63947  20699282.9924   20699279.9534
      -504.5944
  -5169943.88349  -4022957.30046  21638813.2664   21638809.6524
      1629.3594
 04  9 13 22 43 30.0000000  0  6G 8G10G13G19G27G28
  -2510432.40449  -1953067.90047  20472571.2974   20472568.5204
       579.5784
    751570.66348    586335.99743  23464647.6334   23464647.3594
     -1195.3284
   6881848.86348   5349358.46045  22363699.9694   22363697.3554
     -3535.9844
    870645.12948    676616.57645  22559718.2664   22559714.8874
     -1272.9064
    138309.25349    105668.77347  20700729.8914   20700726.8874
      -509.7344
  -5194336.34848  -4041964.38646  21634171.2034   21634167.9024
      1622.6724
 04  9 13 22 43 45.0000000  0  6G 8G10G13G19G27G28
  -2519084.15749  -1959809.53047  20470925.4614   20470922.2544
       573.8754
    769573.91848    600364.46543  23468073.8594   23468073.3484
     -1205.2504
   6934936.58748   5390725.44645  22373801.3524   22373799.4304
     -3542.4534
    889816.98848    691555.66145  22563367.0554   22563363.7464
     -1283.5004
    145994.30649    111657.11247  20702192.7194   20702189.6524
      -515.0474
  -5218627.16649  -4060892.29346  21629549.3594   21629545.4494
      1615.9064
 04  9 13 22 44  0.0000000  0  6G 8G10G13G19G27G28
  -2527649.42249  -1966483.77247  20469295.3204   20469292.6524
       568.0944
    787725.84348    614508.79743  23471527.5084   23471526.9534
     -1214.9694
   6988120.68748   5432167.56045  22383921.9614   22383919.8634
     -3548.8284
    909148.19048    706618.91045  22567045.2894   22567041.7814
     -1294.0624
    153759.88149    117708.18647  20703670.2344   20703667.3634
      -520.3914
  -5242815.65248  -4079740.46346  21624946.1564   21624942.6094
      1609.1254
 04  9 13 22 44 15.0000000  0  6G 8G10G13G19G27G28
  -2536128.47949  -1973090.82747  20467681.6954   20467678.8284
       562.4694
    806026.01048    628768.60343  23475010.8834   23475009.8874
     -1224.8284
   7041400.74447   5473684.42144  22394060.9614   22394059.0124
     -3555.1564
    928638.37048    721806.04346  22570755.1254   22570750.9734
     -1304.5784
    161605.83849    123821.91347  20705163.0234   20705160.5554
      -525.6724
  -5266902.17248  -4098509.16846  21620362.3914   21620358.2504
      1602.4384
 04  9 13 22 44 30.0000000  0  6G 8G10G13G19G27G28
  -2544524.64549  -1979633.30447  20466083.8364   20466081.1414
       557.2194
    824470.63848    643141.00843  23478520.3134   23478520.0784
     -1234.2504
   7094772.77848   5515272.95545  22404217.6024   22404215.9104
     -3561.0164
    948283.81148    737114.14746  22574493.1724   22574489.0554
     -1314.7194
    169528.55649    129995.43847  20706671.0084   20706667.9884
      -530.5624
  -5290890.22248  -4117201.15446  21615797.7274   21615794.1174
      1596.1094
 04  9 13 22 44 45.0000000  0  6G 8G10G13G19G27G28
  -2552836.98149  -1986110.44047  20464502.2034   20464499.5164
       551.1724
    843060.40347    657626.50643  23482057.8284   23482057.1724
     -1244.2664
   7148237.51048   5556933.72045  22414391.4304   22414389.4884
     -3567.5474
    968085.26348    752543.83546  22578261.5634   22578257.3364
     -1325.4694
    177529.08549    136229.60647  20708193.4774   20708190.6094
      -536.0474
  -5314778.74548  -4135815.57547  21611252.3984   21611248.5004
      1589.0944
 04  9 13 22 45  0.0000000  0  6G 8G10G13G19G27G28
  -2561064.74449  -1992521.69547  20462936.5554   20462933.7114
       545.6414
    861795.78548    672225.48743  23485622.8754   23485622.6054
     -1253.8914
   7201795.30848   5598667.00645  22424582.6254   22424581.0234
     -3573.6254
    988043.37849    768095.57946  22582059.1954   22582055.1954
     -1335.8594
    185608.27349    142525.06247  20709731.0084   20709727.8134
      -541.2814
  -5338567.17448  -4154352.00146  21606725.1484   21606721.3714
      1582.5004
 04  9 13 22 45 15.0000000  0  6G 8G10G13G19G27G28
  -2569207.43449  -1998866.65247  20461387.1094   20461384.5004
       540.1884
    880676.85248    686937.93644  23489216.1884   23489215.7384
     -1263.4224
   7255446.31948   5640472.93045  22434792.9224   22434790.5234
     -3579.6724
   1008158.44748    783769.63545  22585887.3134   22585883.0664
     -1346.0624
    193766.57349    148882.16747  20711283.5004   20711280.6294
      -546.3594
  -5362255.02348  -4172810.05647  21602217.3594   21602213.8014
      1575.9844
 04  9 13 22 45 30.0000000  0  6G 8G10G13G19G27G28
  -2577266.12849  -2005146.15647  20459853.6254   20459850.5354
       534.2504
    899702.43348    701763.02843  23492836.7114   23492836.5704
     -1273.3284
   7309189.31348   5682350.53145  22445019.5314   22445017.8094
     -3586.1254
   1028429.26448    799565.05045  22589744.0864   22589740.0474
     -1356.7344
    202003.04749    155300.18847  20712850.7584   20712847.4884
      -551.8594
  -5385843.26548  -4191190.49546  21597729.0314   21597724.6644
      1569.0634
 04  9 13 22 45 45.0000000  0  6G 8G10G13G19G27G28
  -2585240.34649  -2011359.83447  20458335.7274   20458332.7464
       528.7974
    918872.72447    716700.86443  23496484.6724   23496483.9064
     -1282.7504
   7363024.30848   5724299.81845  22455264.0004   22455262.2774
     -3592.0004
   1048856.17748    815482.11145  22593630.7584   22593626.6094
     -1366.8914
    210318.18349    161779.49147  20714433.0634   20714429.9614
      -556.9064
  -5409331.55248  -4209493.05146  21593259.2584   21593255.7734
      1562.5634
 04  9 13 22 46  0.0000000  0  6G 8G10G13G19G27G28
  -2593130.34649  -2017507.89847  20456834.5704   20456831.6254
       523.0474
    938187.03647    731750.94044  23500159.5554   23500159.6094
     -1292.5164
   7416950.69148   5766320.30445  22465526.1414   22465524.4104
     -3598.3124
   1069438.54248    831520.28145  22597547.7894   22597543.6024
     -1377.4374
    218711.60249    168319.80547  20716030.2034   20716027.1914
      -562.3124
  -5432720.21248  -4227717.96846  21588808.4694   21588804.7894
      1555.7344
 04  9 13 22 46 15.0000000  0  6G 8G10G13G19G27G28
  -2600936.51649  -2023590.63347  20455349.2814   20455346.2734
       517.7034
    957644.54747    746912.59443  23503862.3674   23503862.0594
     -1301.8444
   7470967.58848   5808411.33545  22475805.4144   22475803.2234
     -3604.0784
   1090175.61548    847679.01245  22601494.0944   22601489.1914
     -1387.6094
    227182.82049    174920.73747  20717642.6644   20717639.8364
      -567.2974
  -5456009.84648  -4245865.73646  21584376.3674   21584372.7034
      1549.4064
 04  9 13 22 46 30.0000000  0  6G 8G10G13G19G27G28
  -2608657.84249  -2029607.25447  20453879.7664   20453876.7304
       511.7664
    977246.10748    762186.47344  23507592.3054   23507592.2664
     -1311.7034
   7525075.76848   5850573.49345  22486102.0474   22486100.3714
     -3610.4534
   1111068.29948    863959.01046  22605470.0554   22605466.3874
     -1398.1414
    235732.93149    181583.14347  20719269.2664   20719266.2934
      -572.7504
  -5479199.42648  -4263935.51947  21579963.4774   21579960.4844
      1542.4844
 04  9 13 22 46 45.0000000  0  6G 8G10G13G19G27G28
  -2616297.14449  -2035559.96247  20452426.2664   20452423.3634
       506.5944
    996988.38147    777570.01943  23511349.4384   23511349.5784
     -1320.7814
   7579271.85848   5892804.15545  22496414.7814   22496413.0864
     -3615.9224
   1132113.53848    880357.87246  22609475.6804   22609471.4104
     -1408.0004
    244359.02149    188304.76247  20720910.7584   20720907.8914
      -577.5784
  -5502291.93048  -4281929.66846  21575568.7114   21575565.6334
      1536.3594
 04  9 13 22 47  0.0000000  0  7G29G 8G10G13G19G27G28
   -108096.38557    -76093.79552  24283583.5864   24283584.4144
      2900.6884
  -2623854.89749  -2041449.12547  20450988.0234   20450984.5594
       501.0944
   1016870.64647    793062.67143  23515132.8834   23515132.8634
     -1330.1724
   7633555.20148   5935102.79645  22506745.0784   22506742.8914
     -3621.7664
   1153310.57948    896875.02046  22613508.3524   22613504.6764
     -1418.2664
    253060.75149    195085.31847  20722566.3754   20722563.6254
      -582.6254
  -5525287.71548  -4299848.46046  21571193.5704   21571189.8324
      1529.8134
 04  9 13 22 47 15.0000000  0  7G29G 8G10G13G19G27G28
   -151577.70647   -109975.35642  24275309.6804   24275309.8204
      2897.0004
  -2631329.27249  -2047273.31847  20449565.7814   20449562.8364
       495.5004
   1036894.52847    808665.64944  23518943.4614   23518943.2814
     -1339.6564
   7687927.23648   5977470.56445  22517091.9924   22517089.7664
     -3627.7194
   1174661.20747    913511.83945  22617570.8524   22617567.4804
     -1428.5474
    261839.93449    201926.22447  20724237.2504   20724234.4574
      -587.8914
  -5548185.03248  -4317690.51546  21566836.0474   21566832.5664
      1523.2344
 04  9 13 22 47 30.0000000  0  7G29G 8G10G13G19G27G28
   -195004.52447   -143814.43642  24267045.2034   24267045.4384
      2893.3754
  -2638719.83949  -2053032.20647  20448159.0474   20448155.8404
       490.0474
   1057060.08047    824379.01844  23522781.1954   23522780.6374
     -1348.9064
   7742387.99748   6019907.46145  22527454.6954   22527453.3364
     -3633.4844
   1196165.53847    930268.42345  22621663.1644   22621659.6294
     -1438.6414
    270697.02349    208827.84147  20725922.7894   20725919.8984
      -592.9844
  -5570983.61548  -4335455.63446  21562497.6094   21562494.1374
      1516.7194
 04  9 13 22 47 45.0000000  0  7G29G 8G10G13G19G27G28
   -238377.99347   -177611.90942  24258792.0084   24258791.6604
      2889.7034
  -2646028.20249  -2058727.03547  20446768.6564   20446765.3524
       484.4534
   1077365.44247    840201.33343  23526645.0234   23526644.3364
     -1358.4224
   7796935.55948   6062411.97345  22537835.5164   22537833.4304
     -3639.4694
   1217821.83547    947143.43845  22625784.3984   22625780.7194
     -1448.7814
    279630.40749    215788.89747  20727622.8284   20727620.0984
      -598.2194
  -5593685.11048  -4353145.09846  21558177.7894   21558174.1604
      1510.1254
 04  9 13 22 48  0.0000000  0  7G29G 8G10G13G19G27G28
   -281695.63247   -211365.91642  24250548.1254   24250548.0314
      2886.0314
  -2653251.56649  -2064355.64247  20445393.9694   20445391.3444
       478.8284
   1097812.57547    856134.12743  23530535.5474   23530535.1524
     -1367.7344
   7851571.98448   6104985.75545  22548232.3054   22548230.8754
     -3645.2814
   1239632.35448    964138.61045  22629935.5314   22629930.9064
     -1458.9844
    288642.42649    222811.23347  20729337.8204   20729334.9734
      -603.3124
  -5616287.08748  -4370757.03346  21553876.5234   21553873.1804
      1503.5634
 04  9 13 22 48 15.0000000  0  7G29G 8G10G13G19G27G28
   -324959.36046   -245077.83542  24242315.0234   24242315.4774
      2882.6254
  -2660392.36749  -2069919.90647  20444034.9304   20444032.1134
       473.4844
   1118399.00248    872175.48343  23534453.1174   23534453.3554
     -1376.8444
   7906294.70348   6147626.77444  22558645.7114   22558644.4414
     -3650.8284
   1261594.52748    981251.97045  22634114.9064   22634110.1454
     -1468.9374
    297731.07349    229893.27747  20731067.4694   20731064.1484
      -608.1874
  -5638791.73048  -4388293.10846  21549594.5554   21549590.9534
      1497.2814
 04  9 13 22 48 30.0000000  0  7G29G 8G10G13G19G27G28
   -368167.65647   -278746.60442  24234092.3524   24234093.7894
      2878.8444
  -2667449.25049  -2075418.77647  20442692.2504   20442689.2544
       467.9384
   1139125.90048    888326.26043  23538397.6954   23538397.3404
     -1386.2504
   7961104.67148   6190335.77045  22569075.3834   22569074.5664
     -3656.6874
   1283709.55148    998484.43145  22638323.2034   22638318.1254
     -1479.2974
    306897.59149    237036.00547  20732811.8284   20732808.4534
      -613.5474
  -5661197.74948  -4405752.34046  21545330.3594   21545326.7544
      1490.5634
 04  9 13 22 48 45.0000000  0  7G29G 8G10G13G19G27G28
   -411322.58347   -312373.74743  24225881.5314   24225882.3834
      2875.3444
  -2674424.58349  -2080854.10747  20441365.1484   20441362.1564
       462.3914
   1159990.72447    904584.50843  23542368.0004   23542368.1134
     -1395.5164
   8015999.19948   6233110.66844  22579521.9384   22579520.3244
     -3662.3124
   1305974.82548   1015833.97245  22642560.1094   22642555.4654
     -1489.2194
    316139.76849    244237.69147  20734570.2664   20734566.9384
      -618.5784
  -5683507.54649  -4423136.58746  21541084.9534   21541081.7384
      1484.2344
 04  9 13 22 49  0.0000000  0  7G29G 8G10G13G19G27G28
   -454423.76048   -345959.01343  24217679.4064   24217680.6724
      2871.4694
  -2681317.92349  -2086225.54947  20440053.1094   20440050.2734
       456.6564
   1180993.19147    920950.04543  23546364.1644   23546364.4734
     -1404.8594
   8070978.31848   6275951.47445  22589984.1094   22589982.9264
     -3668.2034
   1328390.39447   1033300.61745  22646824.6644   22646821.0634
     -1499.4534
    325457.75949    251498.43847  20736343.2584   20736340.2074
      -623.8594
  -5705721.09048  -4440445.84046  21536857.6564   21536854.3164
      1477.6094
 04  9 13 22 49 15.0000000  0  7G29G 8G10G13G19G27G28
   -497470.35248   -379501.77643  24209488.3444   24209488.9884
      2867.9064
  -2688128.99649  -2091532.87747  20438757.2424   20438754.3054
       451.2814
   1202133.46348    937422.95343  23550387.6094   23550387.3714
     -1414.0624
   8126042.04548   6318858.20145  22600462.6644   22600460.7854
     -3673.8444
   1350956.50748   1050884.56945  22651119.2344   22651115.9344
     -1509.5314
    334852.10249    258818.70147  20738131.2664   20738128.2384
      -628.9224
  -5727837.86048  -4457679.66847  21532649.0704   21532645.8164
      1471.0944
 04  9 13 22 49 30.0000000  0  7G29G 8G10G13G19G27G28
   -540462.25147   -413001.91143  24201307.2114   24201307.5744
      2864.3284
  -2694857.63749  -2096775.97847  20437476.6954   20437473.8054
       445.7194
   1223411.30548    954003.03544  23554436.9774   23554436.6094
     -1423.2344
   8181190.20948   6361830.73345  22610956.3444   22610955.0234
     -3679.4374
   1373673.07448   1068585.75045  22655442.2114   22655438.8364
     -1519.4844
    344322.77949    266198.42547  20739933.3524   20739930.5394
      -633.9694
  -5749857.93049  -4474838.16146  21528459.1024   21528454.9264
      1464.7344
 04  9 13 22 49 45.0000000  0  7G29G 8G10G13G19G27G28
   -583399.96147   -446459.86742  24193136.3674   24193136.5984
      2860.5944
  -2701504.54149  -2101955.39847  20436211.8364   20436208.8054
       440.2814
   1244825.58748    970689.44943  23558511.7894   23558511.5944
     -1432.2814
   8236421.48748   6404868.02144  22621467.2274   22621465.6724
     -3685.0314
   1396539.04848   1086403.36245  22659793.7734   22659789.8204
     -1529.4374
    353869.09349    273637.09847  20741750.3444   20741747.2894
      -639.0314
  -5771782.07249  -4491921.90647  21524287.0944   21524283.2584
      1458.3444
 04  9 13 22 50  0.0000000  0  7G29G 8G10G13G19G27G28
   -626280.75346   -479873.42242  24184975.6094   24184976.2584
      2856.9064
  -2708067.11349  -2107069.08647  20434963.0634   20434959.9654
       434.8284
   1266378.60848    987483.99543  23562613.2504   23562612.9694
     -1441.3444
   8291738.14948   6447971.85744  22631993.9614   22631992.0904
     -3690.4844
   1419556.92748   1104339.33045  22664174.2034   22664169.7584
     -1539.4844
    363493.65649    281136.75747  20743581.5634   20743578.4384
      -644.0944
  -5793607.69449  -4508928.87747  21520133.6804   21520130.3284
      1451.9064
 04  9 13 22 50 15.0000000  0  7G29G 8G10G13G19G27G28
   -669107.62046   -513244.92242  24176824.9454   24176826.3404
      2853.5634
  -2714548.49549  -2112119.52247  20433729.6804   20433726.4414
       429.5004
   1288066.85047   1004383.87743  23566740.6414   23566740.1914
     -1450.2344
   8347136.64648   6491139.43244  22642535.1804   22642534.0744
     -3695.7504
   1442723.15748   1122390.92945  22668582.1954   22668577.9774
     -1549.2504
    373193.25549    288694.85647  20745427.4144   20745424.6294
      -649.0164
  -5815338.08348  -4525861.63746  21515998.7424   21515994.6914
      1445.6254
 04  9 13 22 50 30.0000000  0  7G29G 8G10G13G19G27G28
   -711879.45247   -546573.59242  24168685.9384   24168687.2344
      2849.7194
  -2720947.93949  -2117106.11147  20432511.9844   20432508.9024
       423.9224
   1309890.79047   1021389.52243  23570893.2194   23570893.3204
     -1459.4534
   8402617.48648   6534371.19944  22653093.1254   22653091.5944
     -3701.4374
   1466038.30048   1140558.55445  22673018.5234   22673014.5164
     -1559.2814
    382968.64149    296312.03247  20747287.5234   20747284.4614
      -654.1724
  -5836972.55349  -4542719.66147  21511881.3444   21511878.6024
      1439.1724
 04  9 13 22 50 45.0000000  0  7G29G 8G10G13G19G27G28
   -754594.78048   -579858.21843  24160559.1254   24160558.7624
      2845.8134
  -2727263.98449  -2122027.71347  20431309.9454   20431306.7154
       418.2194
   1331851.35648   1038501.60943  23575072.9144   23575072.0634
     -1468.6094
   8458181.46348   6577667.73444  22663666.9224   22663665.9104
     -3707.0004
   1489503.33548   1158842.96245  22677483.9454   22677479.6724
     -1569.3284
    392821.17449    303989.30747  20749162.4924   20749159.5434
      -659.4374
  -5858509.96349  -4559502.05247  21507783.2114   21507779.7544
      1432.5634
 04  9 13 22 51  0.0000000  0  7G29G 8G10G13G19G27G28
   -797254.12848   -613099.23043  24152441.3674   24152441.5124
      2842.0164
  -2733497.63749  -2126885.10247  20430123.7344   20430120.6884
       412.7194
   1353947.49448   1055719.31843  23579277.4614   23579276.9144
     -1477.7344
   8513827.71048   6621028.38444  22674255.8284   22674254.1884
     -3712.6414
   1513117.39147   1177243.49245  22681976.9454   22681974.3014
     -1579.4224
    402750.07749    311726.10547  20751051.7584   20751048.5744
      -664.6414
  -5879950.97849  -4576209.31646  21503703.1484   21503699.7934
      1426.1094
 04  9 13 22 51 15.0000000  0  7G29G 8G10G13G19G27G28
   -839860.26248   -646298.77643  24144333.4224   24144333.6644
      2838.6564
  -2739651.71449  -2131680.49747  20428952.6254   20428949.8094
       407.5944
   1376175.91947   1073040.13643  23583506.5234   23583506.6764
     -1486.3754
   8569552.76948   6664450.44344  22684860.5164   22684857.8554
     -3717.6414
   1536877.29247   1195757.66145  22686498.7734   22686495.2274
     -1589.0474
    412752.52849    319520.21747  20752955.4304   20752951.9804
      -669.3594
  -5901298.55349  -4592843.79647  21499640.7194   21499636.8204
      1420.0474
 04  9 13 22 51 30.0000000  0  7G29G 8G10G13G19G27G28
   -882412.58148   -679456.40043  24136235.9844   24136235.9654
      2834.7344
  -2745726.00949  -2136413.72147  20427796.7974   20427793.9384
       402.0164
   1398536.58448   1090464.00243  23587761.9924   23587761.9494
     -1495.3444
   8625356.53448   6707933.83244  22695478.8674   22695478.1024
     -3723.1724
   1560783.03347   1214385.46945  22691048.1484   22691045.1374
     -1598.8284
    422828.72649    327371.77847  20754872.8284   20754870.1254
      -674.4534
  -5922552.62549  -4609405.40647  21495596.3364   21495592.9224
      1413.5164
 04  9 13 22 51 45.0000000  0  7G29G 8G10G13G19G27G28
   -924908.14647   -712569.75942  24128149.0234   24128148.7544
      2831.2194
  -2751717.51649  -2141082.43347  20426656.6334   20426653.3984
       396.7664
   1421031.98447   1107992.83643  23592042.6804   23592042.4144
     -1504.0944
   8681241.50448   6751480.49944  22706114.0164   22706112.3794
     -3728.2344
   1584837.35948   1233129.07345  22695625.4454   22695622.0164
     -1608.5004
    432981.59549    335283.08447  20756804.9694   20756801.9654
      -679.3594
  -5943710.25549  -4625891.85847  21491569.9924   21491566.5554
      1407.4534
 04  9 13 22 52  0.0000000  0  7G29G 8G10G13G19G27G28
   -967346.75847   -745638.78542  24120072.8524   24120072.7544
      2827.2034
  -2757626.13249  -2145686.55547  20425532.1094   20425528.9614
       391.0314
   1443661.83547   1125626.45943  23596349.6564   23596349.4224
     -1513.2194
   8737207.37948   6795090.19544  22716763.7424   22716762.6954
     -3733.8914
   1609039.97748   1251988.22245  22700231.4144   22700227.1764
     -1618.6414
    443211.15948    343254.15547  20758751.5234   20758748.6524
      -684.6094
  -5964771.69449  -4642303.37147  21487562.2424   21487558.3714
      1400.7974
 04  9 13 22 52 15.0000000  0  7G29G 8G10G13G19G27G28
  -1009731.31847   -778665.64642  24112007.4774   24112007.0434
      2823.9694
  -2763454.95649  -2150228.49547  20424423.2034   20424420.4224
       386.0314
   1466422.62647   1143362.10443  23600680.5944   23600680.4494
     -1521.6414
   8793250.67848   6838760.23544  22727428.8364   22727426.8794
     -3738.6724
   1633387.39047   1270960.21645  22704864.1414   22704860.2704
     -1627.8444
    453514.24748    351282.52247  20760711.9064   20760708.7154
      -689.1874
  -5985740.03649  -4658642.33147  21483572.3134   21483568.5554
      1394.8914
 04  9 13 22 52 30.0000000  0  7G29G 8G10G13G19G27G28
  -1052063.15647   -811651.46342  24103951.7734   24103952.0044
      2820.0474
  -2769205.85549  -2154709.71347  20423328.6724   20423325.5944
       380.4844
   1489312.51847   1161198.33043  23605036.7734   23605036.2894
     -1530.5474
   8849369.37948   6882489.03444  22738107.4304   22738106.2894
     -3744.0474
   1657877.83147   1290043.64245  22709524.3284   22709521.1054
     -1637.7974
    463889.21249    359366.90047  20762686.5784   20762683.4224
      -694.3754
  -6006616.93049  -4674910.02847  21479599.6094   21479595.5634
      1388.4844
 04  9 13 22 52 45.0000000  0  7G29G 8G10G13G19G27G28
  -1094335.75048   -844591.12943  24095907.8134   24095908.1764
      2816.3914
  -2774872.31849  -2159125.15047  20422250.0704   20422247.4654
       375.0784
   1512337.26947   1179139.68142  23609417.5164   23609417.5434
     -1539.2664
   8905569.31548   6926281.12144  22748802.3134   22748800.6054
     -3749.1874
   1682517.31147   1309243.21445  22714213.6644   22714209.8984
     -1647.3914
    474342.36249    367512.19347  20764675.5314   20764672.4454
      -699.3594
  -6027396.17749  -4691101.64647  21475645.1254   21475642.0044
      1382.1724
 04  9 13 22 53  0.0000000  0  7G29G 8G10G13G19G27G28
  -1136550.44248   -877485.64143  24087874.7734   24087874.6604
      2812.4064
  -2780455.68349  -2163475.83147  20421188.1174   20421185.2464
       369.4224
   1535495.25447   1197184.80942  23613824.4384   23613824.8244
     -1548.2344
   8961848.75648   6970135.16344  22759512.0474   22759510.2974
     -3754.6094
   1707304.35747   1328557.74045  22718930.8914   22718926.9734
     -1657.3594
    484872.28849    375717.31447  20766679.7424   20766676.3284
      -704.5164
  -6048079.29349  -4707218.35547  21471709.6484   21471705.3014
      1375.6414
 04  9 13 22 53 15.0000000  0  7G29G 8G10G13G19G27G28
  -1178710.41648   -910337.56943  24079851.2344   24079852.2384
      2808.7504
  -2785959.36949  -2167764.42147  20420140.7584   20420137.7974
       364.1884
   1558782.74447   1215330.83943  23618256.4144   23618256.2814
     -1557.0004
   9018203.97548   7014048.24944  22770236.3674   22770234.6844
     -3759.6414
   1732235.06947   1347984.25645  22723674.6724   22723671.4494
     -1666.9534
    495475.58149    383979.60947  20768697.2814   20768694.4614
      -709.4534
  -6068669.77549  -4723262.87447  21467791.2034   21467787.8364
      1369.5004
 04  9 13 22 53 30.0000000  0  7G29G 8G10G13G19G27G28
  -1220813.67247   -943145.20043  24071839.1254   24071840.3014
      2804.8444
  -2791381.81449  -2171989.71347  20419108.7114   20419105.2584
       358.5634
   1582200.95547   1233578.79042  23622712.5554   23622713.1954
     -1565.6874
   9074636.25248   7058021.39244  22780975.3054   22780973.5234
     -3764.9534
   1757310.97848   1367523.89345  22728446.4144   22728443.1054
     -1676.7664
    506154.05848    392300.48247  20770728.7504   20770725.9144
      -714.5944
  -6089165.96448  -4739233.92447  21463890.8054   21463886.9414
      1363.0314
 04  9 13 22 53 45.0000000  0  7G29G 8G10G13G19G27G28
  -1262861.46747   -975909.64943  24063837.9064   24063838.3444
      2801.2344
  -2796724.35249  -2176152.72647  20418091.9614   20418088.9804
       353.4224
   1605748.28647   1251927.33142  23627193.3834   23627193.5314
     -1574.2344
   9131144.00748   7102053.34344  22791727.8284   22791726.6884
     -3769.7344
   1782530.52647   1387175.45645  22733245.4694   22733242.1804
     -1686.1724
    516906.28249    400678.82247  20772775.3134   20772772.0084
      -719.4224
  -6109569.30149  -4755132.62647  21460008.1954   21460004.6804
      1357.0784
 04  9 13 22 54  0.0000000  0  7G29G 8G10G13G19G27G28
  -1304850.44247  -1008628.24942  24055847.8984   24055847.5354
      2797.3134
  -2801983.89849  -2180251.07747  20417091.6804   20417088.2814
       347.9064
   1629427.44847   1270378.59442  23631699.6334   23631699.7664
     -1582.9844
   9187729.77948   7146146.07844  22802495.1954   22802494.4774
     -3774.9064
   1807896.49648   1406941.11645  22738072.7664   22738068.7894
     -1695.9844
    527735.36348    409117.04347  20774835.9534   20774833.0904
      -724.4224
  -6129876.77049  -4770956.61247  21456143.9144   21456140.2344
      1350.7034
 04  9 13 22 54 15.0000000  0  7G29G 8G10G13G19G27G28
  -1346786.03747  -1041305.30943  24047868.5234   24047867.3674
      2793.7504
  -2807165.88449  -2184288.99347  20416105.4384   20416102.0594
       342.7034
   1653232.36246   1288927.84342  23636229.6564   23636229.6334
     -1591.3444
   9244387.30448   7190294.72644  22813277.2974   22813276.0314
     -3779.6724
   1833403.00347   1426816.27645  22742926.4064   22742922.5274
     -1705.3124
    538635.46348    417610.61847  20776910.4064   20776907.5704
      -729.2344
  -6150094.19649  -4786710.44946  21452296.4144   21452292.8284
      1344.6724
 04  9 13 22 54 30.0000000  0  7G29G 8G10G13G19G27G28
  -1388663.20448  -1073936.82043  24039899.1094   24039897.9224
      2789.9534
  -2812265.45949  -2188262.68647  20415134.5704   20415131.8714
       337.3444
   1677167.72346   1307578.71642  23640784.2734   23640784.0314
     -1599.9064
   9301121.54048   7234503.15444  22824073.4694   22824072.1254
     -3784.8284
   1859054.67647   1446804.57145  22747807.9304   22747803.8554
     -1714.8914
    549611.83149    426163.61247  20778998.8364   20778995.8754
      -734.2034
  -6170216.57749  -4802390.21647  21448467.2734   21448464.1604
      1338.4064
 04  9 13 22 54 45.0000000  0  7G29G 8G10G13G19G27G28
  -1430483.70448  -1106524.21142  24031941.4844   24031940.1374
      2786.0784
  -2817284.73949  -2192173.80948  20414179.5704   20414176.9534
       331.8914
   1701231.00547   1326329.24942  23645363.8674   23645363.5004
     -1608.5314
   9357929.81148   7278769.26844  22834883.7504   22834882.4064
     -3789.7814
   1884849.04248   1466904.05045  22752716.5394   22752712.7424
     -1724.4534
    560662.10548    434774.20447  20781101.8284   20781099.3874
      -739.1724
  -6190246.26548  -4817997.75846  21444656.2114   21444652.2304
      1332.1414
 04  9 13 22 55  0.0000000  0  7G29G 8G10G13G19G27G28
  -1472246.72647  -1139066.77142  24023992.9304   24023993.5314
      2782.0634
  -2822223.22649  -2196021.98847  20413239.9924   20413236.5234
       326.3594
   1725422.56746   1345179.77242  23649967.4384   23649967.0704
     -1617.2344
   9414812.37247   7323093.25944  22845707.4224   22845707.2624
     -3794.8594
   1910786.75047   1487115.21945  22757651.7814   22757648.9064
     -1734.2664
    571787.00448    443442.94447  20783218.7584   20783215.9414
      -744.3594
  -6210182.55648  -4833532.52446  21440862.0314   21440858.2194
      1325.7504
 04  9 13 22 55 15.0000000  0  7G29G 8G10G13G19G27G28
  -1513950.96447  -1171563.52042  24016056.9224   24016057.2894
      2778.4064
  -2827079.57649  -2199806.15447  20412315.8134   20412312.7704
       321.0784
   1749743.25046   1364130.92742  23654595.0944   23654595.2424
     -1625.5164
   9471770.25647   7367475.95744  22856546.2424   22856546.1914
     -3799.6414
   1936868.65247   1507438.74545  22762615.2194   22762612.1644
     -1743.5474
    582987.89949    452170.89647  20785350.2034   20785347.2074
      -749.2034
  -6230024.36249  -4848993.66247  21437086.0704   21437082.5234
      1319.7344
 04  9 13 22 55 30.0000000  0  7G29G 8G10G13G19G27G28
  -1555594.67147  -1204013.09243  24008132.0784   24008133.1134
      2774.2344
  -2831852.37949  -2203525.24047  20411407.6954   20411404.5124
       315.3444
   1774193.98746   1383183.40942  23659248.1804   23659247.8204
     -1634.3284
   9528804.42048   7411918.06844  22867400.9924   22867399.5004
     -3804.7814
   1963095.78547   1527875.43345  22767605.6724   22767602.8634
     -1753.2194
    594265.96348    460958.96647  20787496.4694   20787493.5554
      -754.4534
  -6249770.36748  -4864380.15747  21433328.2974   21433325.1024
      1313.2664
 04  9 13 22 55 45.0000000  0  7G29G 8G10G13G19G27G28
  -1597175.92747  -1236414.02142  24000220.1174   24000219.3484
      2770.2664
  -2836539.73849  -2207177.72347  20410515.6804   20410512.2034
       309.7974
   1798776.19546   1402338.34842  23663926.0634   23663925.8014
     -1643.0164
   9585916.08948   7456420.61244  22878268.5004   22878267.1484
     -3809.8124
   1989469.69447   1548426.50045  22772625.0634   22772621.6484
     -1762.9534
    605622.98148    469808.58247  20789657.3054   20789654.6804
      -759.5314
  -6269418.89949  -4879690.69547  21429589.4774   21429586.0474
      1306.8284
 04  9 13 22 56  0.0000000  0  7G29G 8G10G13G19G27G28
  -1638700.60147  -1268770.84342  23992317.7274   23992317.7074
      2766.2814
  -2841147.75249  -2210768.37047  20409638.7194   20409635.7734
       304.5004
   1823483.50946   1421590.75143  23668628.0634   23668627.6524
     -1651.3754
   9643098.98548   7500978.64544  22889149.7194   22889149.6374
     -3814.6094
   2015984.06448   1569087.02145  22777670.5704   22777667.1884
     -1772.3914
    617052.93249    478715.03047  20791832.6484   20791829.4804
      -764.5164
  -6288976.17749  -4894930.12247  21425868.0864   21425863.8484
      1300.6254
 04  9 13 22 56 15.0000000  0  7G29G 8G10G13G19G27G28
  -1680165.35747  -1301080.98842  23984427.5554   23984426.5704
      2762.5634
  -2845673.09249  -2214294.61147  20408777.3284   20408774.2344
       299.1414
   1848318.76346   1440942.82043  23673353.2344   23673353.0004
     -1659.7194
   9700355.89647   7545594.35144  22900045.1724   22900045.0554
     -3819.3284
   2042641.87047   1589859.29445  22782743.1484   22782739.7974
     -1781.7034
    628559.17649    487680.90647  20794022.1564   20794019.3954
      -769.3754
  -6308438.93348  -4910095.89647  21422164.5234   21422160.9344
      1294.6254
 04  9 13 22 56 30.0000000  0  7G29G 8G10G13G19G27G28
  -1721571.57147  -1333345.52742  23976547.9534   23976547.5004
      2758.4694
  -2850117.74649  -2217757.98247  20407931.1884   20407928.4734
       293.5944
   1873279.86846   1460392.99243  23678103.9224   23678103.0234
     -1668.3124
   9757684.75247   7590266.11244  22910955.1644   22910954.3554
     -3824.3284
   2069441.04847   1610741.75645  22787843.8984   22787839.5594
     -1791.3444
    640139.85348    496704.78947  20796225.8444   20796223.2424
      -774.5624
  -6327809.11548  -4925189.53747  21418478.3284   21418474.7384
      1288.2344
 04  9 13 22 56 45.0000000  0  7G29G 8G10G13G19G27G28
  -1762920.69347  -1365565.56143  23968678.9064   23968679.1214
      2754.6094
  -2854483.15449  -2221159.60147  20407100.9064   20407098.1254
       288.2814
   1898364.76046   1479939.64243  23682877.3204   23682877.2814
     -1676.5784
   9815083.49147   7634992.34144  22921877.5474   22921876.9344
     -3828.9844
   2096379.75248   1631732.92545  22792969.3204   22792966.1374
     -1800.7034
    651793.34648    505785.41647  20798443.4534   20798440.7274
      -779.4374
  -6347088.30748  -4940212.28347  21414809.4384   21414806.4064
      1282.1094
 04  9 13 22 57  0.0000000  0  7G29G 8G10G13G19G27G28
  -1804210.52847  -1397739.37443  23960822.7114   23960822.2344
      2750.6414
  -2858767.33149  -2224497.92447  20406285.9614   20406282.8134
       282.9694
   1923575.35146   1499584.19043  23687674.8914   23687674.2234
     -1684.9224
   9872553.94448   7679774.42844  22932814.0944   22932812.7384
     -3833.7194
   2123459.85347   1652834.27345  22798122.5784   22798119.4104
     -1809.9534
    663521.77349    514924.44347  20800675.2194   20800672.8164
      -784.3754
  -6366274.52248  -4955162.57347  21411158.6334   21411155.2274
      1275.9384
 04  9 13 22 57 15.0000000  0  7G29G 8G10G13G19G27G28
  -1845442.15148  -1429867.86443  23952976.4384   23952975.8364
      2746.8284
  -2862971.46349  -2227773.87247  20405485.5084   20405482.7194
       277.6094
   1948909.77446   1519325.25843  23692495.6804   23692495.6764
     -1693.0314
   9930094.05047   7724610.80244  22943763.3594   22943762.7814
     -3838.3124
   2150679.61547   1674044.45345  22803302.3444   22803298.9454
     -1819.2664
    675323.73348    524120.75447  20802920.9534   20802918.0474
      -789.2664
  -6385369.36548  -4970041.66047  21407524.8674   21407521.7234
      1269.9224
 04  9 13 22 57 30.0000000  0  7G29G 8G10G13G19G27G28
  -1886614.06948  -1461949.86343  23945141.9774   23945141.1134
      2742.6254
  -2867094.37149  -2230986.53547  20404701.4064   20404698.1484
       272.0314
   1974368.87946   1539163.48643  23697340.2424   23697340.2894
     -1701.5314
   9987704.85048   7769502.26544  22954726.8914   22954725.5274
     -3843.2034
   2178040.07647   1695364.28145  22808508.8204   22808505.4654
     -1828.7814
    687200.39748    533375.28847  20805181.2584   20805178.6564
      -794.3444
  -6404371.47748  -4984848.49147  21403908.8834   21403905.5004
      1263.5474
 04  9 13 22 57 45.0000000  0  7G29G 8G10G13G19G27G28
  -1927724.71948  -1493984.06343  23937318.8524   23937318.3554
      2738.6254
  -2871134.61149  -2234134.77848  20403932.4844   20403929.0164
       266.5634
   1999953.82246   1559099.72944  23702208.8984   23702208.3484
     -1709.9224
  10045387.53547   7814449.72244  22965702.9774   22965701.5514
     -3847.9694
   2205542.39747   1716794.62945  22813741.9534   22813738.8134
     -1838.3124
    699153.48648    542689.36047  20807455.8754   20807452.8054
      -799.4694
  -6423279.53448  -4999582.04247  21400310.7344   21400307.1994
      1257.4384
 04  9 13 22 58  0.0000000  0  7G29G 8G10G13G19G27G28
  -1968773.78248  -1525970.29643  23929506.7274   23929506.5864
      2734.7664
  -2875092.26249  -2237218.68747  20403179.1094   20403176.0354
       261.2974
   2025664.26446   1579133.79943  23707101.0314   23707101.6884
     -1718.0474
  10103141.55747   7859452.79344  22976693.7424   22976692.6414
     -3852.4224
   2233186.28148   1738335.27845  22819002.8524   22818998.7424
     -1847.5004
    711182.77048    552062.81547  20809745.0004   20809742.2894
      -804.2664
  -6442093.71849  -5014242.43847  21396730.7504   21396727.2734
      1251.2814
 04  9 13 22 58 15.0000000  0  7G29G 8G10G13G19G27G28
  -2009764.11447  -1557910.71742  23921705.3524   23921706.3914
      2730.7974
  -2878970.08649  -2240240.35748  20402441.1174   20402438.4884
       255.8284
   2051496.81046   1599263.03543  23712017.1094   23712017.2974
     -1726.2194
  10160963.74348   7904508.96144  22987697.6414   22987696.4844
     -3857.0944
   2260968.54648   1759983.77845  22824289.3914   22824285.7894
     -1856.8124
    723285.42048    561493.43747  20812048.5314   20812045.5004
      -809.2194
  -6460817.07248  -5028832.05547  21393167.7034   21393164.5314
      1245.2034
 04  9 13 22 58 30.0000000  0  7G29G 8G10G13G19G27G28
  -2050694.52447  -1589804.48442  23913916.4224   23913916.4264
      2726.8284
  -2882767.05949  -2243199.04847  20401718.4844   20401715.7584
       250.5164
   2077452.11047   1619487.86643  23716956.6724   23716956.6724
     -1734.4224
  10218854.64048   7949618.68444  22998713.0554   22998711.7814
     -3861.5624
   2288889.86448   1781740.60745  22829603.8754   22829599.4144
     -1865.9224
    735462.29448    570981.89847  20814365.9304   20814362.9224
      -814.1874
  -6479448.67049  -5043350.18047  21389622.2584   21389618.4774
      1239.1094
 04  9 13 22 58 45.0000000  0  7G29G 8G10G13G19G27G28
  -2091562.46047  -1621649.61742  23906140.1724   23906139.2584
      2722.5784
  -2886481.04849  -2246093.06747  20401011.7974   20401009.0664
       244.8594
   2103532.01347   1639809.86543  23721919.3754   23721918.8634
     -1742.7504
  10276816.17248   7994783.44644  23009743.3914   23009742.0234
     -3866.4224
   2316952.28548   1803607.40745  22834943.4924   22834939.0234
     -1875.4534
    747715.78748    580530.06147  20816697.2194   20816694.4614
      -819.4534
  -6497986.18849  -5057794.99247  21386094.7504   21386091.1844
      1232.7344
 04  9 13 22 59  0.0000000  0  7G29G 8G10G13G19G27G28
  -2132370.00048  -1653447.64843  23898375.2584   23898374.7234
      2718.5634
  -2890114.30349  -2248924.18447  20400320.6174   20400318.0044
       239.5474
   2129733.72946   1660226.71643  23726905.8754   23726905.8754
     -1750.9224
  10334845.39447   8040000.94344  23020785.0864   23020785.0394
     -3870.9374
   2345153.13148   1825582.07345  22840310.1174   22840306.3794
     -1884.6724
    760043.38448    590135.97147  20819043.0704   20819040.1564
      -824.2034
  -6516432.34848  -5072168.61847  21382584.5084   21382580.7424
      1226.6414
 04  9 13 22 59 15.0000000  0  7G29G 8G10G13G19G27G28
  -2173117.26648  -1685198.70443  23890621.9304   23890621.4304
      2714.3444
  -2893667.15549  -2251692.64547  20399644.4844   20399641.3404
       234.1094
   2156056.68146   1680738.05843  23731914.2974   23731914.8444
     -1759.0784
  10392941.87748   8085270.86144  23031842.2194   23031840.2974
     -3875.2974
   2373491.80048   1847664.12845  22845702.0474   22845698.2544
     -1893.9064
    772444.95948    599799.51347  20821402.7894   20821400.1374
      -829.3284
  -6534787.38148  -5086471.23547  21379091.6254   21379088.3324
      1220.5164
 04  9 13 22 59 30.0000000  0  7G29G 8G10G13G19G27G28
  -2213799.55348  -1716899.14143  23882880.3594   23882879.9614
      2710.1414
  -2897134.97449  -2254394.85347  20398984.6954   20398981.9884
       228.4844
   2182505.17846   1701347.24743  23736947.3364   23736947.8754
     -1767.4534
  10451109.78047   8130596.40144  23042910.1954   23042909.1764
     -3880.0944
   2401972.67547   1869856.99345  22851121.9774   22851118.0124
     -1903.3754
    784925.05948    609524.26247  20823777.7194   20823774.9224
      -834.5004
  -6553046.72148  -5100699.28247  21375617.1564   21375613.3094
      1214.1884
 04  9 13 22 59 45.0000000  0  7G29G 8G10G13G19G27G28
  -2254418.60248  -1748550.30443  23875150.6884   23875150.2934
      2705.9694
  -2900519.76749  -2257032.36647  20398340.5474   20398337.3674
       223.0944
   2209076.72645   1722052.29642  23742003.7894   23742003.9454
     -1775.3124
  10509346.50147   8175975.59644  23053991.8444   23053991.5124
     -3884.5784
   2430593.40847   1892158.84345  22856567.9144   22856565.1024
     -1912.5004
    797481.65248    619308.59947  20826167.3914   20826164.0514
      -839.4844
  -6571212.49548  -5114854.42547  21372160.4454   21372156.6844
      1208.1254
 04  9 13 23  0  0.0000000  0  7G29G 8G10G13G19G27G28
  -2294975.55347  -1780153.04643  23867431.3364   23867432.4384
      2701.7814
  -2903822.81949  -2259606.18647  20397712.0394   20397709.0124
       217.4224
   2235769.60545   1742851.85842  23747084.5704   23747083.3364
     -1783.4844
  10567650.53048   8221407.23344  23065088.3914   23065086.4654
     -3889.1094
   2459352.37348   1914568.39345  22862041.6254   22862037.5044
     -1921.7974
    810113.38648    629151.48347  20828571.0784   20828568.5984
      -844.6414
  -6589286.21948  -5128937.84347  21368720.9924   21368717.5554
      1201.8914
 04  9 13 23  0 15.0000000  0  7G29G 8G10G13G19G27G28
  -2335469.40247  -1811706.62843  23859726.1644   23859725.8754
      2697.8594
  -2907043.18149  -2262115.55647  20397099.0784   20397095.4774
       212.2504
   2262584.37445   1763746.46243  23752186.0084   23752186.8524
     -1791.2344
  10626022.41347   8266891.72344  23076194.8984   23076194.2424
     -3893.3754
   2488250.12748   1937086.11045  22867541.0004   22867536.5354
     -1930.8754
    822821.25248    639053.71047  20830989.2734   20830986.7034
      -849.3754
  -6607267.01148  -5142948.83947  21365299.0394   21365295.9884
      1195.9064
 04  9 13 23  0 30.0000000  0  7G29G 8G10G13G19G27G28
  -2375900.23148  -1843211.14542  23852032.9144   23852031.5704
      2693.1254
  -2910181.56549  -2264561.06447  20396501.9064   20396498.5784
       206.4224
   2289520.11346   1784735.27542  23757312.4224   23757312.3204
     -1799.8124
  10684461.16248   8312428.36044  23087315.7734   23087314.8444
     -3898.2504
   2517285.92548   1959711.37345  22873065.8594   22873061.9884
     -1940.4534
    835604.61648    649014.76147  20833421.8524   20833419.0984
      -854.8444
  -6625155.44348  -5156887.87647  21361894.9694   21361891.7894
      1189.3594
 04  9 13 23  0 45.0000000  0  7G29G 8G10G13G19G27G28
  -2416268.46547  -1874666.87143  23844350.9924   23844349.2034
      2689.1254
  -2913238.28449  -2266942.93947  20395920.3204   20395917.0904
       201.0164
   2316575.96246   1805817.70042  23762461.0554   23762460.7234
     -1807.7194
  10742965.96647   8358016.43544  23098448.9384   23098448.0474
     -3902.5624
   2546459.03748   1982443.63645  22878617.3364   22878613.4534
     -1949.4224
    848463.03148    659034.29147  20835868.9844   20835866.1604
      -859.7974
  -6642952.15748  -5170755.43947  21358508.6254   21358504.8794
      1183.3444
 04  9 13 23  1  0.0000000  0  7G29G 8G10G13G19G27G28
  -2456572.50248  -1906072.61243  23836680.9144   23836679.4264
      2684.8444
  -2916212.06049  -2269260.17147  20395354.5004   20395351.5864
       195.5314
   2343752.74045   1826994.38942  23767631.6484   23767632.2624
     -1815.6414
  10801537.58947   8403656.57344  23109593.4064   23109593.9884
     -3906.9694
   2575770.33048   2005283.58845  22884194.2734   22884191.1294
     -1958.5784
    861397.77948    669113.29447  20838329.8984   20838327.0864
      -864.8284
  -6660655.98248  -5184550.63147  21355139.6254   21355136.3134
      1177.1414
 04  9 13 23  1 15.0000000  0  7G29G 8G10G13G19G27G28
  -2496812.73147  -1937428.60143  23829024.0084   23829022.8954
      2680.5164
  -2919103.25849  -2271513.06047  20394803.9774   20394801.2304
       189.8914
   2371049.73445   1848264.68242  23772826.8444   23772827.0984
     -1823.8124
  10860175.12647   8449348.07543  23120753.3674   23120753.0554
     -3911.4374
   2605219.10948   2028230.66645  22889799.1804   22889795.0704
     -1967.9374
    874408.29248    679251.34947  20840806.1174   20840803.3164
      -869.9374
  -6678267.65748  -5198274.00047  21351787.9924   21351784.0434
      1170.9064
 04  9 13 23  1 30.0000000  0  7G29G 8G10G13G19G27G28
  -2536989.05747  -1968734.75042  23821376.4614   23821377.8594
      2676.1884
  -2921911.97049  -2273701.67847  20394269.8754   20394266.7274
       184.4844
   2398466.43645   1869628.34942  23778043.4304   23778043.5004
     -1831.7344
  10918878.36847   8495090.79043  23131923.8674   23131922.6644
     -3915.7664
   2634805.09048   2051284.65245  22895428.8444   22895424.7854
     -1976.9694
    887494.73248    689448.55847  20843296.4774   20843293.6024
      -874.9844
  -6695787.09248  -5211925.50647  21348454.3524   21348450.9494
      1164.8594
 04  9 13 23  1 45.0000000  0  7G29G 8G10G13G19G27G28
  -2577100.66147  -1999990.51143  23813746.0164   23813745.3794
      2672.0784
  -2924637.80749  -2275825.71347  20393751.4144   20393747.8014
       179.1094
   2426002.86145   1891085.27342  23783284.1094   23783283.7664
     -1839.8284
  10977647.19147   8540884.61843  23143107.7194   23143106.8134
     -3919.9064
   2664528.27848   2074445.55145  22901085.7734   22901081.5944
     -1985.9224
    900657.31548    699705.10047  20845800.8524   20845798.3754
      -879.9694
  -6713214.07348  -5225504.96247  21345137.8914   21345134.5434
      1158.8594
 04  9 13 23  2  0.0000000  0  7G29G 8G10G13G19G27G28
  -2617145.08448  -2031193.89643  23806125.3984   23806124.7974
      2667.5004
  -2927278.28349  -2277883.24047  20393248.5864   20393245.6134
       173.2664
   2453661.00345   1912637.05242  23788547.6724   23788547.6484
     -1847.9064
  11036483.75547   8586731.20444  23154304.1024   23154303.1414
     -3924.5784
   2694390.92648   2097715.14245  22906768.5164   22906763.6604
     -1995.3444
    913898.59448    710022.97647  20848320.8364   20848317.8984
      -885.2814
  -6730546.30448  -5239010.59147  21341839.5084   21341835.9064
      1152.4694
 04  9 13 23  2 15.0000000  0  7G29G 8G10G13G19G27G28
  -2657124.44848  -2062346.59943  23798516.9224   23798517.1334
      2663.2814
  -2929836.15649  -2279876.39547  20392761.8914   20392758.9804
       167.8134
   2481438.01444   1934281.39441  23793833.3054   23793833.3954
     -1855.7194
  11095385.10048   8632628.26644  23165512.8054   23165511.7504
     -3928.7194
   2724390.15748   2121091.13545  22912476.1484   22912472.6294
     -2004.3914
    927215.99948    720400.15747  20850854.7114   20850852.0394
      -890.2814
  -6747786.31148  -5252444.36247  21338559.1954   21338555.7734
      1146.4064
 04  9 13 23  2 30.0000000  0  7G29G 8G10G13G19G27G28
  -2697040.90148  -2093450.31743  23790922.4144   23790921.1724
      2659.0004
  -2932313.12649  -2281806.51347  20392290.6334   20392287.8444
       162.4534
   2509331.21244   1956016.32341  23799141.2814   23799141.2114
     -1863.3594
  11154348.59047   8678573.76044  23176732.3444   23176731.9734
     -3932.9534
   2754523.47848   2144571.60845  22918210.3594   22918207.6844
     -2013.3284
    940607.25348    730834.89547  20853403.2734   20853400.2584
      -895.1724
  -6764936.48248  -5265808.12547  21335295.8134   21335292.1414
      1140.3594
 04  9 13 23  2 45.0000000  0  7G29G 8G10G13G19G27G28
  -2736892.44548  -2124503.45443  23783338.1094   23783337.4104
      2654.8754
  -2934707.90148  -2283672.57947  20391834.9224   20391831.9344
       157.1724
   2537342.10044   1977842.95142  23804471.7974   23804472.3484
     -1870.9694
  11213375.43248   8724568.63144  23187965.4614   23187964.1954
     -3937.0164
   2784792.26448   2168157.63045  22923970.5634   22923967.5744
     -2022.2034
    954074.09548    741328.52647  20855966.1024   20855963.5204
      -900.0624
  -6781995.07248  -5279100.52947  21332049.3754   21332045.5634
      1134.3754
 04  9 13 23  3  0.0000000  0  7G29G 8G10G13G19G27G28
  -2776679.49448  -2155506.31143  23775766.8754   23775766.4104
      2650.2974
  -2937020.97649  -2285474.98547  20391394.6414   20391391.4614
       151.4064
   2565469.49444   1999760.39342  23809822.6174   23809823.8674
     -1879.2504
  11272464.74347   8770612.16843  23199209.8284   23199208.9964
     -3941.4844
   2815195.61648   2191848.52845  22929756.0164   22929752.7344
     -2031.4374
    967615.93048    751880.59747  20858542.8984   20858539.9384
      -905.3444
  -6798962.89248  -5292322.20547  21328820.7974   21328817.1054
      1128.0474
 04  9 13 23  3 15.0000000  0  7G29G 8G10G13G19G27G28
  -2816399.79547  -2186457.15743  23768208.0704   23768207.4224
      2645.6564
  -2939250.34949  -2287212.17047  20390970.5864   20390967.8404
       145.7974
   2593715.01445   2021769.78942  23815198.4924   23815198.7704
     -1886.9534
  11331618.21647   8816705.71744  23210465.6644   23210465.8954
     -3945.8124
   2845735.24548   2215645.60645  22935567.5234   22935564.0704
     -2040.5784
    981234.78248    762492.67147  20861134.1644   20861131.3984
      -910.6094
  -6815838.07148  -5305471.69147  21325609.3984   21325605.8754
      1121.7814
 04  9 13 23  3 30.0000000  0  7G29G 8G10G13G19G27G28
  -2856053.30847  -2217355.94543  23760661.5314   23760661.7544
      2641.2664
  -2941396.01749  -2288884.11947  20390562.1414   20390558.9924
       140.1884
   2622078.33044   2043870.99142  23820595.8134   23820596.1604
     -1894.8124
  11390835.49547   8862848.94443  23221735.3834   23221733.9104
     -3950.0164
   2876410.76148   2239548.58945  22941405.1254   22941401.0474
     -2049.5944
    994930.74448    773164.84147  20863740.6954   20863738.3134
      -915.6414
  -6832620.69448  -5318549.05047  21322415.8054   21322412.1254
      1115.6724
 04  9 13 23  3 45.0000000  0  7G29G 8G10G13G19G27G28
  -2895641.98048  -2248204.21343  23753129.6724   23753128.5824
      2637.0944
  -2943460.20649  -2290492.58947  20390169.0704   20390166.3054
       134.9694
   2650556.67845   2066061.87642  23826015.7194   23826015.2894
     -1902.2974
  11450113.71447   8909039.71643  23233014.7894   23233014.9454
     -3953.9694
   2907219.63048   2263555.46845  22947266.7974   22947264.7074
     -2058.3284
   1008701.26848    783895.11047  20866361.0704   20866358.2894
      -920.4534
  -6849313.15848  -5331556.16147  21319239.7194   21319235.4774
      1109.8134
 04  9 13 23  4  0.0000000  0  7G29G 8G10G13G19G27G28
  -2935163.36248  -2279000.07043  23745608.9384   23745607.3094
      2632.4224
  -2945440.68949  -2292035.83747  20389792.4844   20389789.9304
       129.2034
   2679151.87744   2088343.77542  23831457.1644   23831457.1644
     -1910.2344
  11509454.83647   8955279.46444  23244306.9694   23244306.7234
     -3958.2034
   2938163.75348   2287667.73345  22953155.7734   22953152.9734
     -2067.4694
   1022548.73748    794685.32347  20868995.7344   20868993.4454
      -925.7504
  -6865913.24748  -5344491.29247  21316080.3914   21316077.0044
      1103.5314
 04  9 13 23  4 15.0000000  0  7G29G 8G10G13G19G27G28
  -2974615.41848  -2309741.88443  23738101.0394   23738099.6954
      2627.7194
  -2947335.28749  -2293512.15847  20389431.8444   20389428.8754
       123.3444
   2707865.58644   2110718.07841  23836921.6094   23836921.0204
     -1918.3594
  11568860.30547   9001569.34744  23255612.6884   23255611.9924
     -3962.5784
   2969244.84648   2311886.73245  22959070.7814   22959067.6094
     -2076.7814
   1036475.08048    805537.00447  20871646.4694   20871643.7544
      -931.1724
  -6882419.15748  -5357353.04647  21312939.3984   21312935.9884
      1097.2034
 04  9 13 23  4 30.0000000  0  7G29G 8G10G13G19G27G28
  -3014000.70148  -2340431.68843  23730605.6094   23730604.8134
      2623.2664
  -2949147.15749  -2294924.00947  20389087.0784   20389084.4344
       117.8284
   2736694.51244   2133182.14441  23842407.3364   23842407.4964
     -1925.7814
  11628326.85247   9047906.83143  23266928.4384   23266927.6764
     -3966.7664
   3000459.69548   2336209.96145  22965010.6254   22965007.5164
     -2085.5944
   1050477.36448    816447.86847  20874310.6024   20874308.1334
      -936.2814
  -6898833.95948  -5370143.78347  21309815.6094   21309812.3914
      1091.1254
 04  9 13 23  4 45.0000000  0  7G29G 8G10G13G19G27G28
  -3053317.46147  -2371068.11343  23723123.5084   23723123.5204
      2618.9534
  -2950874.62649  -2296270.09647  20388758.4454   20388755.6644
       112.4534
   2765639.63243   2155736.75841  23847915.4774   23847916.1374
     -1933.5944
  11687855.64047   9094292.82043  23278256.9454   23278256.1994
     -3970.5474
   3031809.44248   2360638.29645  22970976.5864   22970972.4344
     -2094.3594
   1064557.09448    827419.06747  20876990.1094   20876987.5904
      -941.1254
  -6915156.20848  -5382862.42347  21306709.3984   21306706.0234
      1085.2194
 04  9 13 23  5  0.0000000  0  7G29G 8G10G13G19G27G28
  -3092566.67248  -2401651.85943  23715654.9924   23715654.8714
      2614.5004
  -2952518.82748  -2297551.28947  20388445.5394   20388442.6134
       106.8284
   2794699.66353   2178380.85951  23853444.7034   23853445.5824
     -1941.1414
  11747445.22447   9140726.17744  23289595.1024   23289596.0634
     -3974.5004
   3063292.73948   2385170.71445  22976967.6334   22976963.6954
     -2103.2664
   1078713.32548    838449.88347  20879683.9454   20879681.2344
      -946.2034
  -6931387.13748  -5395509.90347  21303621.0164   21303617.3914
      1079.0784
 04  9 13 23  5 15.0000000  0  7G29G 8G10G13G19G27G28
  -3131746.47547  -2432181.55143  23708199.3364   23708198.8244
      2609.9844
  -2954078.05348  -2298766.27647  20388148.9774   20388145.8634
       101.4694
                                  23858997.1564   23858998.1844
     -1948.5624
  11807096.82147   9187207.88343  23300947.6094   23300946.9844
     -3978.6094
   3094910.85448   2409808.17945  22982983.8594   22982980.9104
     -2112.1254
   1092947.43648    849541.38647  20882392.8134   20882390.0274
      -951.2974
  -6947525.22848  -5408085.02747  21300550.1334   21300546.9494
      1073.0004
 04  9 13 23  5 30.0000000  0  6G29G 8G13G19G27G28
  -3170859.49748  -2462659.20143  23700756.6334   23700755.8984
      2605.0314
  -2955555.32549  -2299917.40447  20387867.8524   20387864.8094
        95.5634
  11866807.37047   9233735.46643  23312309.6954   23312310.1604
     -3982.9844
   3126660.69848   2434548.28145  22989026.0004   22989022.5864
     -2121.2814
   1107256.72748    860691.47547  20885115.2194   20885112.7274
      -956.7194
  -6963573.32248  -5420590.03947  21297496.5394   21297492.9184
      1066.6564
 04  9 13 23  5 45.0000000  0  6G29G 8G13G19G27G28
  -3209901.71348  -2493081.66843  23693327.0554   23693326.7854
      2600.4694
  -2956946.95149  -2301001.79447  20387602.8594   20387599.6884
        89.8914
  11926579.85247   9280311.39143  23323685.3054   23323683.7584
     -3986.8914
   3158545.69448   2459393.68145  22995093.7664   22995090.2624
     -2130.1724
   1121644.98648    871903.08747  20887853.5234   20887851.1454
      -961.8914
  -6979527.87848  -5433022.15647  21294460.2894   21294456.6844
      1060.5784
 04  9 13 23  6  0.0000000  0  6G29G 8G13G19G27G28
  -3248874.65447  -2523450.17543  23685910.3284   23685910.6724
      2595.8754
  -2958254.18749  -2302020.41947  20387354.0784   20387351.2934
        84.3594
  11986412.54047   9326934.16443  23335070.2584   23335069.6914
     -3990.9224
   3190563.90948   2484342.92045  23001186.5784   23001183.0904
     -2139.0004
   1136110.46248    883174.87447  20890606.3834   20890603.5664
      -967.0004
  -6995390.52048  -5445382.64747  21291441.6724   21291438.1524
      1054.4224
 04  9 13 23  6 15.0000000  0  6G29G 8G13G19G27G28
  -3287781.35748  -2553767.03343  23678506.8444   23678506.6254
      2591.6884
  -2959480.56149  -2302976.04547  20387120.9454   20387118.3094
        79.2504
  12046301.59947   9373600.88743  23346466.5474   23346466.3554
     -3994.3444
   3222711.70048   2509393.11745  23007304.3674   23007300.5434
     -2147.3914
   1150650.05449    894504.41547  20893373.2194   20893370.2584
      -971.6564
  -7011164.69448  -5457674.20347  21288439.8134   21288436.2464
      1048.8284
 04  9 13 23  6 30.0000000  0  6G29G 8G13G19G27G28
  -3326619.45248  -2584030.47443  23671116.2734   23671115.8714
      2586.8284
  -2960623.86249  -2303866.92547  20386903.1024   20386900.1724
        73.3444
  12106248.85347   9420312.93743  23357874.4064   23357874.0084
     -3998.5164
   3254990.92448   2534545.73345  23013446.8054   23013443.5234
     -2156.4064
   1165265.67248    905893.19447  20896154.2974   20896151.7504
      -977.0004
  -7026848.42848  -5469895.30147  21285455.6414   21285451.9264
      1042.4534
 04  9 13 23  6 45.0000000  0  6G29G 8G13G19G27G28
  -3365385.75948  -2614237.93843  23663739.1334   23663738.2464
      2581.8594
  -2961681.03849  -2304690.70147  20386702.0864   20386699.2704
        67.4694
  12166256.89847   9467072.38643  23369293.8754   23369293.0274
     -4002.7194
   3287404.31248   2559802.89245  23019615.2274   23019611.8134
     -2165.5624
   1179960.47448    917343.67247  20898950.8364   20898947.8364
      -982.4694
  -7042438.78548  -5482043.61947  21282488.6644   21282484.6804
      1036.1094
 04  9 13 23  7  0.0000000  0  6G29G 8G13G19G27G28
  -3404078.49348  -2644388.09643  23656375.9774   23656375.1374
      2577.3284
  -2962650.40849  -2305446.06547  20386517.7734   20386514.6724
        62.0314
  12226326.84646   9513880.05043  23380725.0944   23380724.7114
     -4006.3124
   3319953.04348   2585165.49745  23025807.9304   23025805.2234
     -2174.1094
   1194735.78348    928856.89447  20901762.7194   20901760.1254
      -987.3914
  -7057934.42548  -5494118.13747  21279539.9924   21279535.9774
      1030.1724
 04  9 13 23  7 15.0000000  0  6G29G 8G13G19G27G28
  -3442702.60548  -2674484.78143  23649025.9384   23649025.8404
      2572.4844
  -2963537.41249  -2306137.23847  20386348.8754   20386346.0204
        56.3754
  12286452.99747   9560731.49343  23392166.4064   23392166.1604
     -4010.3914
   3352631.42748   2610629.14945  23032026.6254   23032023.7074
     -2182.9224
   1209586.52448    940428.88847  20904588.6954   20904585.7504
      -992.7344
  -7073340.67648  -5506123.00547  21276608.2424   21276604.1134
      1024.0474
 04  9 13 23  7 30.0000000  0  6G29G 8G13G19G27G28
  -3481257.86548  -2704527.78443  23641689.3364   23641689.6954
      2567.9224
  -2964341.74349  -2306763.98347  20386195.8524   20386192.7544
        50.7664
  12346635.29247   9607626.70943  23403619.1254   23403618.4734
     -4014.1254
   3385439.42348   2636193.78545  23038270.5634   23038267.1134
     -2191.5784
   1224512.83148    952059.75147  20907428.6334   20907426.0164
      -997.7974
  -7088657.51648  -5518058.18747  21273693.4144   21273689.7194
      1018.0314
 04  9 13 23  7 45.0000000  0  6G29G 8G13G19G27G28
  -3519741.37348  -2734514.89743  23634366.4614   23634366.0704
      2563.1724
  -2965060.89149  -2307324.36047  20386059.0704   20386055.9414
        45.0634
  12406875.93247   9654567.39443  23415082.3134   23415082.2934
     -4018.0004
   3418379.34448   2661861.21945  23044538.5474   23044535.2664
     -2200.4224
   1239517.33448    963751.56647  20910283.8674   20910281.1134
     -1002.8914
  -7103882.31048  -5529921.66647  21270796.0784   21270792.6174
      1011.8444
 04  9 13 23  8  0.0000000  0  6G29G 8G13G19G27G28
  -3558152.47247  -2764445.58343  23627056.7424   23627055.9964
      2558.3444
  -2965694.35949  -2307817.98147  20385938.3914   20385935.5314
        39.4224
  12467174.87347   9701553.47643  23426556.6884   23426556.7194
     -4021.7664
   3451451.35848   2687631.58145  23050831.8674   23050829.0124
     -2209.1564
   1254600.44448    975504.61747  20913154.4534   20913152.0084
     -1008.0944
  -7119014.78248  -5541713.19747  21267917.2504   21267912.9884
      1005.8284
 04  9 13 23  8 15.0000000  0  6G29G 8G13G19G27G28
  -3596491.78148  -2794320.33243  23619761.2894   23619760.3524
      2553.5164
  -2966242.79148  -2308245.32647  20385834.2504   20385831.0164
        33.6884
  12527530.92847   9748584.07343  23438041.5634   23438041.5784
     -4025.7504
   3484654.25348   2713503.92345  23057149.9304   23057147.8244
     -2217.9844
   1269761.34948    987318.29347  20916039.2814   20916036.9964
     -1013.3594
  -7134055.77048  -5553433.44847  21265054.4304   21265050.8094
       999.5634
 04  9 13 23  8 30.0000000  0  6G29G 8G13G19G27G28
  -3634759.47448  -2824139.27043  23612479.1254   23612477.9104
      2549.0634
  -2966706.66248  -2308606.78347  20385745.9694   20385743.1414
        28.4064
  12587943.34346   9795658.61543  23449538.6804   23449538.3674
     -4029.1564
   3517987.33748   2739477.71645  23063493.1254   23063490.4534
     -2226.2034
   1284999.62248    999192.26847  20918939.0864   20918936.5434
     -1018.2344
  -7149005.87948  -5565082.86247  21262209.3914   21262206.0784
       993.9384
 04  9 13 23  8 45.0000000  0  6G29G 8G13G19G27G28
  -3672955.23948  -2853902.14643  23605210.3054   23605209.4064
      2543.9844
  -2967085.97148  -2308902.34947  20385673.4224   20385670.8244
        22.4224
  12648411.72646   9842776.73743  23461045.3914   23461045.0784
     -4033.0944
   3551450.27748   2765552.70645  23069861.6884   23069857.8484
     -2235.1724
   1300315.41348   1011126.63747  20921853.8204   20921851.1294
     -1023.6414
  -7163865.16848  -5576661.53147  21259382.0554   21259378.0044
       987.5634
 04  9 13 23  9  0.0000000  0  6G29G 8G13G19G27G28
  -3711079.23447  -2883609.12643  23597955.3754   23597954.4184
      2539.2504
  -2967381.01149  -2309132.25047  20385617.3134   20385614.5124
        16.9534
  12708935.37247   9889937.94843  23472562.7114   23472562.6294
     -4036.5784
   3585042.60648   2791728.51544  23076253.8444   23076249.8834
     -2243.6724
   1315708.22848   1023121.01247  20924782.9694   20924779.9024
     -1028.6254
  -7178634.05449  -5588169.74247  21256572.0084   21256567.8324
       981.7034
 04  9 13 23  9 15.0000000  0  6G29G 8G13G19G27G28
  -3749131.09648  -2913259.89743  23590714.6484   23590713.6724
      2534.2194
  -2967591.68049  -2309296.40747  20385577.3054   20385574.8754
        11.0164
  12769514.09446   9937142.03143  23484089.6174   23484090.6644
     -4040.6414
   3618763.86648   2818004.79145  23082671.0084   23082667.6414
     -2252.5004
   1331178.20448   1035175.53847  20927726.5704   20927723.9804
     -1034.0474
  -7193312.60048  -5599607.55347  21253778.0314   21253774.4454
       975.4384
 04  9 13 23  9 30.0000000  0  6G29G 8G13G19G27G28
  -3787108.48248  -2942852.62443  23583487.3914   23583487.5354
      2529.4224
  -2967715.63049  -2309392.99747  20385554.0394   20385550.8054
         5.3914
  12830149.64646   9984390.42443  23495628.6804   23495628.8054
     -4044.3754
   3652616.15948   2844383.16945  23089112.6254   23089109.2544
     -2261.2194
   1346727.77148   1047292.06547  20930685.9694   20930682.7504
     -1039.2814
  -7207898.54949  -5610973.22547  21251002.6804   21250999.1884
       969.2814
 04  9 13 23  9 45.0000000  0  6G29G 8G13G19G27G28
  -3825012.02448  -2972387.78743  23576274.9844   23576274.2424
      2524.3754
  -2967753.88548  -2309422.80047  20385546.4534   20385543.6994
        -0.3914
  12890840.58146  10031681.96643  23507177.9694   23507178.1844
     -4047.8914
   3686598.11248   2870862.57345  23095578.9384   23095575.9144
     -2269.8284
   1362355.84448   1059469.77047  20933659.4614   20933656.5634
     -1044.5314
  -7222393.14148  -5622267.71147  21248244.8134   21248241.4454
       963.1884
 04  9 13 23 10  0.0000000  0  6G29G 8G13G19G27G28
  -3862840.93448  -3001864.81643  23569076.3444   23569075.2894
      2519.2974
  -2967705.85849  -2309385.37648  20385555.9304   20385552.3404
        -6.2034
  12951587.24947  10079016.97543  23518737.6564   23518737.9304
     -4051.7194
   3720709.98948   2897443.22745  23102070.1804   23102067.7274
     -2278.6094
   1378062.93149   1071709.04247  20936648.7974   20936645.8484
     -1049.9064
  -7236795.84649  -5633490.58347  21245504.0234   21245499.9924
       956.9844
 04  9 13 23 10 15.0000000  0  6G29G 8G13G19G27G28
  -3900596.85647  -3031284.98143  23561891.1724   23561890.3324
      2514.6254
  -2967573.37949  -2309282.15847  20385580.7734   20385577.6294
       -11.6724
  13012387.39946  10126393.61043  23530307.4224   23530307.7344
     -4055.2504
   3754949.53048   2924123.35845  23108586.5784   23108582.6454
     -2286.8444
   1393847.22248   1084008.47847  20939652.1024   20939649.2814
     -1054.8444
  -7251108.55349  -5644643.33347  21242780.1334   21242776.6564
       951.1094
 04  9 13 23 10 30.0000000  0  6G29G 8G13G19G27G28
  -3938278.93648  -3060647.61143  23554720.2734   23554720.0084
      2509.6414
  -2967355.50049  -2309112.37747  20385622.4924   20385619.4024
       -17.4224
  13073241.32946  10173812.15243  23541887.6024   23541887.3244
     -4058.7664
   3789317.24148   2950903.37645  23115126.0394   23115122.5984
     -2295.5164
   1409709.35048   1096368.55647  20942670.6094   20942668.4384
     -1060.1254
  -7265330.72748  -5655725.53247  21240073.7424   21240069.9804
       945.0634
 04  9 13 23 10 45.0000000  0  6G29G 8G13G19G27G28
  -3975887.04048  -3089952.56043  23547563.6254   23547563.6914
      2504.8594
  -2967052.72248  -2308876.44147  20385679.8914   20385677.0474
       -22.9224
  13134148.45847  10221272.18243  23553479.5704   23553478.6724
     -4062.0164
   3823812.60348   2977782.84244  23121690.2584   23121686.8134
     -2303.8444
   1425649.31148   1108789.30047  20945704.1564   20945701.1094
     -1065.1094
  -7279462.61748  -5666737.39747  21237384.3674   21237380.7894
       939.1414
 04  9 13 23 11  0.0000000  0  6G29G 8G13G19G27G28
  -4013421.85648  -3119200.41743  23540421.1954   23540420.1254
      2499.8284
  -2966665.62449  -2308574.81547  20385753.8594   20385750.5004
       -28.6254
  13195107.57146  10268772.68343  23565078.2274   23565078.8364
     -4065.7034
   3858434.34148   3004760.80845  23128278.2584   23128275.1764
     -2312.3284
   1441666.19148   1121269.97347  20948751.9304   20948749.1484
     -1070.3754
  -7293505.21149  -5677679.66947  21234712.1254   21234708.5864
       933.2344
 04  9 13 23 11 15.0000000  0  6G29G 8G13G19G27G28
  -4050883.53248  -3148391.31943  23533292.6644   23533291.6054
      2494.9534
  -2966194.81149  -2308207.94247  20385843.3984   20385840.1024
       -34.2194
  13256117.85146  10316313.05643  23576688.3364   23576688.5634
     -4069.0624
   3893181.73848   3031836.66845  23134890.4774   23134887.6334
     -2320.7814
   1457759.44749   1133810.16047  20951814.3674   20951811.6094
     -1075.4844
  -7307459.09748  -5688552.81847  21232056.7274   21232053.1724
       927.2814
 04  9 13 23 11 30.0000000  0  7G29G 8G13G19G27G28G 7
  -4088269.76748  -3177523.38543  23526177.7114   23526176.8284
      2490.0784
  -2965637.84648  -2307773.94347  20385949.5084   20385946.5514
       -39.8914
  13317181.17646  10363894.74343  23588308.0864   23588309.6294
     -4072.6414
   3928056.74148   3059011.95944  23141527.1724   23141524.1294
     -2329.1874
   1473931.42248   1146411.67847  20954891.9774   20954888.9024
     -1080.6724
  -7321322.13649  -5699355.16347  21229419.2974   21229414.7344
       921.3594
   -130430.61257   -100187.66752  24075280.2504   24075282.1054
      3059.2664
 04  9 13 23 11 45.0000000  0  7G29G 8G13G19G27G28G 7
  -4125581.29648  -3206597.27544  23519078.2344   23519077.3674
      2484.9694
  -2964995.80949  -2307273.65347  20386071.5944   20386068.0044
       -45.5944
  13378295.67946  10411516.33843  23599938.8754   23599938.6374
     -4075.9694
   3963057.90348   3086285.56145  23148187.9924   23148184.6134
     -2337.5944
   1490180.95149   1159073.64147  20957984.1254   20957981.1804
     -1085.7814
  -7335095.60548  -5710087.72947  21226797.7344   21226794.4144
       915.2814
   -176306.01747   -135934.62242  24066550.2274   24066551.9144
      3057.5164
 04  9 13 23 12  0.0000000  0  7G29G 8G13G19G27G28G 7
  -4162818.51248  -3235613.23143  23511992.4924   23511991.7504
      2480.0784
  -2964269.41849  -2306707.64847  20386209.6484   20386206.5824
       -51.1724
  13439460.77046  10459177.36743  23611577.2504   23611577.5354
     -4079.2664
   3998184.34048   3113656.79244  23154872.8984   23154868.0784
     -2345.8754
   1506507.43149   1171795.56347  20961090.8444   20961088.6914
     -1090.8124
  -7348780.08448  -5720750.94947  21224193.5394   21224189.8444
       909.4384
   -222156.07547   -171661.91142  24057823.7034   24057826.3914
      3055.9384
 04  9 13 23 12 15.0000000  0  7G29G 8G13G19G27G28G 7
  -4199981.97848  -3264571.72444  23504920.2114   23504919.4264
      2475.0474
  -2963459.36349  -2306076.44047  20386364.0314   20386360.8594
       -56.8444
  13500675.25746  10506876.88142  23623225.5314   23623226.7304
     -4082.5624
   4033434.97548   3141124.79944  23161579.5084   23161576.8134
     -2354.2664
   1522910.18248   1184576.91347  20964212.3834   20964209.5354
     -1096.1564
  -7362376.41448  -5731345.49047  21221606.2894   21221602.6484
       903.4224
   -267981.39047   -207369.87542  24049105.0554   24049106.6644
      3054.0634
 04  9 13 23 12 30.0000000  0  8G29G 8G13G19G27G28G 7G26
  -4237068.88448  -3293470.56643  23497863.0084   23497862.3094
      2469.8594
  -2962562.97249  -2305377.95247  20386534.1174   20386530.9534
       -62.5944
  13561941.23046  10554616.47643  23634885.1414   23634885.0394
     -4085.9844
   4068812.00148   3168691.29944  23168311.8674   23168308.5904
     -2362.6724
   1539391.76749   1197419.69547  20967348.9064   20967345.5984
     -1101.3914
  -7375882.31049  -5741869.55247  21219036.2974   21219032.2344
       897.4224
   -313779.10246   -243056.29442  24040389.7894   24040391.3054
      3052.3754
   -106343.98057    -79682.39852  23935113.5634   23935114.7774
      2807.3284
 04  9 13 23 12 45.0000000  0  8G29G 8G13G19G27G28G 7G26
  -4274081.76748  -3322311.73443  23490819.4694   23490818.2194
      2465.2664
  -2961583.07648  -2304614.39947  20386720.5164   20386717.5514
       -68.0004
  13623255.63846  10602393.83543  23646553.2034   23646553.0984
     -4089.0474
   4104312.33848   3196353.85944  23175067.7424   23175064.7584
     -2370.7034
   1555949.43848   1210321.76247  20970499.3754   20970496.3014
     -1106.2344
  -7389300.51248  -5752325.28447  21216483.0314   21216479.7814
       891.7974
   -359551.76046   -278723.22942  24031679.4774   24031681.2114
      3050.8594
   -148420.50147   -112469.23642  23927106.5164   23927107.4454
      2802.9534
 04  9 13 23 13  0.0000000  0  8G29G 8G13G19G27G28G 7G26
  -4311020.54248  -3351095.13943  23483790.0394   23483789.4184
      2460.2034
  -2960519.71549  -2303785.80447  20386923.1334   20386919.8164
       -73.5164
  13684617.96246  10650208.54043  23658229.9774   23658230.1454
     -4092.3124
   4139935.53648   3224112.17344  23181846.2194   23181843.2584
     -2378.7974
   1572583.10248   1223283.04947  20973664.8674   20973661.7344
     -1111.3284
  -7402631.16349  -5762712.78947  21213946.2894   21213942.5944
       885.9534
   -405299.24046   -314370.54042  24022973.8364   24022975.0634
      3049.0944
   -190428.36747   -145202.59342  23919113.9844   23919113.2274
      2798.4224
 04  9 13 23 13 15.0000000  0  8G29G 8G13G19G27G28G 7G26
  -4347884.79348  -3379820.48743  23476774.9064   23476773.5904
      2455.2974
  -2959372.74548  -2302892.05547  20387141.2504   20387138.8594
       -79.1094
  13746027.95146  10698060.36943  23669916.0394   23669916.3754
     -4095.4694
   4175681.43848   3251966.08344  23188648.6804   23188645.5704
     -2386.9534
   1589292.76249   1236303.54847  20976844.1334   20976841.3404
     -1116.3754
  -7415874.35648  -5773032.16947  21211426.1954   21211422.5474
       880.1564
   -451021.19246   -349997.97142  24014272.5634   24014275.5314
      3047.3594
   -232367.01047   -177882.03942  23911131.9454   23911131.6134
      2793.7814
 04  9 13 23 13 30.0000000  0  8G29G 8G13G19G27G28G 7G26
  -4384671.26048  -3408485.22843  23469774.3674   23469773.7624
      2449.8134
  -2958138.92048  -2301930.63747  20387375.7894   20387373.0984
       -85.1564
  13807488.30446  10745951.50142  23681611.8674   23681611.3364
     -4099.2194
   4211552.72848   3279917.69844  23195474.0084   23195471.9264
     -2395.6094
   1606081.61548   1249385.75547  20980039.6414   20980037.1804
     -1121.7974
  -7429027.11748  -5783281.05947  21208923.0634   21208919.0784
       873.7664
   -496714.31946   -385602.88242  24005578.0784   24005579.7344
      3045.2504
   -274233.17946   -210504.95742  23903164.8204   23903164.7624
      2788.6414
 04  9 13 23 13 45.0000000  0  8G29G 8G13G19G27G28G 7G26
  -4421382.97548  -3437091.73243  23462788.4304   23462787.5204
      2444.7974
  -2956821.64048  -2300904.19247  20387626.7814   20387623.9964
       -90.7194
  13868995.33446  10793878.90543  23693314.9774   23693316.1374
     -4102.1874
   4247545.76148   3307964.16944  23202323.8754   23202320.4024
     -2403.6564
   1622946.32748   1262527.07347  20983248.3364   20983245.5314
     -1127.0004
  -7442092.89648  -5793462.17647  21206436.7114   21206432.9694
       868.0314
   -542381.78646   -421187.88742  23996887.0394   23996889.4884
      3043.4384
   -316030.00046   -243073.81442  23895211.0234   23895211.4024
      2784.0784
 04  9 13 23 14  0.0000000  0  8G29G 8G13G19G27G28G 7G26
  -4458017.96348  -3465638.39944  23455817.5474   23455816.1134
      2440.0004
  -2955419.06149  -2299811.27347  20387893.7274   20387890.8444
       -96.0624
  13930550.34446  10841843.76343  23705029.0314   23705029.5124
     -4104.9534
   4283662.02448   3336106.69844  23209197.4064   23209192.6414
     -2411.5944
   1639888.70048   1275728.91647  20986472.8204   20986469.5004
     -1131.7344
  -7455069.94449  -5803574.15247  21203967.8594   21203963.9144
       862.4224
   -588021.59446   -456751.26142  23988201.9924   23988204.5944
      3042.0784
   -357755.19747   -275586.87742  23887270.4614   23887271.6914
      2779.4844
 04  9 13 23 14 15.0000000  0  8G29G 8G13G19G27G28G 7G26
  -4494576.66748  -3494125.70044  23448860.8134   23448859.2074
      2434.8134
  -2953931.59948  -2298652.21647  20388177.2114   20388174.1844
      -101.8124
  13992152.45546  10889845.31842  23716752.5004   23716752.0234
     -4108.1414
   4319900.69748   3364344.59845  23216093.2274   23216089.6954
     -2419.8754
   1656908.13948   1288990.79847  20989711.5634   20989709.2384
     -1137.0314
  -7467959.01348  -5813617.57947  21201514.9614   21201510.5124
       856.4384
   -633633.95546   -492293.26742  23979523.6804   23979524.9884
      3040.0634
   -399409.24347   -308044.48342  23879344.8594   23879345.3914
      2774.6884
 04  9 13 23 14 30.0000000  0  8G29G 8G13G19G27G28G 7G26
  -4531057.63648  -3522552.37343  23441917.6804   23441917.2894
      2429.4694
  -2952358.52249  -2297426.43947  20388476.1484   20388473.4104
      -107.6724
  14053802.36146  10937884.09842  23728484.5864   23728483.6604
     -4111.6414
   4356262.49448   3392678.43645  23223012.9924   23223009.3794
     -2428.1874
   1674005.83248   1302313.65847  20992964.7194   20992961.7854
     -1142.4534
  -7480759.14949  -5823591.70447  21199079.0554   21199075.2664
       850.4064
   -679217.67546   -527812.99042  23970848.0864   23970850.1024
      3038.0474
   -440990.83747   -340445.65442  23871432.1724   23871433.2424
      2769.6724
 04  9 13 23 14 45.0000000  0  8G29G 8G13G19G27G28G 7G26
  -4567460.40748  -3550918.10643  23434990.6094   23434990.3834
      2424.1254
  -2950699.42049  -2296133.64047  20388791.4614   20388788.6724
      -113.5314
  14115499.85846  10985959.96843  23740224.9774   23740223.9884
     -4114.8124
   4392747.23948   3421108.08845  23229955.5234   23229953.2304
     -2436.4064
   1691181.91748   1315697.60747  20996233.7344   20996230.6214
     -1147.7344
  -7493470.09148  -5833496.32447  21196659.8834   21196656.0704
       844.2664
   -724772.33446   -563310.05242  23962179.0314   23962181.3594
      3035.8754
   -482499.37647   -372789.90243  23863533.9144   23863534.3094
      2764.7664
 04  9 13 23 15  0.0000000  0  8G29G 8G13G19G27G28G 7G26
  -4603781.24448  -3579219.99344  23428079.3674   23428078.1294
      2418.6724
  -2948950.62649  -2294770.94247  20389124.7114   20389121.6994
      -119.5314
  14177248.19646  11034075.44542  23751975.5784   23751975.9494
     -4118.2034
   4429358.26048   3449636.11345  23236922.5944   23236918.7814
     -2444.8914
   1708439.92448   1329145.39047  20999517.6174   20999514.6134
     -1153.1874
  -7506088.47849  -5843328.81847  21194258.8984   21194255.3714
       838.0784
   -770294.07847   -598781.40842  23953517.1334   23953518.1684
      3033.6254
   -523931.12047   -405074.28843  23855649.3134   23855650.4184
      2759.5474
 04  9 13 23 15 15.0000000  0  8G29G 8G13G19G27G28G 7G26
  -4640022.98648  -3607460.27944  23421182.9534   23421181.4304
      2413.5314
  -2947115.10948  -2293340.67647  20389473.6024   20389470.5784
      -125.1874
  14239043.95046  11082227.88243  23763734.4694   23763735.2734
     -4121.1564
   4466092.07248   3478259.83845  23243911.8524   23243909.7234
     -2452.9224
   1725776.89548   1342654.70947  21002816.5784   21002814.1484
     -1158.3754
  -7518617.52349  -5853091.70947  21191874.9454   21191871.0704
       832.3754
   -815785.77547   -634229.43342  23944860.1954   23944861.3324
      3031.7814
   -565289.01747   -437301.17042  23847778.2814   23847779.5084
      2754.7344
 04  9 13 23 15 30.0000000  0  8G29G 8G13G19G27G28G 7G26
  -4676184.26548  -3635637.84244  23414301.6334   23414300.3404
      2408.2344
  -2945191.78548  -2291841.98647  20389840.1254   20389837.6764
      -130.9844
  14300887.75046  11130417.77242  23775503.1644   23775502.9924
     -4124.3594
   4502949.39848   3506979.81645  23250926.4844   23250923.2624
     -2461.0784
   1743193.83448   1356226.34447  21006131.0474   21006128.4264
     -1163.6724
  -7531056.26948  -5862784.22747  21189507.4844   21189503.7814
       826.3594
   -861246.17747   -669653.05342  23936209.3754   23936210.9454
      3029.7814
   -606571.52646   -469469.29042  23839921.8364   23839923.3164
      2749.7664
 04  9 13 23 15 45.0000000  0  8G29G 8G13G19G27G28G 7G26
  -4712268.44148  -3663755.32844  23407434.6414   23407433.5124
      2403.2504
  -2943184.21749  -2290277.64747  20390222.0704   20390219.0234
      -136.4224
  14362775.78547  11178642.08942  23787280.0084   23787280.3714
     -4127.2194
   4539926.46348   3535793.08345  23257963.3444   23257959.2814
     -2468.9534
   1760687.38648   1369857.66547  21009459.6334   21009457.1414
     -1168.5784
  -7543408.26448  -5872409.15447  21187157.4224   21187153.4774
       820.8284
   -906678.52547   -705054.80242  23927563.6884   23927565.3714
      3028.0784
   -647781.95847   -501581.27342  23832080.0164   23832080.9144
      2745.0474
 04  9 13 23 16  0.0000000  0  8G29G 8G13G19G27G28G 7G26
  -4748277.32448  -3691814.16343  23400582.5634   23400580.5824
      2398.0314
  -2941094.52948  -2288649.31547  20390619.4304   20390616.6884
      -142.0944
  14424705.51346  11226898.95243  23799065.0474   23799065.1214
     -4130.0944
   4577020.84449   3564697.79044  23265021.7504   23265018.5434
     -2476.8754
   1778255.26948   1383546.92347  21012802.9144   21012800.6214
     -1173.7344
  -7555675.64648  -5881968.13647  21184822.7504   21184819.2504
       814.9694
   -952084.77047   -740436.21342  23918922.8984   23918924.5984
      3026.1414
   -688922.06247   -533638.42643  23824252.5234   23824252.3444
      2740.3444
 04  9 13 23 16 15.0000000  0  8G29G 8G13G19G27G28G 7G26
  -4784210.18948  -3719813.73144  23393744.6334   23393743.5864
      2392.8914
  -2938922.07249  -2286956.51047  20391033.1484   20391029.8754
      -147.7344
  14486677.06446  11275188.35143  23810858.1954   23810857.8754
     -4132.9534
   4614232.73348   3593694.04344  23272102.6094   23272099.4654
     -2484.7504
   1795898.06948   1397294.54447  21016160.5164   21016157.8484
     -1178.7664
  -7567858.12448  -5891460.97147  21182504.7504   21182500.9804
       809.2034
   -997464.02348   -775796.61442  23910288.6724   23910289.3914
      3024.2504
   -729991.17747   -565640.26043  23816436.3524   23816437.5904
      2735.5474
 04  9 13 23 16 30.0010000  0  8G29G 8G13G19G27G28G 7G26
  -4820066.58948  -3747753.73044  23386921.2004   23386920.8994
      2387.3284
  -2936664.00549  -2285196.97547  20391462.8964   20391459.7084
      -153.7034
  14548696.75846  11323515.28843  23822659.2864   23822661.1224
     -4136.1094
   4651566.87048   3622785.55244  23279207.4664   23279203.9114
     -2493.0944
   1813619.63248   1411103.53947  21019532.3724   21019529.8684
     -1184.2664
  -7579954.02948  -5900886.33947  21180202.5754   21180199.0284
       803.0634
  -1042816.61448   -811136.22242  23901657.2864   23901659.5754
      3021.9694
   -770989.28447   -597586.78843  23808635.8644   23808636.1774
      2730.1884
 04  9 13 23 16 45.0010000  0  8G29G 8G13G19G27G28G 7G26
  -4855838.69248  -3775628.03944  23380114.5524   23380113.4354
      2381.9224
  -2934317.77048  -2283368.74047  20391909.1614   20391905.9664
      -159.4224
  14610758.90946  11371875.30743  23834470.2784   23834470.3254
     -4139.1094
   4689020.79148   3651970.39344  23286334.3414   23286331.8294
     -2501.0474
   1831420.54648   1424974.37047  21022919.9744   21022917.5284
     -1189.4534
  -7591958.92448  -5910240.79847  21177918.0134   21177914.7314
       797.2194
  -1088133.39047   -846447.93443  23893033.9894   23893035.8174
      3019.9064
   -811907.63147   -629471.14943  23800849.0674   23800849.3334
      2725.3284
 04  9 13 23 17  0.0010000  0  8G29G 8G13G19G27G28G 7G26
  -4891528.74648  -3803438.44344  23373322.9194   23373320.8724
      2376.6094
  -2931883.38348  -2281471.82147  20392372.3804   20392369.5244
      -165.1724
  14672866.97946  11420271.06743  23846288.8724   23846289.3924
     -4142.0784
   4726596.48648   3681250.14244  23293484.4814   23293481.8024
     -2509.1094
   1849301.69648   1438907.71847  21026322.3724   21026320.1104
     -1194.6724
  -7603873.96048  -5919525.23747  21175650.8564   21175647.1034
       791.3594
  -1133417.31848   -881734.02942  23884417.6224   23884418.4624
      3017.8284
   -852748.89347   -661295.44742  23793076.6224   23793077.2594
      2720.2974
 04  9 13 23 17 15.0010000  0  8G29G 8G13G19G27G28G 7G26
  -4927135.98948  -3831184.30744  23366546.3564   23366545.3064
      2371.0314
  -2929360.12548  -2279505.64847  20392852.5604   20392849.8644
      -171.2344
  14735021.15247  11468702.80643  23858116.9034   23858116.2744
     -4145.1414
   4764294.07948   3710624.85944  23300658.0914   23300654.3294
     -2517.2814
   1867263.54448   1452903.95847  21029740.8174   21029738.2784
     -1200.1874
  -7615698.62548  -5928739.25047  21173400.6064   21173396.6304
       785.2814
  -1178667.64648   -916993.94742  23875805.6774   23875807.2044
      3015.5314
   -893512.28147   -693059.05542  23785319.1144   23785319.7824
      2714.9534
 04  9 13 23 17 30.0010000  0  8G29G 8G13G19G27G28G 7G26
  -4962664.90448  -3858869.10744  23359785.6064   23359784.7044
      2365.8444
  -2926752.94448  -2277474.08347  20393348.9504   20393345.6304
      -176.6874
  14797216.45746  11517166.57842  23869951.7244   23869951.6884
     -4147.8444
   4802108.61048   3740090.70944  23307854.1614   23307850.5794
     -2524.9534
   1885301.56948   1466959.55047  21033173.4504   21033170.5284
     -1205.2194
  -7627437.77148  -5937886.63247  21171166.9274   21171163.5954
       779.5164
  -1223888.77648   -952231.12443  23867200.9504   23867202.4154
      3013.6564
   -934202.20747   -724765.43742  23777576.5214   23777575.9664
      2710.0784
 04  9 13 23 17 45.0010000  0  8G29G 8G13G19G27G28G 7G26
  -4998111.16848  -3886489.53144  23353040.4504   23353039.0524
      2360.1254
  -2924057.53249  -2275373.77547  20393861.8254   20393858.8684
      -182.9064
  14859456.68946  11565665.36642  23881796.0054   23881795.7744
     -4151.0944
   4840043.94648   3769650.68044  23315073.2784   23315069.6534
     -2533.3284
   1903419.85548   1481077.68347  21036621.0054   21036618.4664
     -1210.7344
  -7639087.33048  -5946964.19847  21168949.6614   21168946.0714
       773.4384
  -1269076.40847   -987442.18642  23858601.3334   23858602.9584
      3011.1724
   -974814.38347   -756411.27542  23769848.5364   23769848.0954
      2704.7194
 04  9 13 23 18  0.0010000  0  8G29G 8G13G19G27G28G 7G26
  -5033475.95548  -3914046.46244  23346310.8414   23346309.2904
      2355.0784
  -2921275.19749  -2273205.73047  20394391.1224   20394387.7714
      -188.3124
  14921739.90346  11614197.61442  23893647.3024   23893649.0014
     -4153.5944
   4878098.30248   3799303.40744  23322314.7784   23322311.8214
     -2540.7974
   1921616.92348   1495257.20647  21040084.1384   21040080.8254
     -1215.6564
  -7650648.93848  -5955973.24247  21166749.6924   21166746.2004
       768.0004
  -1314231.79347  -1022628.14042  23850008.7164   23850009.8104
      3009.3754
  -1015349.89047   -787997.33042  23762135.0214   23762134.5714
      2700.0004
 04  9 13 23 18 15.0010000  0  8G29G 8G13G19G27G28G 7G26
  -5068760.07348  -3941540.51744  23339596.2944   23339595.1694
      2349.5164
  -2918406.97149  -2270970.74547  20394937.0994   20394934.1104
      -194.1094
  14984064.67147  11662762.26943  23905507.7004   23905509.1734
     -4156.3444
   4916270.24148   3829047.73144  23329578.6774   23329576.3684
     -2548.7974
   1939891.80448   1509497.34847  21043561.3884   21043558.9784
     -1220.9534
  -7662123.73148  -5964914.62747  21164566.1384   21164563.0404
       762.0474
  -1359355.71647  -1057789.56942  23841421.8104   23841423.6814
      3007.1884
  -1055809.53547   -819524.27443  23754435.5444   23754434.6304
      2694.6884
 04  9 13 23 18 30.0010000  0  8G29G 8G13G19G27G28G 7G26
  -5103961.64448  -3968970.28344  23332898.0284   23332895.9314
      2343.9064
  -2915451.38449  -2268667.69647  20395499.7474   20395496.4274
      -200.0314
  15046432.24347  11711360.24143  23917376.6534   23917377.2354
     -4159.5164
   4954560.98648   3858884.63145  23336864.9584   23336862.6814
     -2556.7504
   1958245.97548   1523799.29847  21047054.1464   21047051.5364
     -1226.4064
  -7673510.31148  -5973787.28147  21162399.1774   21162395.5244
       756.0164
  -1404446.46947  -1092925.14842  23832840.8024   23832841.7244
      3004.7664
  -1096191.47847   -850990.66742  23746750.7004   23746750.9544
      2689.4844
 04  9 13 23 18 45.0010000  0  8G29G 8G13G19G27G28G 7G26
  -5139080.12548  -3996335.31344  23326214.7864   23326212.6494
      2338.4064
  -2912407.86649  -2266296.13647  20396078.7164   20396075.6774
      -205.9374
  15108842.65946  11759991.60643  23929253.2164   23929253.6304
     -4162.1254
   4992970.69948   3888814.24144  23344174.4504   23344171.3134
     -2564.6564
   1976680.09948   1538163.53647  21050561.9194   21050559.2824
     -1231.6724
  -7684808.15348  -5982590.79347  21160249.7864   21160245.9354
       750.1884
  -1449503.26547  -1128034.26842  23824265.8104   23824268.4504
      3002.6414
  -1136494.96847   -882395.92342  23739081.4424   23739081.3764
      2684.1414
 04  9 13 23 19  0.0010000  0  8G29G 8G13G19G27G28G 7G26
  -5174112.31848  -4023633.08244  23319548.8724   23319547.7124
      2332.6884
  -2909273.64049  -2263853.88347  20396674.9114   20396671.8604
      -211.9064
  15171298.34446  11808658.27042  23941137.1384   23941138.8104
     -4165.1254
   5031501.91748   3918838.54544  23351506.4194   23351502.5714
     -2572.7974
   1995196.92348   1552592.21447  21054085.4504   21054083.4074
     -1237.1724
  -7696014.64248  -5991323.10547  21158117.2634   21158113.2394
       744.0944
  -1494523.04547  -1163114.49642  23815699.7714   23815702.0364
      3000.1254
  -1176716.96847   -913737.66043  23731428.2784   23731427.3374
      2678.7974
 04  9 13 23 19 15.0010000  0  8G29G 8G13G19G27G28G 7G26
  -5209058.60648  -4050863.92644  23312898.3804   23312897.0324
      2326.9694
  -2906049.01748  -2261341.18747  20397288.7474   20397285.5014
      -217.9694
  15233798.53946  11857359.58642  23953030.6384   23953031.8924
     -4168.2034
   5070153.72748   3948956.79745  23358861.4424   23358858.5954
     -2580.8124
   2013795.97148   1567084.96447  21057624.8724   21057622.6654
     -1242.6094
  -7707130.31748  -5999984.65547  21156001.8644   21155998.0954
       738.1094
  -1539506.05747  -1198166.13042  23807139.6854   23807141.4074
      2997.7814
  -1216857.64147   -945016.03743  23723789.1694   23723789.1924
      2673.3594
 04  9 13 23 19 30.0010000  0  8G29G 8G13G19G27G28G 7G26
  -5243922.94148  -4078030.89444  23306262.8644   23306262.5634
      2321.7814
  -2902738.16349  -2258761.31048  20397918.6854   20397915.5994
      -223.4064
  15296338.47447  11906091.89943  23964931.9504   23964932.6494
     -4170.4374
   5108921.45448   3979165.39345  23366239.5284   23366236.1064
     -2588.1254
   2032472.90848   1581638.41447  21061178.7394   21061176.2864
     -1247.4844
  -7718159.72148  -6008578.98647  21153903.0284   21153898.7744
       732.6254
  -1584456.39947  -1233192.25042  23798586.1694   23798587.7244
      2995.8444
  -1256921.06947   -976234.21543  23716165.3644   23716165.1464
      2668.6094
 04  9 13 23 19 45.0010000  0  8G29G 8G13G19G27G28G 7G26
  -5278704.75348  -4105133.56044  23299644.9114   23299644.1304
      2316.0314
  -2899340.90449  -2256114.09747  20398565.1694   20398562.2904
      -229.3594
  15358918.18647  11954855.20643  23976840.8024   23976842.2744
     -4173.2504
   5147805.12448   4009464.31845  23373638.6534   23373635.7434
     -2596.0784
   2051228.13448   1596252.85847  21064748.1464   21064745.3334
     -1252.9534
  -7729102.51448  -6017105.82947  21151820.5834   21151816.6734
       726.6414
  -1629373.60647  -1268192.62242  23790037.8254   23790039.1814
      2993.3914
  -1296906.68547  -1007391.83842  23708556.2714   23708556.2044
      2663.0784
 04  9 13 23 20  0.0010000  0  8G29G 8G13G19G27G28G 7G26
  -5313402.51648  -4132170.74144  23293042.3174   23293041.7244
      2310.3754
  -2895855.80048  -2253398.43047  20399228.4744   20399225.4034
      -235.2814
  15421538.70447  12003650.28342  23988757.6464   23988758.3214
     -4176.0944
   5186805.79448   4039854.41544  23381059.7084   23381057.8844
     -2603.9694
   2070063.01348   1610929.36947  21068332.0994   21068329.0954
     -1258.2664
  -7739957.38548  -6025564.16147  21149755.1064   21149751.3534
       720.7344
  -1674255.99747  -1303165.81842  23781496.9354   23781498.7394
      2990.9844
  -1336812.78347  -1038487.45342  23700961.9194   23700961.8604
      2657.7504
 04  9 13 23 20 15.0010000  0  8G29G 8G13G19G27G28G 7G26
  -5348017.62348  -4159143.50944  23286455.5214   23286454.1034
      2304.7814
  -2892284.58149  -2250615.68447  20399907.9814   20399905.0284
      -241.1254
  15484197.74847  12052475.39842  24000681.2554   24000681.2594
     -4178.6874
   5225921.33248   4070333.99944  23388502.9814   23388500.3294
     -2611.6724
   2088975.68449   1625666.50047  21071931.6144   21071928.7204
     -1263.5944
  -7750726.33548  -6033955.54047  21147705.9034   21147701.7674
       714.8754
  -1719105.11347  -1338113.11242  23772963.8254   23772964.4544
      2988.7034
  -1376640.93146  -1069522.31143  23693382.3334   23693382.5444
      2652.5314
 04  9 13 23 20 30.0010000  0  8G29G 8G13G19G27G28G 7G26
  -5382547.36148  -4186049.77444  23279885.0754   23279882.7714
      2299.0474
  -2888624.72548  -2247763.85147  20400604.4584   20400601.6264
      -247.0164
  15546897.64646  12101332.34742  24012612.1534   24012613.1384
     -4181.4224
   5265154.18448   4100905.00344  23395969.4274   23395966.5324
     -2619.4844
   2107968.97048   1640466.43547  21075545.2474   21075542.8804
     -1269.0164
  -7761406.73748  -6042277.92747  21145673.2864   21145669.3764
       708.9384
  -1763918.07748  -1373032.22143  23764435.6854   23764436.6224
      2986.3134
  -1416388.16447  -1100494.12343  23685819.3494   23685819.6964
      2646.9844
 04  9 13 23 20 45.0010000  0  8G29G 8G13G19G27G28G 7G26
  -5416992.93348  -4212890.47244  23273329.5134   23273328.3414
      2293.5944
  -2884877.38849  -2244843.85347  20401317.2004   20401314.6464
      -252.7034
  15609636.45747  12150219.61342  24024551.3564   24024551.6034
     -4183.8914
   5304502.37648   4131565.90844  23403457.1614   23403453.9584
     -2627.0004
   2127041.29548   1655327.97947  21079174.8174   21079172.1494
     -1274.0944
  -7772000.38348  -6050532.70047  21143657.1464   21143653.2634
       703.4064
  -1808696.15347  -1407924.13542  23755914.6774   23755915.5134
      2984.0634
  -1456055.73847  -1131403.89443  23678270.8414   23678271.8564
      2641.8914
 04  9 13 23 21  0.0010000  0  8G29G 8G13G19G27G28G 7G26
  -5451356.19048  -4239666.98844  23266791.0214   23266789.3294
      2288.1884
  -2881044.73449  -2241857.37447  20402046.8414   20402043.8964
      -258.2194
  15672411.73947  12199135.32142  24036497.7864   24036497.7284
     -4186.1094
   5343963.53148   4162314.85244  23410967.0754   23410963.2474
     -2634.3914
   2146190.56248   1670249.46547  21082818.4424   21082816.0834
     -1279.0784
  -7782509.21848  -6058721.39147  21141657.9114   21141653.6814
       697.8914
  -1853441.24847  -1442790.38242  23747400.0364   23747401.0444
      2982.0944
  -1495645.44047  -1162252.95743  23670737.0834   23670738.0604
      2636.8914
 04  9 13 23 21 15.0010000  0  8G29G 8G13G19G27G28G 7G26
  -5485634.73748  -4266377.52844  23260266.8884   23260266.1884
      2282.3134
  -2877124.53449  -2238802.67847  20402792.7634   20402789.6814
      -264.3754
  15735225.38447  12248080.94342  24048450.1464   24048451.2944
     -4188.9224
   5383539.37248   4193153.16144  23418496.9894   23418493.9114
     -2642.2504
   2165419.01448   1685232.66947  21086478.0524   21086475.2044
     -1284.5624
  -7792931.40848  -6066842.57047  21139674.2634   21139669.8604
       691.8134
  -1898150.92847  -1477629.04842  23738891.1464   23738892.7944
      2979.4064
  -1535155.01447  -1193039.58342  23663218.4424   23663218.7784
      2631.1414
 04  9 13 23 21 30.0010000  0  8G29G 8G13G19G27G28G 7G26
  -5519826.61948  -4293020.51544  23253761.2314   23253760.3994
      2276.5164
  -2873115.13549  -2235678.47347  20403555.9114   20403552.8104
      -270.3284
  15798078.67547  12297057.41343  24060411.1464   24060412.1064
     -4191.6254
   5423231.36448   4224081.93344  23426050.0604   23426047.2004
     -2650.0944
   2184728.24148   1700278.79747  21090152.3494   21090149.5564
     -1290.1094
  -7803265.33248  -6074894.96747  21137707.6384   21137703.9854
       685.9534
  -1942823.35847  -1512438.65543  23730390.8964   23730391.7784
      2976.8444
  -1574582.33247  -1223762.13042  23655715.3254   23655715.4704
      2625.6254
 04  9 13 23 21 45.0010000  0  8G29G 8G13G19G27G28G 7G26
  -5553934.55848  -4319598.11044  23247270.4974   23247268.7474
      2270.9534
  -2869019.38948  -2232486.99047  20404335.1774   20404332.1574
      -276.0314
  15860968.21247  12346062.09842  24072378.2944   24072379.6034
     -4193.9844
   5463036.18248   4255098.61044  23433624.2244   23433622.1964
     -2657.5784
   2204115.38949   1715385.64547  21093841.9504   21093839.3294
     -1295.1874
  -7813513.97448  -6082880.91347  21135756.9664   21135753.8334
       680.2034
  -1987461.22847  -1547221.34243  23721895.9584   23721897.6304
      2974.5634
  -1613930.16346  -1254422.72442  23648227.5914   23648227.6184
      2620.3754
 04  9 13 23 22  0.0010000  0  8G29G 8G13G19G27G28G 7G26
  -5587957.91848  -4346109.80744  23240795.6924   23240794.2044
      2265.4064
  -2864836.91849  -2229227.92047  20405131.1534   20405128.2434
      -281.6874
  15923894.02847  12395095.14842  24084353.0054   24084353.7474
     -4196.2034
   5502953.79248   4286203.20544  23441220.8804   23441218.4074
     -2664.8914
   2223580.77148   1730553.46247  21097546.0524   21097543.6034
     -1300.2344
  -7823677.08248  -6090800.20447  21133823.6064   21133819.7674
       674.7034
  -2032063.89447  -1581976.60342  23713408.7084   23713409.8844
      2972.3914
  -1653197.81647  -1285020.86243  23640755.9814   23640755.7554
      2615.3284
 04  9 13 23 22 15.0010000  0  8G29G 8G13G19G27G28G 7G26
  -5621895.44048  -4372554.61844  23234337.4034   23234336.0914
      2259.5164
  -2860566.79349  -2225900.55747  20405944.0524   20405941.1184
      -287.7974
  15986856.75947  12444156.88542  24096334.3334   24096335.3534
     -4198.9224
   5542984.95048   4317396.25644  23448839.2314   23448836.2284
     -2672.7344
   2243125.48948   1745783.09847  21101264.4814   21101262.2594
     -1305.8284
  -7833753.83548  -6098652.21247  21131905.8564   21131902.3994
       668.7194
  -2076630.05847  -1616703.42442  23704928.4274   23704928.6574
      2969.5784
  -1692384.05947  -1315555.54543  23633298.2554   23633298.8924
      2609.6414
 04  9 13 23 22 30.0010000  0  8G29G 8G13G19G27G28G 7G26
  -5655745.39148  -4398931.16844  23227896.4194   23227895.2514
      2253.7974
  -2856207.32549  -2222503.57047  20406773.2314   20406770.4974
      -293.5944
  16049857.57347  12493248.33942  24108322.7004   24108324.2944
     -4201.3444
   5583130.77448   4348678.69244  23456479.2784   23456475.3924
     -2680.1874
   2262751.05448   1761075.72947  21104999.4584   21104996.9274
     -1311.0314
  -7843742.68048  -6106435.71447  21130005.0214   21130001.3454
       663.0004
  -2121158.12147  -1651400.55442  23696454.2084   23696455.5524
      2967.2504
  -1731487.00448  -1346025.30343  23625858.3334   23625857.7474
      2604.0944
 04  9 13 23 22 45.0010000  0  8G29G 8G13G19G27G28G 7G26
  -5689510.63948  -4425241.74244  23221471.2554   23221469.6734
      2248.0004
  -2851761.49749  -2219039.30147  20407619.1534   20407616.5484
      -299.5164
  16112892.95847  12542366.70942  24120318.7244   24120319.5324
     -4203.7974
   5623387.90548   4380047.86544  23464139.0674   23464135.9074
     -2687.8124
   2282454.50648   1776429.04347  21108749.0754   21108746.5674
     -1316.4374
  -7853646.90148  -6114153.27747  21128120.4894   21128116.5714
       657.1884
  -2165650.79448  -1686070.10842  23687988.6144   23687988.1184
      2964.7194
  -1770509.42448  -1376432.32343  23618432.1614   23618431.6344
      2598.5164
 04  9 13 23 23  0.0010000  0  8G29G 8G13G19G27G28G 7G26
  -5723189.54548  -4451485.02744  23215062.6384   23215060.6104
      2242.4844
  -2847227.97049  -2215506.68347  20408481.9974   20408479.3024
      -305.0784
  16175964.03947  12591512.92842  24132320.5994   24132321.7864
     -4205.7814
   5663757.26848   4411504.48744  23471821.8804   23471817.8844
     -2694.9374
   2302237.08048   1791844.02847  21112513.8414   21112511.4464
     -1321.2974
  -7863465.31148  -6121803.96547  21126251.7714   21126248.1144
       651.7974
  -2210106.64247  -1720710.98442  23679527.6694   23679528.9744
      2962.5944
  -1809449.88647  -1406775.50443  23611021.7394   23611021.6854
      2593.3914
 04  9 13 23 23 15.0010000  0  8G29G 8G13G19G27G28G 7G26
  -5756783.77048  -4477662.35044  23208669.8884   23208667.5244
      2236.6884
  -2842608.49749  -2211907.09347  20409361.0674   20409357.9154
      -310.9534
  16239068.49547  12640685.06442  24144328.6924   24144330.6264
     -4208.2194
   5704236.72148   4443046.86744  23479523.6854   23479521.7004
     -2702.3914
   2322096.90248   1807319.19547  21116292.8724   21116290.3604
     -1326.6564
  -7873199.73048  -6129389.22847  21124399.5754   21124395.8844
       646.0944
  -2254527.03047  -1755324.16042  23671074.9354   23671076.0324
      2960.1094
  -1848309.91047  -1437055.95542  23603626.3024   23603626.6424
      2588.0004
 04  9 13 23 23 30.0010000  0  8G29G 8G13G19G27G28G 7G26
  -5790292.95348  -4503773.37344  23202293.1384   23202291.8764
      2231.0004
  -2837902.94149  -2208240.43347  20410256.5364   20410253.5484
      -316.6564
  16302205.92247  12689882.93042  24156343.3104   24156345.6384
     -4210.4374
   5744825.88148   4474674.73444  23487248.2784   23487245.1534
     -2709.6724
   2342034.06348   1822854.62447  21120087.1464   21120084.1854
     -1331.7814
  -7882850.29148  -6136909.13247  21122563.0674   21122559.6924
       640.4844
  -2298911.91147  -1789909.75442  23662628.4354   23662630.0524
      2957.6724
  -1887089.08847  -1467273.47542  23596245.8564   23596246.8104
      2582.4844
 04  9 13 23 23 45.0010000  0  8G29G 8G13G19G27G28G 7G26
  -5823717.87048  -4529818.76244  23195931.9034   23195931.5214
      2225.2814
  -2833112.46249  -2204507.60347  20411168.2084   20411164.9194
      -322.4374
  16365375.18647  12739105.61342  24168364.3564   24168365.9584
     -4212.5474
   5785523.65148   4506387.24344  23494993.8884   23494990.3844
     -2717.0944
   2362047.63349   1838449.59447  21123895.4274   21123892.3494
     -1337.0314
  -7892418.06249  -6144364.52847  21120742.3644   21120738.7164
       634.8754
  -2343261.98047  -1824468.16142  23654188.9504   23654190.7674
      2955.2344
  -1925788.21947  -1497428.55842  23588881.5834   23588881.9624
      2577.1094
 04  9 13 23 24  0.0010000  0  8G29G 8G13G19G27G28G 7G26
  -5857053.40148  -4555794.49444  23189588.0914   23189588.4814
      2219.2344
  -2828231.99949  -2200704.63848  20412096.5914   20412093.7204
      -328.5474
  16428580.55947  12788356.43642  24180392.2474   24180393.8564
     -4215.1254
   5826334.40648   4538187.80144  23502758.8644   23502756.0404
     -2724.5784
   2382142.50948   1854107.91547  21127719.3414   21127716.5014
     -1342.5314
  -7901898.32048  -6151751.73847  21118938.6534   21118934.5754
       628.9384
  -2387572.14248  -1858995.51443  23645757.8494   23645758.4504
      2952.3914
  -1964402.12147  -1527517.27543  23581535.3254   23581534.4384
      2571.3134
 04  9 13 23 24 15.0010000  0  8G29G 8G13G19G27G28G 7G26
  -5890300.41948  -4581701.21644  23183262.2394   23183261.9034
      2213.6884
  -2823262.48349  -2196832.29347  20413042.3644   20413039.6304
      -334.1874
  16491820.81046  12837634.43242  24192426.0674   24192427.5564
     -4217.1254
   5867256.84948   4570075.38544  23510545.1384   23510543.4154
     -2731.8754
   2402317.71748   1869828.84847  21131558.5524   21131556.0014
     -1347.6094
  -7911292.13548  -6159071.58047  21117151.0054   21117147.0134
       623.5004
  -2431843.04447  -1893492.22443  23637333.2864   23637333.5874
      2950.2974
  -2002931.47647  -1557540.13143  23574203.8334   23574202.9504
      2565.8594
 04  9 13 23 24 30.0010000  0  8G29G 8G13G19G27G28G 7G26
  -5923462.06148  -4607541.44544  23176951.6924   23176951.1224
      2207.7344
  -2818207.63349  -2192893.44347  20414004.4814   20414001.3214
      -339.9534
  16555091.98947  12886936.50942  24204466.4974   24204467.3764
     -4219.2504
   5908286.98148   4602046.87644  23518354.3254   23518351.4624
     -2738.9844
   2422569.54848   1885609.47247  21135412.2554   21135409.9194
     -1352.7814
  -7920603.21448  -6166326.96247  21115379.0524   21115375.1344
       617.8914
  -2476078.18648  -1927961.12743  23628915.7714   23628916.1464
      2947.6884
  -2041379.65447  -1587499.68343  23566886.8414   23566887.0094
      2560.3754
 04  9 13 23 24 45.0010000  0  8G29G 8G13G19G27G28G 7G26
  -5956535.70048  -4633313.10344  23170658.0444   23170656.6494
      2202.1414
  -2813064.80049  -2188886.05347  20414983.0754   20414980.1264
      -345.5944
  16618396.35046  12936264.42742  24216513.0754   24216514.6924
     -4221.1874
   5949427.05348   4634104.03244  23526183.0834   23526180.5134
     -2746.1564
   2442900.72848   1901451.93747  21139280.7554   21139279.1614
     -1357.8444
  -7929829.12748  -6173515.97747  21113622.9894   21113619.6534
       612.4534
  -2520274.65748  -1962399.86943  23620504.4664   23620506.1384
      2945.4384
  -2079743.85547  -1617393.78243  23559586.3804   23559586.5794
      2555.0314
 04  9 13 23 25  0.0010000  0  8G29G 8G13G19G27G28G 7G26
  -5989521.95648  -4659016.65944  23164381.2084   23164379.3454
      2196.2814
  -2807834.77949  -2184810.71747  20415978.3494   20415975.5674
      -351.4224
  16681732.33747  12985617.04943  24228565.9424   24228567.2204
     -4223.3914
   5990675.68248   4666245.78444  23534032.3024   23534029.8214
     -2753.3914
   2463310.22848   1917355.42147  21143164.4974   21143162.2674
     -1363.1414
  -7938971.00448  -6180639.51047  21111883.7714   21111879.9274
       606.7344
  -2564433.37847  -1996809.19743  23612101.8104   23612102.6814
      2942.7344
  -2118024.81446  -1647223.01343  23552300.7944   23552302.0174
      2549.4694
 04  9 13 23 25 15.0010000  0  8G29G 8G13G19G27G28G 7G26
  -6022420.06748  -4684651.55044  23158120.1534   23158118.2044
      2189.9844
  -2802516.94149  -2180666.95247  20416990.2944   20416987.4814
      -357.7194
  16745100.34447  13034994.59343  24240624.8024   24240626.1774
     -4225.9224
   6032033.23448   4698472.39944  23541902.9504   23541899.3724
     -2761.2034
   2483798.65548   1933320.41347  21147063.7314   21147061.1614
     -1368.7974
  -7948028.34848  -6187697.17147  21110160.0834   21110156.5674
       600.7344
  -2608553.43147  -2031188.39443  23603705.4664   23603706.4544
      2939.7034
  -2156221.59747  -1676986.70443  23545032.4814   23545031.9314
      2543.3754
 04  9 13 23 25 30.0010000  0  8G29G 8G13G19G27G28G 7G26
  -6055227.55548  -4710215.80744  23151876.9424   23151875.3454
      2184.1884
  -2797109.12249  -2176453.07247  20418018.8334   20418016.1654
      -363.5314
  16808502.21547  13084398.53343  24252689.5994   24252691.5524
     -4227.8124
   6073501.53847   4730785.31443  23549792.4114   23549790.3294
     -2768.2664
   2504368.21148   1949348.62447  21150978.1144   21150975.2864
     -1374.0314
  -7956998.98348  -6194687.27047  21108452.9424   21108449.1884
       595.2194
  -2652632.36647  -2065535.53243  23595318.3414   23595319.0364
      2937.2504
  -2194331.82147  -1706682.94543  23537781.0054   23537779.6654
      2537.7814
 04  9 13 23 25 45.0010000  0  8G29G 8G13G19G27G28G 7G26
  -6087947.49548  -4735711.83044  23145650.5834   23145649.1814
      2178.1414
  -2791614.47849  -2172171.52847  20419064.9194   20419061.6104
      -369.3594
  16871934.00847  13133825.73942  24264760.4274   24264761.4274
     -4229.9844
   6115076.92447   4763181.66343  23557703.9034   23557701.2714
     -2775.4224
   2525015.59948   1965437.46447  21154907.1064   21154905.4664
     -1379.2814
  -7965886.40848  -6201612.52647  21106762.0604   21106758.4114
       589.5634
  -2696673.26947  -2099853.08343  23586936.7084   23586937.6534
      2934.5634
  -2232358.50447  -1736314.06243  23530544.5444   23530542.7204
      2532.2344
 04  9 13 23 26  0.0010000  0  8G29G 8G13G19G27G28G 7G26
  -6120579.70048  -4761139.50444  23139441.2944   23139439.8374
      2172.4384
  -2786033.16149  -2167822.46447  20420126.8884   20420124.1654
      -375.0474
  16935395.41447  13183276.06542  24276837.3724   24276838.0134
     -4231.7664
   6156758.95948   4795661.13444  23565637.2244   23565633.5094
     -2782.3284
   2545740.83948   1981586.99147  21158850.9814   21158848.5484
     -1384.3284
  -7974690.76748  -6208473.06547  21105086.6464   21105082.6034
       584.1254
  -2740676.00547  -2134140.87143  23578563.8104   23578564.3884
      2932.2974
  -2270301.29148  -1765879.82343  23523324.5604   23523322.8024
      2526.7344
 04  9 13 23 26 15.0010000  0  8G29G 8G13G19G27G28G 7G26
  -6153123.05648  -4786497.94744  23133248.5364   23133247.0214
      2166.5784
  -2780364.05648  -2163404.97347  20421205.9894   20421202.8924
      -380.8914
  16998887.21547  13232750.04442  24288919.2244   24288920.7744
     -4233.7974
   6198548.20748   4828224.17644  23573589.5994   23573586.4784
     -2789.5784
   2566544.83948   1997797.88647  21162810.0284   21162807.5954
     -1389.5004
  -7983411.26948  -6215268.24747  21103427.1304   21103422.8374
       578.5314
  -2784639.24447  -2168397.85743  23570197.6064   23570198.1854
      2929.4224
  -2308159.10047  -1795379.37843  23516120.1694   23516119.3174
      2520.9694
 04  9 13 23 26 30.0010000  0  8G29G 8G13G19G27G28G 7G26
  -6185578.71048  -4811788.01444  23127072.0284   23127071.5214
      2160.7814
  -2774608.74149  -2158920.31347  20422301.0604   20422298.2824
      -386.5474
  17062407.37248  13282246.20943  24301007.0134   24301008.2044
     -4235.5624
   6240442.83248   4860869.29244  23581561.3724   23581558.7044
     -2796.4534
   2587426.06049   2014068.94947  21166783.5214   21166781.0634
     -1394.6094
  -7992049.50448  -6221999.33347  21101783.1534   21101779.1224
       573.2034
  -2828564.47047  -2202625.24843  23561839.4194   23561839.6144
      2927.1254
  -2345933.19846  -1824813.63943  23508930.5994   23508931.8254
      2515.6094
 04  9 13 23 26 45.0010000  0  8G29G 8G13G19G27G28G 7G26
  -6217946.00748  -4837009.27944  23120912.7784   23120911.5874
      2154.8914
  -2768766.69149  -2154368.07247  20423412.5444   20423409.5364
      -392.3914
  17125955.98648  13331764.51243  24313099.5444   24313101.2394
     -4237.5624
   6282443.01048   4893596.66344  23589553.7004   23589551.1774
     -2803.5624
   2608385.14249   2030400.67047  21170772.2164   21170769.4314
     -1399.9224
  -8000605.04048  -6228665.97447  21100155.2164   21100151.0874
       567.5784
  -2872450.76048  -2236822.32243  23553487.9664   23553487.6854
      2924.3914
  -2383622.69947  -1854182.01443  23501758.6774   23501759.6184
      2509.7974
 04  9 13 23 27  0.0010000  0  8G29G 8G13G19G27G28G 7G26
  -6250224.20648  -4862161.08544  23114770.5674   23114768.7394
      2148.9384
  -2762837.42248  -2149747.86247  20424540.9584   20424538.1614
      -398.1094
  17189533.04647  13381304.89942  24325197.7314   24325200.3964
     -4239.2814
   6324548.79147   4926406.30144  23597565.3254   23597563.4784
     -2810.4694
   2629422.34048   2046793.27947  21174774.9584   21174772.4424
     -1405.0164
  -8009077.61048  -6235267.96747  21098542.6384   21098538.9624
       562.1414
  -2916297.58748  -2270988.63343  23545143.7474   23545144.0674
      2921.8594
  -2421226.91747  -1883483.94543  23494604.2944   23494603.3024
      2504.2034
 04  9 13 23 27 15.0010000  0  8G29G 8G13G19G27G28G 7G26
  -6282414.87348  -4887244.69044  23108645.0524   23108643.8254
      2142.7664
  -2756822.66849  -2145061.04747  20425685.5524   20425682.7904
      -404.2034
  17253136.63446  13430866.00842  24337300.8724   24337303.4194
     -4241.4064
   6366758.19948   4959296.70244  23605598.5674   23605595.2354
     -2817.7504
   2650536.06349   2063245.51647  21178792.8884   21178790.6064
     -1410.4534
  -8017469.01248  -6241806.72147  21096946.2314   21096942.1424
       556.3594
  -2960106.43648  -2305125.33143  23536807.3564   23536807.5444
      2918.9064
  -2458747.29847  -1912720.54243  23487463.3564   23487463.3724
      2498.2034
 04  9 13 23 27 30.0010000  0  8G29G 8G13G19G27G28G 7G26
  -6314517.01148  -4912259.29244  23102535.7394   23102534.4974
      2137.1094
  -2750721.49049  -2140306.87447  20426846.4814   20426843.8764
      -409.7814
  17316767.22347  13480448.09342  24349410.4194   24349411.9894
     -4242.9844
   6409071.55948   4992268.11444  23613650.9034   23613647.2594
     -2824.4224
   2671727.12048   2079758.01347  21182825.3254   21182822.3964
     -1415.3594
  -8025778.68648  -6248281.77747  21095364.9974   21095361.1424
       551.2194
  -3003876.23248  -2339231.60343  23528478.2864   23528478.2784
      2916.6094
  -2496182.94147  -1941891.11543  23480339.7244   23480339.1734
      2492.7974
 04  9 13 23 27 45.0010000  0  8G29G 8G13G19G27G28G 7G26
  -6346527.26648  -4937202.33144  23096444.9894   23096442.3064
      2130.9694
  -2744530.59149  -2135482.80547  20428024.3964   20428021.5284
      -415.6094
  17380427.39147  13530053.31942  24361524.8804   24361525.8294
     -4244.9224
   6451491.57048   5025322.65844  23621723.0134   23621719.4424
     -2831.4534
   2692998.50748   2096333.09847  21186873.0604   21186870.4154
     -1420.7344
  -8034003.56648  -6254690.77747  21093799.3564   21093795.9584
       545.5164
  -3047603.68548  -2373304.90343  23520157.8024   23520157.1884
      2913.8284
  -2533530.41347  -1970993.01643  23473232.7634   23473232.0284
      2486.9694
 04  9 13 23 28  0.0010000  0  8G29G 8G13G19G27G28G 7G26
  -6378445.13648  -4962073.36444  23090371.2714   23090368.9784
      2124.9384
  -2738249.88849  -2130588.75147  20429219.9814   20429216.9154
      -421.5474
  17444117.04247  13579681.56342  24373644.3494   24373645.4504
     -4246.8284
   6494018.34248   5058460.36544  23629815.5754   23629812.7824
     -2838.5004
   2714350.54148   2112971.03547  21190936.7864   21190934.2864
     -1426.0164
  -8042143.50348  -6261033.57147  21092250.8414   21092246.9234
       539.9224
  -3091288.29048  -2407344.79843  23511843.8024   23511844.3804
      2910.9844
  -2570789.15947  -2000025.75843  23466142.8174   23466141.9424
      2481.0944
 04  9 13 23 28 15.0010000  0  8G29G 8G13G19G27G28G 7G26
  -6410274.18048  -4986875.18744  23084314.1924   23084313.2944
      2118.9844
  -2731883.37648  -2125627.83647  20430431.4354   20430428.1734
      -427.2974
  17507831.96947  13629329.45442  24385769.2784   24385770.3414
     -4248.3594
   6536647.51147   5091677.87244  23637926.1774   23637924.3334
     -2845.3754
   2735779.42448   2129668.84347  21195014.2084   21195011.6884
     -1431.0624
  -8050202.52348  -6267313.32547  21090717.5054   21090713.6144
       534.6414
  -3134933.80247  -2441354.18443  23503537.5444   23503539.4854
      2908.5164
  -2607962.74547  -2028992.14342  23459068.0834   23459067.9854
      2475.5634
 04  9 13 23 28 30.0010000  0  8G29G 8G13G19G27G28G 7G26
  -6442014.77348  -5011608.07744  23078273.3254   23078272.7124
      2112.8594
  -2725431.41849  -2120600.33447  20431659.1534   20431656.2394
      -433.1564
  17571571.14546  13678996.25342  24397897.2784   24397898.9114
     -4250.4374
   6579378.12347   5124974.37844  23646058.8964   23646056.3804
     -2852.2504
   2757284.40348   2146425.95647  21199106.2314   21199104.2314
     -1436.4534
  -8058181.26548  -6273530.52047  21089198.9274   21089195.0834
       529.0474
  -3178540.45748  -2475333.37443  23495240.2244   23495240.7314
      2905.5784
  -2645051.56347  -2057892.45843  23452010.6694   23452011.2594
      2469.5004
 04  9 13 23 28 45.0010000  0  8G29G 8G13G19G27G28G 7G26
  -6473665.81748  -5036271.19544  23072250.9114   23072248.8924
      2107.1254
  -2718892.90949  -2115505.38947  20432903.2004   20432900.2944
      -438.8444
  17635335.17546  13728682.32242  24410031.8334   24410034.0174
     -4251.9224
   6622210.66847   5158350.35344  23654209.8724   23654206.7204
     -2858.8914
   2778866.53248   2163243.18447  21203213.2714   21203210.8374
     -1441.3444
  -8066079.05748  -6279684.63247  21087695.9584   21087691.7004
       523.8444
  -3222107.17548  -2509281.40443  23486950.2164   23486949.9034
      2903.1414
  -2682054.39247  -2086725.74043  23444969.5674   23444970.2824
      2463.9534
 04  9 13 23 29  0.0010000  0  8G29G 8G13G19G27G28G 7G26
  -6505225.44348  -5060863.07544  23066244.8104   23066243.5994
      2100.9064
  -2712266.25149  -2110341.76447  20434164.3804   20434161.8994
      -444.7664
  17699125.23246  13778388.73842  24422170.7864   24422172.8454
     -4253.6564
   6665146.53948   5191806.83644  23662380.6854   23662377.4854
     -2865.8754
   2800527.46648   2180121.81747  21207335.2784   21207333.1104
     -1446.7194
  -8073894.30848  -6285774.43247  21086208.5914   21086204.9154
       518.2504
  -3265631.96848  -2543196.76643  23478666.5054   23478668.6184
      2900.2034
  -2718969.37547  -2115490.61543  23437945.1774   23437944.7004
      2458.1254
 04  9 13 23 29 15.0010000  0  8G29G 8G13G19G27G28G 7G26
  -6536693.02248  -5085383.22345  23060256.8884   23060256.0834
      2094.8134
  -2705551.30349  -2105109.34347  20435442.2944   20435439.4314
      -450.5624
  17762941.38347  13828115.42642  24434314.9034   24434316.5834
     -4255.2664
   6708185.66347   5225343.77644  23670569.7474   23670567.2904
     -2872.5314
   2822267.43449   2197062.02647  21211472.1924   21211470.0214
     -1451.8594
  -8081626.90448  -6291799.81647  21084737.3024   21084733.1184
       512.8284
  -3309114.46748  -2577079.17043  23470392.7714   23470393.5054
      2897.4534
  -2755795.90047  -2144186.55743  23430936.8724   23430936.4894
      2452.2664
 04  9 13 23 29 30.0010000  0  8G29G 8G13G19G27G28G 7G26
  -6568069.66548  -5109832.51844  23054285.7244   23054285.0714
      2088.8284
  -2698749.07649  -2099808.90947  20436736.7634   20436733.9664
      -456.3914
  17826781.94147  13877861.21342  24446463.2634   24446464.1064
     -4256.9064
   6751326.51047   5258959.97344  23678778.6304   23678777.0484
     -2879.3914
   2844085.28348   2214062.94247  21215623.8724   21215621.9354
     -1457.0944
  -8089278.02948  -6297761.72947  21083280.9744   21083277.8294
       507.3594
  -3352555.65548  -2610929.40343  23462126.3494   23462126.2434
      2894.7664
  -2792534.88147  -2172814.29943  23423945.6224   23423945.2394
      2446.3754
 04  9 13 23 29 45.0010000  0  7G29G 8G19G27G28G 7G26
  -6599354.71748  -5134210.44044  23048332.9274   23048331.1574
      2082.8134
  -2691859.22749  -2094440.19947  20438047.7244   20438045.0874
      -462.1254
   6794569.13747   5292655.47344  23687008.3024   23687006.1344
     -2886.1254
   2865981.39448   2231124.83447  21219790.9664   21219788.6224
     -1462.1874
  -8096847.53648  -6303660.03047  21081840.9194   21081837.0634
       502.0004
  -3395954.68448  -2644746.74343  23453867.4354   23453868.3374
      2892.0004
  -2829185.73147  -2201373.32343  23416971.2004   23416971.2554
      2440.5634
 04  9 13 23 30  0.0010000  0  7G29G 8G19G27G28G 7G26
  -6630547.04048  -5158516.10644  23042396.5524   23042395.6534
      2076.3284
  -2684880.65049  -2089002.34147  20439375.5754   20439372.9704
      -468.2664
   6837913.96848   5326430.61244  23695257.2164   23695254.8494
     -2893.1414
   2887956.68749   2248248.42847  21223973.1464   21223970.4974
     -1467.7814
  -8104334.62248  -6309494.10347  21080415.7394   21080411.8174
       496.2974
  -3439310.66148  -2678530.57443  23445617.6064   23445617.6224
      2888.8594
  -2865747.27248  -2229862.80543  23410013.7634   23410013.2944
      2434.4534
 04  9 13 23 30 15.0010000  0  7G29G 8G19G27G28G 7G26
  -6661646.04548  -5182749.05545  23036479.1144   23036478.0324
      2070.3914
  -2677813.27649  -2083495.30447  20440720.2864   20440717.4074
      -473.9224
   6881361.00848   5360285.43044  23703524.7164   23703521.4974
     -2899.6724
   2910011.41349   2265433.90847  21228170.0994   21228167.2744
     -1472.7664
  -8111739.13848  -6315263.85747  21079006.9194   21079003.3374
       491.0784
  -3482622.92648  -2712280.32843  23437374.8884   23437375.4934
      2886.2504
  -2902218.84947  -2258282.17043  23403073.2004   23403072.9464
      2428.6414
 04  9 13 23 30 30.0010000  0  7G29G 8G19G27G28G 7G26
  -6692653.63748  -5206910.78845  23030579.2314   23030577.3414
      2063.9694
  -2670658.92449  -2077920.48847  20442082.2244   20442079.5174
      -480.0164
   6924907.64648   5394217.84144  23711811.3174   23711808.4314
     -2906.5004
   2932143.40749   2282679.60647  21232381.3024   21232378.4624
     -1478.0944
  -8119063.36248  -6320971.03247  21077613.2314   21077609.4704
       485.5314
  -3525893.44348  -2745997.56143  23429140.4504   23429141.2354
      2883.2194
  -2938602.41347  -2286632.93143  23396149.7084   23396149.8024
      2422.5634
 04  9 13 23 30 45.0010000  0  7G29G 8G19G27G28G 7G26
  -6723569.66648  -5231001.17945  23024696.0754   23024694.3764
      2057.8444
  -2663417.77249  -2072278.03747  20443460.0214   20443457.0014
      -485.8124
   6968553.51447   5428227.57844  23720115.9354   23720113.1574
     -2913.2344
   2954352.71448   2299985.53147  21236607.7714   21236605.3604
     -1483.4064
  -8126307.45748  -6326615.77247  21076234.7474   21076230.9234
       480.0164
  -3569122.08348  -2779682.15643  23420915.1144   23420915.3964
      2880.3134
  -2974897.84247  -2314915.03843  23389242.9274   23389242.4624
      2416.5314
 04  9 13 23 31  0.0010000  0  7G29G 8G19G27G28G 7G26
  -6754390.56248  -5255017.42944  23018829.7164   23018830.0094
      2051.6094
  -2656086.43749  -2066565.30847  20444854.8724   20444852.2314
      -491.7034
   7012301.76448   5462317.08744  23728441.4584   23728439.1424
     -2919.8754
   2976642.74748   2317354.37447  21240849.4584   21240846.7394
     -1488.6254
  -8133468.05648  -6332195.44947  21074872.0754   21074868.6854
       474.6414
  -3612305.16947  -2813331.25443  23412697.3884   23412697.9504
      2877.3754
  -3011101.39648  -2343125.53843  23382353.3174   23382353.0014
      2410.5944
 04  9 13 23 31 15.0010000  0  7G29G 8G19G27G28G 7G26
  -6785116.71548  -5278959.84145  23012984.0674   23012981.8174
      2045.3284
  -2648665.56849  -2060782.81147  20446267.1534   20446264.4704
      -497.7344
   7056151.36048   5496485.57344  23736786.6774   23736783.4894
     -2926.6564
   2999012.79148   2334785.56247  21245105.8804   21245104.2474
     -1493.8914
  -8140546.01748  -6337710.72547  21073525.0604   21073521.3684
       469.2034
  -3655443.08947  -2846945.17343  23404488.6144   23404488.3134
      2874.4064
  -3047213.40947  -2371264.72143  23375481.1464   23375480.8804
      2404.5004
 04  9 13 23 31 30.0010000  0  7G29G 8G19G27G28G 7G26
  -6815748.74248  -5302828.93544  23007154.3724   23007152.8494
      2038.9534
  -2641155.90849  -2054931.13847  20447696.2714   20447693.6614
      -503.6254
   7100100.91748   5530731.97944  23745150.1924   23745146.6964
     -2933.3594
   3021461.97948   2352278.42747  21249378.0914   21249375.4744
     -1499.3754
  -8147542.30248  -6343162.36547  21072193.2634   21072189.6964
       463.6094
  -3698536.64947  -2880524.47643  23396287.8804   23396288.4814
      2871.2814
  -3083234.60847  -2399333.16843  23368626.9114   23368626.0484
      2398.3444
 04  9 13 23 31 45.0010000  0  7G29G 8G19G27G28G 7G26
  -6846285.67648  -5326623.90444  23001343.1774   23001342.1694
      2032.6254
  -2633556.61549  -2049009.61347  20449142.5214   20449139.8844
      -509.6414
   7144151.00147   5565056.67144  23753531.3564   23753529.1854
     -2940.0784
   3043991.05448   2369833.54347  21253664.9034   21253662.9354
     -1504.5784
  -8154456.24348  -6348549.84347  21070878.0834   21070873.8494
       458.1724
  -3741584.75847  -2914068.41143  23388095.7784   23388096.7514
      2868.2974
  -3119163.90747  -2427329.97143  23361789.0214   23361789.0714
      2392.2194
 04  9 13 23 32  0.0010000  0  7G29G 8G19G27G28G 7G26
  -6876725.34148  -5350343.08445  22995551.1694   22995548.9894
      2025.9694
  -2625865.61649  -2043016.62847  20450606.1694   20450602.7824
      -515.8914
   7188303.11147   5599460.89943  23761932.9584   23761929.8214
     -2947.0164
   3066601.96948   2387452.41447  21257968.0674   21257965.7004
     -1510.1874
  -8161286.14448  -6353871.84347  21069578.0444   21069574.3684
       452.4384
  -3784585.23048  -2947575.20343  23379912.5524   23379914.0284
      2864.9844
  -3154999.07747  -2455253.44643  23354970.6384   23354969.6144
      2385.7974
 04  9 13 23 32 15.0010000  0  7G29G 8G19G27G28G 7G26
  -6907068.31948  -5373986.94345  22989776.8104   22989774.6184
      2019.8754
  -2618084.02549  -2036953.05647  20452086.7244   20452083.8334
      -521.4694
   7232556.00847   5633943.61243  23770355.2244   23770351.9074
     -2953.2664
   3089293.88648   2405134.41247  21262286.2554   21262283.8534
     -1515.2814
  -8168032.89648  -6359129.02547  21068294.4504   21068290.7514
       447.2814
  -3827538.62848  -2981045.33043  23371739.8254   23371740.0054
      2862.2974
  -3190740.66347  -2483104.01243  23348169.4814   23348168.8844
      2379.9844
 04  9 13 23 32 30.0010000  0  7G29G 8G19G27G28G 7G26
  -6937317.62748  -5397557.81644  22984020.9664   22984018.7354
      2013.3444
  -2610214.83549  -2030821.22847  20453584.0054   20453580.9274
      -527.6874
   7276906.10547   5668502.16943  23778794.0444   23778791.1464
     -2960.0004
   3112063.66349   2422877.08147  21266618.8254   21266616.4194
     -1520.7034
  -8174699.75448  -6364323.97447  21067025.8254   21067022.2204
       441.6564
  -3870448.07348  -3014481.17643  23363573.6534   23363574.0714
      2858.9844
  -3226391.61247  -2510883.91544  23341384.7944   23341385.2594
      2373.5164
 04  9 13 23 32 45.0010000  0  7G29G 8G19G27G28G 7G26
  -6967469.95147  -5421053.10245  22978283.2244   22978281.8844
      2006.8134
  -2602254.74349  -2024618.55947  20455098.9034   20455095.7204
      -533.8124
   7321356.20247   5703138.57944  23787253.4584   23787251.0214
     -2966.8754
   3134914.27548   2440682.73847  21270967.2944   21270965.0054
     -1526.2194
  -8181283.90648  -6369454.46547  21065773.0444   21065769.0524
       436.0314
  -3913310.16948  -3047880.14343  23355416.9814   23355417.7904
      2855.7344
  -3261948.76447  -2538590.73443  23334618.8804   23334619.2044
      2367.1724
 04  9 13 23 33  0.0010000  0  7G29G 8G19G27G28G 7G26
  -6997524.51347  -5444472.21245  22972563.1854   22972562.3174
      2000.1724
  -2594203.39549  -2018344.79347  20456630.7784   20456628.2634
      -539.9224
   7365906.39947   5737852.97544  23795730.3414   23795728.3064
     -2973.4224
   3157846.23848   2458551.78547  21275330.9894   21275328.3884
     -1531.6874
  -8187784.91748  -6374520.18047  21064535.8884   21064532.0794
       430.5634
  -3956124.20848  -3081241.64843  23347270.2314   23347270.9624
      2852.5314
  -3297411.21447  -2566223.75243  23327870.0834   23327870.4704
      2360.8284
 04  9 13 23 33 15.0010000  0  7G29G 8G19G27G28G 7G26
  -7027482.08048  -5467815.72645  22966862.6064   22966861.8414
      1993.8754
  -2586061.84949  -2012000.73348  20458180.2554   20458177.3844
      -545.8284
   7410555.36747   5772644.33243  23804227.2864   23804224.9974
     -2979.9534
   3180858.69948   2476483.55147  21279710.3564   21279708.1464
     -1536.8284
  -8194203.81348  -6379521.90447  21063314.5134   21063311.1064
       425.1724
  -3998891.00148  -3114566.37443  23339131.8104   23339132.1774
      2849.5314
  -3332779.71447  -2593783.59743  23321139.4424   23321139.1344
      2354.7504
 04  9 13 23 33 30.0010000  0  7G29G 8G19G27G28G 7G26
  -7057343.73848  -5491084.53145  22961180.6464   22961178.0714
      1987.8444
  -2577831.36749  -2005587.37947  20459746.5134   20459743.5524
      -551.3914
   7455301.41946   5807511.33443  23812741.0364   23812739.3644
     -2986.0004
   3203950.22048   2494476.93047  21284104.4744   21284101.9234
     -1541.6724
  -8200542.13848  -6384460.84447  21062108.2164   21062104.5404
       420.2034
  -4041611.55048  -3147855.04343  23331002.6534   23331002.6264
      2846.8594
  -3368055.24748  -2621270.99243  23314427.1144   23314426.5634
      2348.9384
 04  9 13 23 33 45.0010000  0  7G29G 8G19G27G28G 7G26
  -7087110.46948  -5514279.37344  22955516.1464   22955512.9384
      1981.1254
  -2569512.76549  -1999105.36048  20461329.1384   20461326.2744
      -557.5004
   7500143.04547   5842452.86544  23821275.3964   23821272.0364
     -2992.6254
   3227119.63548   2512531.00947  21288513.8724   21288511.3334
     -1547.2974
  -8206801.12848  -6389337.98047  21060917.1694   21060913.1384
       414.6254
  -4084286.81448  -3181108.42444  23322881.3254   23322882.4424
      2843.5004
  -3403238.73647  -2648686.65043  23307731.9114   23307731.0244
      2342.4694
 04  9 13 23 34  0.0010000  0  7G29G 8G19G27G28G 7G26
  -7116778.72748  -5537397.46345  22949870.3564   22949868.5714
      1974.6254
  -2561103.04449  -1992552.33647  20462929.8494   20462926.9114
      -563.6724
   7545083.05547   5877471.06044  23829825.9974   23829824.0634
     -2999.2344
   3250370.23248   2530648.34847  21292937.7004   21292935.4384
     -1552.6564
  -8212977.72348  -6394150.88647  21059742.1064   21059737.9624
       409.0474
  -4126913.33248  -3214323.82144  23314770.0054   23314770.3844
      2840.1884
  -3438326.66047  -2676027.85843  23301054.0604   23301053.7004
      2335.9844
 04  9 13 23 34 15.0010000  0  7G29G 8G19G27G28G 7G26
  -7146348.56248  -5560438.85045  22944243.0674   22944242.3564
      1968.2034
  -2552602.38849  -1985928.44847  20464547.3724   20464544.3214
      -569.5314
   7590120.82447   5912565.38744  23838397.4974   23838394.1424
     -3005.5784
   3273701.71848   2548828.70447  21297377.9584   21297374.8414
     -1558.0314
  -8219072.22748  -6398899.84047  21058582.0524   21058578.0214
       403.7194
  -4169491.12748  -3247501.25143  23306667.6614   23306668.3644
      2837.0314
  -3473319.01448  -2703294.59743  23294395.7714   23294395.1494
      2329.8134
 04  9 13 23 34 30.0010000  0  7G29G 8G19G27G28G 7G26
  -7175821.52448  -5583404.79145  22938634.5914   22938632.5094
      1961.4844
  -2544012.49949  -1979235.03747  20466182.1854   20466178.9584
      -575.8124
   7635254.42147   5947734.39344  23846985.9424   23846984.1344
     -3012.2814
   3297112.43448   2567070.81147  21301832.4114   21301830.1694
     -1563.5314
  -8225086.51048  -6403586.28147  21057437.3964   21057433.9464
       398.1094
  -4212021.68448  -3280641.88944  23298574.4424   23298575.0674
      2833.6414
  -3508217.25948  -2730487.99643  23287755.7314   23287754.7594
      2323.2194
 04  9 13 23 34 45.0010000  0  7G29G 8G19G27G28G 7G26
  -7205196.59348  -5606294.41345  22933044.3174   22933043.3334
      1954.9694
  -2535332.72248  -1972471.57847  20467833.5524   20467830.6964
      -581.8284
   7680484.02747   5982978.18644  23855593.1924   23855591.0604
     -3018.6414
   3320602.96248   2585375.09847  21306303.1384   21306300.4934
     -1568.8594
  -8231020.06348  -6408209.81247  21056307.9814   21056304.4704
       392.7814
  -4254504.09848  -3313745.00243  23290490.1534   23290490.4544
      2830.4384
  -3543020.58947  -2757607.43543  23281132.2084   23281132.0324
      2316.8754
 04  9 13 23 35  0.0010000  0  7G29G 8G19G27G28G 7G26
  -7234472.38148  -5629106.68145  22927473.5834   22927472.2594
      1948.3444
  -2526561.56649  -1965636.91847  20469502.9034   20469499.9894
      -587.8124
   7725810.55647   6018297.52644  23864218.6614   23864216.0524
     -3024.9374
   3344174.62848   2603742.61347  21310788.2554   21310786.0324
     -1574.1564
  -8236871.72748  -6412769.54047  21055194.8644   21055190.9584
       387.3914
  -4296936.95548  -3346809.51244  23282415.7474   23282415.4114
      2827.1414
  -3577727.37248  -2784651.62943  23274527.9974   23274526.9814
      2310.5784
 04  9 13 23 35 15.0010000  0  7G29G 8G19G27G28G 7G26
  -7263649.32748  -5651841.93645  22921921.1384   22921919.3414
      1941.7504
  -2517699.81849  -1958731.66447  20471189.3024   20471186.2674
      -593.9224
   7771232.93647   6053691.56244  23872862.4194   23872859.9624
     -3031.4844
   3367826.72048   2622172.80347  21315289.1144   21315286.8924
     -1579.6564
  -8242642.32548  -6417266.09547  21054097.1694   21054092.5834
       381.8914
  -4339320.71448  -3379835.74244  23274349.9424   23274350.3374
      2823.8134
  -3612338.00948  -2811620.93743  23267941.5054   23267940.3334
      2304.0784
 04  9 13 23 35 30.0010000  0  7G29G 8G19G27G28G 7G26
  -7292728.01247  -5674500.63845  22916387.7944   22916386.5564
      1935.4844
  -2508748.38849  -1951756.52847  20472892.7084   20472889.2984
      -599.5784
   7816750.08047   6089159.46143  23881523.4114   23881520.3214
     -3037.3914
   3391558.42648   2640665.01947  21319804.8964   21319803.3604
     -1584.5784
  -8248332.79948  -6421700.21447  21053014.0674   21053010.0364
       376.9534
  -4381655.87648  -3412824.12444  23266293.5914   23266294.5014
      2820.9844
  -3646853.06648  -2838515.76043  23261373.5994   23261372.3024
      2297.9844
 04  9 13 23 35 45.0010000  0  7G29G 8G19G27G28G 7G26
  -7321709.56348  -5697083.62945  22910873.2784   22910872.1034
      1928.7814
  -2499708.24849  -1944712.26547  20474612.8334   20474610.3214
      -605.7194
   7862360.07647   6124699.72144  23890202.9114   23890199.9974
     -3043.7974
   3415368.31748   2659218.16847  21324336.1224   21324333.5714
     -1590.0164
  -8253944.64548  -6426073.07647  21051945.8724   21051942.4974
       371.4224
  -4423943.61548  -3445775.55944  23258247.3564   23258246.7714
      2817.5004
  -3681273.72048  -2865336.99643  23254823.3174   23254822.7634
      2291.4844
 04  9 13 23 36  0.0010000  0  7G29G 8G19G27G28G 7G26
  -7350592.19748  -5719589.54244  22905376.6614   22905374.7514
      1922.2344
  -2490577.97549  -1937597.76747  20476350.2314   20476347.4464
      -611.6724
   7908064.24847   6160313.31343  23898899.1924   23898897.5714
     -3050.0624
   3439258.02548   2677833.51347  21328881.9504   21328879.8254
     -1595.2504
  -8259476.50548  -6430383.59947  21050893.3644   21050889.5174
       366.2034
  -4466182.19448  -3478688.65744  23250208.6534   23250209.0014
      2814.2664
  -3715598.07947  -2892083.20443  23248291.5994   23248291.0324
      2285.1094
 04  9 13 23 36 15.0010000  0  7G29G 8G19G27G28G 7G26
  -7379374.31048  -5742017.16645  22899899.4894   22899897.8994
      1915.5004
  -2481356.20749  -1930411.98047  20478105.2084   20478102.5754
      -617.8284
   7953863.64647   6196001.09844  23907615.7784   23907613.1144
     -3056.3284
   3463228.95048   2696512.14347  21333444.1774   21333441.2044
     -1600.7194
  -8264927.04348  -6434630.76747  21049856.2084   21049852.0404
       360.6724
  -4508369.97348  -3511562.19844  23242180.9584   23242181.4074
      2810.8914
  -3749824.44648  -2918753.07643  23241778.5834   23241778.3604
      2278.4844
 04  9 13 23 36 30.0010000  0  7G29G 8G19G27G28G 7G26
  -7408055.81147  -5764366.33645  22894441.4114   22894440.8924
      1908.8134
  -2472043.07749  -1923155.00147  20479877.4504   20479874.5404
      -623.8594
   7999757.67647   6231762.65443  23916348.7474   23916346.0214
     -3062.6874
   3487280.88848   2715253.88647  21338020.6304   21338018.2204
     -1606.1254
  -8270296.34648  -6438814.61647  21048834.3564   21048829.9854
       355.3134
  -4550506.78247  -3544396.02344  23234162.5914   23234162.3024
      2807.4224
  -3783952.85347  -2945346.58043  23235283.3644   23235283.7314
      2271.9534
 04  9 13 23 36 45.0010000  0  7G29G 8G19G27G28G 7G26
  -7436635.19748  -5786635.95745  22889002.4424   22889001.8804
      1901.8754
  -2462637.13749  -1915825.69547  20481667.0444   20481664.7744
      -630.1564
   8045747.24947   6267598.65043  23925100.0284   23925097.5604
     -3069.1564
   3511415.13048   2734059.76547  21342613.5214   21342610.6034
     -1611.7194
  -8275583.49348  -6442934.47547  21047828.4664   21047824.5404
       349.7504
  -4592591.20348  -3577189.01743  23226153.5524   23226154.0444
      2803.8594
  -3817981.57648  -2971862.44144  23228808.8804   23228808.1144
      2265.2504
 04  9 13 23 37  0.0010000  0  7G29G 8G19G27G28G 7G26
  -7465113.23348  -5808826.62245  22883583.6924   22883582.5794
      1895.2504
  -2453139.50049  -1908424.94347  20483474.9034   20483471.8334
      -636.1414
   8091830.76746   6303507.86243  23933869.5054   23933866.7284
     -3075.2504
   3535630.63548   2752928.98447  21347221.5834   21347218.8254
     -1617.0004
  -8280789.75348  -6446991.28047  21046837.5674   21046833.7514
       344.4844
  -4634624.06448  -3609941.82644  23218155.2634   23218155.7904
      2800.5474
  -3851911.57748  -2998301.35744  23222352.1224   23222351.5054
      2258.7814
 04  9 13 23 37 15.0010000  0  7G29G 8G19G27G28G 7G26
  -7493490.18448  -5830938.50345  22878183.0214   22878183.1694
      1888.5314
  -2443550.46949  -1900952.97447  20485299.4894   20485296.3924
      -642.2194
   8138007.85346   6339489.96442  23942656.3884   23942653.3994
     -3081.5784
   3559927.18148   2771861.32647  21351844.8564   21351842.3104
     -1622.3284
  -8285915.26748  -6450985.19247  21045861.9974   21045857.8684
       339.1094
  -4676605.35747  -3642654.48044  23210167.2164   23210167.2514
      2797.0634
  -3885742.71648  -3024663.21843  23215914.0134   23215913.6424
      2252.2344
 04  9 13 23 37 30.0010000  0  7G29G 8G19G27G28G 7G26
  -7521766.67648  -5852972.10845  22872803.7244   22872802.2084
      1881.7344
  -2433871.01249  -1893410.54347  20487141.4274   20487138.4234
      -648.2974
   8184276.97147   6375543.78443  23951461.7474   23951458.0444
     -3087.6874
   3584303.54148   2790855.87847  21356483.4504   21356481.5054
     -1627.7194
  -8290961.50448  -6454917.30847  21044901.6614   21044897.9854
       333.7814
  -4718536.00547  -3675327.64644  23202187.0444   23202187.3564
      2793.7034
  -3919476.09947  -3050948.93543  23209494.9894   23209493.2634
      2245.6094
 04  9 13 23 37 45.0010000  0  7G29G 8G19G27G28G 7G26
  -7549942.23548  -5874927.06245  22867441.1774   22867439.9504
      1875.0944
  -2424100.67149  -1885797.28247  20489000.5444   20488997.7004
      -654.2814
   8230638.09347   6411669.33744  23960285.0364   23960281.8764
     -3093.7194
   3608760.23448   2809913.03247  21361137.5524   21361135.2204
     -1633.0624
  -8295928.04648  -6458787.32747  21043956.8494   21043952.8994
       328.5784
  -4760415.45148  -3707960.92344  23194217.7634   23194217.7004
      2790.3444
  -3953110.82348  -3077157.77943  23203094.1464   23203092.5564
      2239.0944
 04  9 13 23 38  0.0010000  0  7G29G 8G19G27G28G 7G26
  -7578015.25148  -5896802.10645  22862099.6534   22862097.7474
      1867.8444
  -2414238.15849  -1878112.20947  20490877.4274   20490874.1654
      -660.8444
   8277092.21947   6447867.31944  23969123.6924   23969121.7784
     -3100.2974
   3633298.44348   2829033.69547  21365806.5364   21365804.7824
     -1638.8284
  -8300813.67248  -6462594.29047  21043027.2394   21043023.1854
       322.6724
  -4802242.06148  -3740553.04344  23186258.7244   23186258.5604
      2786.3594
  -3986645.33548  -3103288.51843  23196713.0834   23196711.4074
      2232.1094
 04  9 13 23 38 15.0010000  0  7G29G 8G19G27G28G 7G26
  -7605983.02448  -5918595.16545  22856777.0834   22856774.9584
      1861.3134
  -2404280.97449  -1870353.36947  20492772.3564   20492769.1384
      -666.6874
   8323641.46247   6484139.41344  23977982.6224   23977980.4114
     -3106.1564
   3657920.67348   2848219.82947  21370492.2944   21370490.3724
     -1643.9694
  -8305616.08349  -6466336.42447  21042113.3174   21042109.1884
       317.7344
  -4844013.16648  -3773101.90244  23178310.3494   23178309.4974
      2783.1884
  -4020076.93448  -3129339.05643  23190350.4814   23190350.0874
      2225.6094
 04  9 13 23 38 30.0010000  0  7G29G 8G19G27G28G 7G26
  -7633847.69848  -5940307.86845  22851474.3254   22851473.4704
      1854.0944
  -2394231.33849  -1862522.47847  20494684.8564   20494681.4744
      -673.1414
   8370283.23847   6520483.61043  23986858.1774   23986855.7004
     -3112.6094
   3682624.63348   2867469.64847  21375193.3104   21375191.0174
     -1649.7194
  -8310337.74948  -6470015.63347  21041214.5444   21041210.6344
       312.0314
  -4885730.89548  -3805609.14943  23170370.6614   23170371.1734
      2779.2814
  -4053407.66848  -3155311.02344  23184008.5674   23184008.7714
      2218.5784
 04  9 13 23 38 45.0010000  0  7G29G 8G19G27G28G 7G26
  -7661610.19048  -5961940.95745  22846191.5834   22846190.2594
      1847.4224
  -2384090.39349  -1854620.44347  20496614.3414   20496610.9784
      -679.1094
   8417015.85547   6556898.61743  23995750.9424   23995747.1344
     -3118.6094
   3707409.14448   2886782.24447  21379909.3174   21379907.3804
     -1654.9694
  -8314979.93648  -6473632.90247  21040331.4424   21040326.9154
       306.8444
  -4927396.12747  -3838075.51243  23162442.3414   23162442.4194
      2775.9064
  -4086638.47148  -3181205.11144  23177685.2634   23177684.7394
      2212.1094
 04  9 13 23 39  0.0010000  0  7G29G 8G19G27G28G 7G26
  -7689270.11048  -5983494.12045  22840928.1614   22840925.9464
      1840.5474
  -2373858.07349  -1846647.21047  20498561.4814   20498558.4544
      -685.2664
   8463839.00947   6593384.17643  24004661.0134   24004657.6384
     -3124.5314
   3732274.30948   2906157.68647  21384640.8494   21384638.8214
     -1660.3754
  -8319542.67048  -6477188.28547  21039462.7784   21039458.8764
       301.5474
  -4969008.56846  -3870500.78144  23154523.9814   23154523.5874
      2772.4064
  -4119768.96648  -3207021.02443  23171379.8254   23171379.4314
      2205.2504
 04  9 13 23 39 15.0010000  0  7G29G 8G19G27G28G 7G26
  -7716826.50948  -6004966.60945  22835684.4974   22835682.9784
      1833.3594
  -2363533.44249  -1838602.04747  20500525.9354   20500523.3804
      -691.6564
   8510753.33647   6629940.75643  24013588.9974   24013586.2044
     -3130.8594
   3757220.96348   2925596.62447  21389388.9894   21389386.1884
     -1666.1094
  -8324025.25448  -6480681.19547  21038610.0444   21038605.9154
       295.8594
  -5010567.17447  -3902884.05044  23146615.0914   23146615.7124
      2768.5474
  -4152798.16048  -3232758.00244  23165094.5524   23165094.1034
      2198.3594
 04  9 13 23 39 30.0010000  0  7G29G 8G19G27G28G 7G26
  -7744278.01048  -6026357.36245  22830460.2394   22830458.8964
      1826.7664
  -2353115.48849  -1830484.15647  20502508.3884   20502505.6224
      -697.3914
   8557759.42147   6666568.85244  24022533.2244   24022530.8684
     -3136.6414
   3782250.10548   2945099.83647  21394151.7314   21394149.3644
     -1671.1254
  -8328426.77448  -6484110.94047  21037772.5134   21037768.6774
       290.9534
  -5052070.56348  -3935224.28444  23138716.8254   23138717.2354
      2765.2974
  -4185724.60948  -3258414.92143  23158828.6924   23158828.0994
      2191.9534
 04  9 13 23 39 45.0010000  0  7G29G 8G19G27G28G 7G26
  -7771626.21148  -6047667.63545  22825256.3564   22825253.9744
      1819.7504
  -2342605.95749  -1822294.90748  20504508.2084   20504505.4744
      -703.7344
   8604855.25147   6703266.86743  24031495.5994   24031493.3214
     -3142.7814
   3807360.05648   2964666.01747  21398929.5834   21398927.6144
     -1676.7344
  -8332749.02048  -6487478.90447  21036949.9194   21036945.7984
       285.4844
  -5093520.28847  -3967522.72844  23130829.4034   23130829.8804
      2761.5474
  -4218549.62648  -3283992.81843  23152582.7944   23152581.6734
      2184.8754
 04  9 13 23 40  0.0010000  0  7G29G 8G19G27G28G 7G26
  -7798868.00248  -6068894.98245  22820071.9114   22820070.2314
      1812.4384
  -2332002.00049  -1814032.07947  20506526.4894   20506523.5014
      -710.2034
   8652043.21646   6740036.62343  24040474.1694   24040472.3104
     -3149.0944
   3832553.64848   2984297.36947  21403723.9744   21403721.7864
     -1682.5004
  -8336989.34548  -6490783.04547  21036142.8644   21036139.1034
       279.7974
  -5134913.38748  -3999777.03744  23122952.4584   23122952.9664
      2757.4534
  -4251270.49748  -3309489.54744  23146355.9664   23146354.9584
      2177.7344
 04  9 13 23 40 15.0010000  0  7G29G 8G19G27G28G 7G26
  -7826002.86348  -6090039.00145  22814908.2474   22814907.3214
      1805.5474
  -2321303.15249  -1805695.31247  20508562.3174   20508559.3334
      -716.3284
   8699323.36747   6776878.27143  24049472.3104   24049468.9464
     -3154.9694
   3857831.21248   3003994.15847  21408533.8174   21408531.8804
     -1687.8914
  -8341147.42348  -6494023.09547  21035351.8644   21035347.9464
       274.5784
  -5176249.18848  -4031986.68844  23115086.4114   23115086.6344
      2753.7344
  -4283886.43248  -3334904.51344  23140149.9664   23140148.2124
      2171.0474
 04  9 13 23 40 30.0010000  0  7G29G 8G19G27G28G 7G26
  -7853033.75448  -6111101.99745  22809764.7394   22809763.0244
      1798.6414
  -2310512.57849  -1797287.07347  20510615.6304   20510612.4664
      -722.2974
   8746692.13647   6813788.98943  24058486.6614   24058483.4974
     -3160.6564
   3883189.44149   3023753.80347  21413359.8494   21413357.6464
     -1693.1724
  -8345226.67149  -6497201.72147  21034575.3884   21034571.3924
       269.5004
  -5217530.79847  -4064154.10444  23107230.7714   23107231.1814
      2750.5784
  -4316400.41948  -3360240.06344  23133962.2474   23133960.9624
      2164.3444
 04  9 13 23 40 45.0010000  0  7G29G 8G19G27G28G 7G26
  -7879962.27048  -6132085.22445  22804640.8724   22804639.3334
      1791.7974
  -2299631.91149  -1788808.62747  20512686.2084   20512683.1344
      -728.3124
   8794147.22046   6850766.98343  24067515.7004   24067513.9114
     -3166.5944
   3908626.61048   3043574.97047  21418200.3414   21418198.2594
     -1698.4374
  -8349229.11848  -6500320.49647  21033814.0444   21033809.6464
       264.3444
  -5258759.63448  -4096280.44144  23099385.8414   23099385.6574
      2746.9224
  -4348813.98448  -3385497.33043  23127794.1304   23127793.4464
      2157.6414
 04  9 13 23 41  0.0010000  0  7G29G 8G19G27G28G 7G26
  -7906784.83648  -6152985.91045  22799537.1224   22799535.3884
      1784.7664
  -2288658.01349  -1780257.54047  20514774.2944   20514771.1424
      -734.5164
   8841691.50646   6887814.40743  24076562.4504   24076562.2944
     -3172.3444
   3934145.96348   3063460.16547  21423056.6924   21423053.9974
     -1703.8284
  -8353151.57848  -6503376.95247  21033067.4744   21033063.2904
       259.0314
  -5299932.33448  -4128363.01144  23091550.5364   23091550.8494
      2743.2194
  -4381123.55048  -3410673.56644  23121646.0524   23121644.9974
      2150.6094
 04  9 13 23 41 15.0010000  0  7G29G 8G19G27G28G 7G26
  -7933504.73148  -6173806.58045  22794451.4114   22794449.5134
      1777.6724
  -2277594.17549  -1771636.37047  20516879.8564   20516876.8564
      -740.8284
   8889321.18346   6924928.38643  24085626.5444   24085626.1424
     -3178.4844
   3959744.04448   3083406.70447  21427927.5214   21427925.0834
     -1709.4844
  -8356997.65949  -6506373.87647  21032335.3884   21032330.8884
       253.5944
  -5341052.02148  -4160404.25944  23083725.8414   23083726.1264
      2739.2344
  -4413332.31148  -3435771.25843  23115516.5054   23115515.5874
      2143.5944
 04  9 13 23 41 30.0010000  0  7G29G 8G19G27G28G 7G26
  -7960118.00348  -6194544.17845  22789387.1924   22789385.9194
      1770.5004
  -2266436.61449  -1762942.15847  20519003.2784   20519000.0564
      -747.1724
   8937039.54247   6962111.48344  24094707.6304   24094706.2634
     -3184.4374
   3985424.64948   3103417.56047  21432814.3964   21432812.0634
     -1714.9224
  -8360763.67648  -6509308.42547  21031619.0444   21031615.0214
       248.2344
  -5382114.73648  -4192401.13444  23075911.3024   23075911.0604
      2735.4224
  -4445436.38448  -3460787.37343  23109406.8964   23109405.4664
      2136.6094
 04  9 13 23 41 45.0010000  0  7G29G 8G19G27G28G 7G26
  -7986623.84948  -6215198.04145  22784343.3414   22784342.7204
      1763.6724
  -2255184.77449  -1754174.49547  20521144.1534   20521141.2744
      -753.1254
   8984846.94947   6999363.95644  24103805.8254   24103803.8134
     -3189.9534
   4011188.33148   3123493.14447  21437717.2394   21437714.8414
     -1720.2034
  -8364449.16248  -6512180.22347  21030917.5524   21030913.4424
       243.2814
  -5423119.60348  -4224352.91044  23068108.1614   23068108.6184
      2731.9534
  -4477434.70048  -3485721.08844  23103318.7314   23103317.1224
      2129.8914
 04  9 13 23 42  0.0010000  0  7G29G 8G19G27G28G 7G26
  -8013021.57448  -6235767.68445  22779320.1614   22779318.4154
      1756.2664
  -2243838.26249  -1745333.04647  20523303.1924   20523300.5634
      -759.5474
   9032743.39947   7036685.84143  24112921.1384   24112917.6614
     -3195.9694
   4037035.49348   3143633.78347  21442635.7944   21442633.7284
     -1725.8284
  -8368053.85948  -6514989.06047  21030231.3804   21030227.5874
       237.7194
  -5464066.07747  -4256259.18444  23060316.5754   23060316.6654
      2727.9224
  -4509326.79148  -3510572.03744  23097249.8644   23097248.3844
      2122.6414
 04  9 13 23 42 15.0010000  0  7G29G 8G19G27G28G 7G26
  -8039311.88548  -6256253.62945  22774317.1694   22774315.5094
      1749.1724
  -2232397.86849  -1736418.45647  20525480.5604   20525477.9664
      -765.7664
   9080727.65547   7074076.15743  24122050.9194   24122048.5364
     -3201.7664
   4062965.26248   3163838.77947  21447569.9664   21447568.0404
     -1731.3914
  -8371578.79749  -6517735.75247  21029560.6614   21029556.8064
       232.3444
  -5504954.72847  -4288120.44044  23052535.3884   23052535.8994
      2723.9384
  -4541113.18048  -3535340.61144  23091200.4974   23091199.5954
      2115.6564
 04  9 13 23 42 30.0010000  0  7G29G 8G19G27G28G 7G26
  -8065494.23848  -6276655.42845  22769334.4814   22769333.1344
      1742.1564
  -2220863.20449  -1727430.41047  20527675.4974   20527672.5244
      -771.8594
   9128799.65747   7111534.85643  24131198.0914   24131195.9384
     -3207.3594
   4088977.81048   3184108.29247  21452519.7394   21452517.5444
     -1736.6874
  -8375023.79048  -6520420.13947  21028904.8104   21028901.2714
       227.2664
  -5545785.22847  -4319936.34244  23044765.9194   23044766.1734
      2720.3754
  -4572793.33748  -3560026.40644  23085171.7864   23085171.0284
      2108.7034
 04  9 13 23 42 45.0010000  0  7G29G 8G19G27G28G 7G26
  -8091567.17248  -6296971.97745  22764373.6304   22764371.2514
      1734.5314
  -2209233.01749  -1718367.93047  20529888.4744   20529885.6924
      -778.5164
   9176960.29847   7149062.59243  24140364.7004   24140360.9934
     -3213.6094
   4115074.52048   3204443.36847  21457486.0914   21457483.6034
     -1742.5474
  -8378387.66948  -6523041.33247  21028264.9504   21028261.3104
       221.6254
  -5586555.95347  -4351705.69744  23037007.3564   23037007.2004
      2716.1254
  -4604365.80048  -3584628.28244  23079163.1854   23079163.6734
      2101.2664
 04  9 13 23 43  0.0010000  0  7G29G 8G19G27G28G 7G26
  -8117533.33848  -6317205.33345  22759431.9894   22759429.7864
      1727.4064
  -2197510.32149  -1709233.36447  20532118.9974   20532116.4194
      -784.6724
   9225206.30647   7186656.83944  24149544.5054   24149543.0174
     -3219.2194
   4141252.35748   3224841.67147  21462467.5444   21462465.6264
     -1747.9534
  -8381673.49549  -6525601.70047  21027639.6384   21027635.9234
       216.3444
  -5627269.60947  -4383430.56844  23029260.2474   23029259.8414
      2712.2504
  -4635833.14848  -3609148.22744  23073175.9974   23073175.3494
      2094.1884
 04  9 13 23 43 15.0010000  0  7G29G 8G19G27G28G 7G26
  -8143394.25448  -6337356.66645  22754510.3884   22754509.0994
      1720.4384
  -2185696.58748  -1700027.85347  20534367.5914   20534364.2864
      -790.6094
   9273535.60347   7224316.00144  24158742.3724   24158739.4894
     -3224.7974
   4167509.79348   3245301.99847  21467463.9584   21467462.2554
     -1753.1874
  -8384883.09848  -6528102.69047  21027028.7554   21027024.8454
       211.2814
  -5667927.62247  -4415112.07444  23021523.1614   23021522.8024
      2708.4844
  -4667196.70448  -3633587.32744  23067207.7394   23067205.7944
      2087.2974
 04  9 13 23 43 30.0010000  0  7G29G 8G19G27G28G 7G26
  -8169147.20248  -6357423.86945  22749609.4274   22749607.7474
      1713.3754
  -2173789.30149  -1690749.43547  20536633.2394   20536630.4034
      -796.8124
   9321950.36647   7262041.75844  24167954.5284   24167952.6424
     -3230.3594
   4193849.19648   3265826.20447  21472476.4814   21472474.1224
     -1758.4534
  -8388014.08448  -6530542.39647  21026433.1854   21026429.4544
       206.2814
  -5708527.26447  -4446748.10744  23013797.6534   23013797.2594
      2704.8284
  -4698453.83048  -3657943.50844  23061259.4814   23061257.4274
      2080.4844
 04  9 13 23 43 45.0010000  0  7G29G 8G19G27G28G 7G26
  -8194794.47649  -6377408.73145  22744730.1064   22744728.3844
      1706.1884
  -2161790.95949  -1681400.08547  20538916.5914   20538912.8924
      -802.9694
   9370447.63546   7299831.79743  24177183.1064   24177181.0094
     -3236.0164
   4220268.12448   3286412.36747  21477503.5134   21477501.4544
     -1763.9064
  -8391069.23349  -6532923.02147  21025851.9974   21025847.9814
       201.0784
  -5749070.97548  -4478340.54544  23006081.5054   23006081.6854
      2700.9384
  -4729606.96148  -3682218.63844  23055331.8334   23055329.9354
      2073.3284
 04  9 13 23 44  0.0010000  0  7G29G 8G19G27G28G 7G26
  -8220334.33248  -6397309.87645  22739869.2084   22739868.1654
      1698.9384
  -2149700.00749  -1671978.57047  20541217.4274   20541214.3454
      -809.3444
   9419028.53246   7337687.03842  24186426.9424   24186425.1424
     -3241.5474
   4246767.91948   3307061.54347  21482546.3564   21482544.5174
     -1769.5004
  -8394046.88949  -6535243.25347  21025285.0444   21025280.8414
       195.7664
  -5789556.88048  -4509887.95244  22998377.4504   22998376.8994
      2696.9534
  -4760654.06648  -3706411.14744  23049423.8494   23049422.2044
      2066.0944
 04  9 13 23 44 15.0010000  0  7G29G 8G19G27G28G 7G26
  -8245765.38748  -6417126.25745  22735029.6064   22735028.6924
      1691.6564
  -2137515.39949  -1662484.06647  20543535.9424   20543533.5834
      -815.5004
   9467694.01346   7375608.13442  24195687.1064   24195686.2124
     -3247.2344
   4273349.90648   3327774.75546  21487604.8174   21487602.8684
     -1774.9064
  -8396946.10748  -6537502.36447  21024733.2714   21024728.9784
       190.6414
  -5829983.48348  -4541389.13644  22990684.9664   22990684.5134
      2693.0634
  -4791593.71748  -3730519.93144  23043535.4894   23043534.6304
      2058.9224
 04  9 13 23 44 30.0010000  0  7G29G 8G19G27G28G 7G26
  -8271087.18048  -6436857.49745  22730211.9034   22730209.6144
      1684.6724
  -2125236.79249  -1652916.32547  20545872.3254   20545869.3964
      -821.5624
   9516443.80546   7413594.92043  24204964.5604   24204963.3684
     -3252.6254
   4300014.27548   3348552.17747  21492678.8104   21492676.8134
     -1780.2034
  -8399766.75148  -6539700.25647  21024196.4664   21024192.8024
       185.6094
  -5870350.43148  -4572843.84444  22983003.2714   22983002.5364
      2689.2814
  -4822425.51448  -3754544.63544  23037668.3884   23037667.3804
      2052.0474
 04  9 13 23 44 45.0010000  0  7G29G 8G19G27G28G 7G26
  -8296300.08148  -6456503.88845  22725413.5284   22725411.4854
      1677.2504
  -2112864.93549  -1643275.91347  20548226.3804   20548224.0564
      -827.7974
   9565276.96646   7451646.71044  24214257.8724   24214255.9274
     -3258.3444
   4326760.35748   3369393.27347  21497768.5524   21497766.3174
     -1785.7974
  -8402509.78348  -6541837.67147  21023674.4584   21023670.8534
       180.2504
  -5910658.24048  -4604252.47544  22975332.0284   22975332.1614
      2685.2344
  -4853149.94548  -3778485.72044  23031821.6464   23031820.6654
      2044.7344
 04  9 13 23 45  0.0010000  0  7G29G 8G19G27G28G 7G26
  -8321404.26848  -6476065.56245  22720636.1614   22720634.3414
      1669.9064
  -2100399.96149  -1633562.95047  20550598.6774   20550595.8804
      -834.2194
   9614192.63947   7489762.74944  24223566.8964   24223564.9354
     -3263.8754
   4353587.74248   3390297.71247  21502873.8644   21502871.5174
     -1791.3284
  -8405175.54448  -6543914.86847  21023167.4274   21023163.4854
       175.0944
  -5950906.96448  -4635615.05244  22967672.9194   22967673.3294
      2681.2664
  -4883766.94748  -3802343.09044  23025995.8564   23025994.2944
      2037.3754
 04  9 13 23 45 15.0010000  0  7G29G 8G19G27G28G 7G26
  -8346399.47048  -6495542.31245  22715880.1304   22715878.6344
      1662.8134
  -2087841.76149  -1623777.33947  20552988.2314   20552985.7004
      -840.2034
   9663190.63046   7527942.96043  24232890.1614   24232888.6694
     -3269.1724
   4380496.47348   3411265.53647  21507994.1924   21507991.7714
     -1796.5164
  -8407764.09349  -6545931.91447  21022674.6534   21022670.5404
       170.1094
  -5991096.26648  -4666931.32944  22960024.8724   22960025.3494
      2677.5314
  -4914276.38348  -3826116.63244  23020189.8414   23020188.6814
      2030.5004
 04  9 13 23 45 30.0010000  0  7G29G 8G19G27G28G 7G26
  -8371288.20448  -6514936.11345  22711143.7784   22711141.9704
      1655.6724
  -2075192.86549  -1613921.05047  20555395.5364   20555392.9154
      -846.2504
   9712267.81847   7566184.86443  24242229.7474   24242227.4314
     -3274.3914
   4407483.93048   3432294.70046  21513129.9814   21513127.0324
     -1801.8444
  -8410278.29348  -6547891.01447  21022196.1224   21022192.2674
       165.0944
  -6031228.64748  -4698203.25044  22952388.9354   22952388.4974
      2673.5944
  -4944680.56848  -3849808.16844  23014403.5134   23014402.8104
      2023.4224
 04  9 13 23 45 45.0010000  0  7G29G 8G19G27G28G 7G26
  -8396066.32648  -6534243.71145  22706429.1064   22706427.1774
      1648.1094
  -2062449.52049  -1603991.17547  20557820.8104   20557817.6854
      -852.8444
   9761427.68347   7604491.22143  24251584.7634   24251582.0604
     -3280.2504
   4434553.97748   3453388.23947  21518281.0364   21518278.6384
     -1807.5784
  -8412714.45649  -6549789.31047  21021732.9034   21021728.7084
       159.6884
  -6071299.98648  -4729427.61044  22944763.6534   22944763.1464
      2669.2974
  -4974975.32248  -3873414.42644  23008638.8804   23008637.5444
      2015.9064
 04  9 13 23 46  0.0010000  0  7G29G 8G19G27G28G 7G26
  -8420731.51148  -6553463.30845  22701734.5754   22701733.5404
      1640.6254
  -2049609.56149  -1593986.01047  20560263.9744   20560260.9704
      -859.1724
   9810672.03847   7642863.43543  24260955.6144   24260952.1854
     -3285.7344
   4461708.77848   3474547.80646  21523448.8334   21523446.2044
     -1813.2194
  -8415070.51649  -6551625.18947  21021284.2394   21021280.2354
       154.3914
  -6111307.98747  -4760602.64444  22937150.1144   22937149.6614
      2665.0164
  -5005158.42248  -3896933.68844  23002895.5134   23002893.8644
      2008.5164
 04  9 13 23 46 15.0010000  0  7G29G 8G19G27G28G 7G26
  -8445282.64948  -6572594.02245  22697062.6534   22697061.6774
      1632.8444
  -2036672.07549  -1583904.85747  20562725.7394   20562722.8454
      -865.8594
   9860001.50647   7681301.99743  24270341.9424   24270339.6854
     -3291.5314
   4488949.18548   3495774.08447  21528631.9584   21528629.7204
     -1818.9844
  -8417345.69448  -6553398.04547  21020851.4584   21020847.3884
       148.9534
  -6151251.50448  -4791727.40344  22929549.8254   22929548.2944
      2660.6564
  -5035228.50548  -3920364.90244  22997173.2084   22997171.3684
      2000.8134
 04  9 13 23 46 30.0010000  0  7G29G 8G19G27G28G 7G26
  -8469723.57248  -6591638.87945  22692411.7554   22692410.4854
      1625.6414
  -2023641.09448  -1573750.84347  20565205.5914   20565202.9194
      -871.8444
   9909411.52447   7719803.24443  24279744.9194   24279742.5214
     -3296.7814
   4516270.88748   3517063.70947  21533831.3564   21533829.1264
     -1824.2194
  -8419544.19048  -6555111.15047  21020433.1694   21020428.9384
       143.9224
  -6191134.40647  -4822804.91944  22921959.6064   22921959.0874
      2656.8444
  -5065189.52948  -3943711.11644  22991471.7944   22991470.5054
      1993.6884
 04  9 13 23 46 45.0010000  0  7G29G 8G19G27G28G 7G26
  -8494055.90348  -6610599.10345  22687782.1064   22687779.6734
      1618.4064
  -2010518.17149  -1563525.18747  20567702.7164   20567699.5524
      -878.1094
   9958900.14847   7758365.78543  24289161.0754   24289159.5994
     -3302.0164
   4543672.37948   3538415.50046  21539045.9584   21539043.7554
     -1829.6254
  -8421667.89649  -6556765.97247  21020028.8334   21020024.8884
       138.9844
  -6230958.12247  -4853836.33444  22914381.5134   22914380.8684
      2652.8134
  -5095042.95748  -3966973.47544  22985790.7084   22985789.6384
      1986.5164
 04  9 13 23 47  0.0010000  0  7G29G 8G19G27G28G 7G26
  -8518276.89148  -6629472.57945  22683172.7944   22683171.0364
      1611.2504
  -1997301.16949  -1553226.22447  20570218.0134   20570215.0484
      -884.0314
  10008469.21947   7796990.96443  24298594.7714   24298592.3804
     -3307.0624
   4571155.99448   3559831.29446  21544275.5364   21544273.3334
     -1834.7034
  -8423714.47348  -6558360.70247  21019639.2784   21019635.3064
       134.0634
  -6270720.16947  -4884819.69344  22906814.8724   22906814.3804
      2649.0314
  -5124786.16348  -3990149.96844  22980131.1384   22980129.6614
      1979.4534
 04  9 13 23 47 15.0010000  0  7G29G 8G19G27G28G 7G26
  -8542386.90848  -6648259.56845  22678584.2944   22678582.4274
      1603.6254
  -1983990.38149  -1542854.18047  20572750.8334   20572747.7514
      -890.5784
  10058117.85747   7835678.17243  24308042.9974   24308040.2244
     -3312.6724
   4598721.29848   3581310.73947  21549521.2864   21549518.8964
     -1840.5164
  -8425684.62748  -6559895.86347  21019264.4974   21019260.2984
       128.7504
  -6310420.68848  -4915755.10744  22899260.1384   22899259.4894
      2644.5944
  -5154419.44748  -4013240.78244  22974491.1854   22974490.6224
      1971.9224
 04  9 13 23 47 30.0010000  0  7G29G 8G19G27G28G 7G26
  -8566380.70048  -6666955.99345  22674018.8724   22674016.1734
      1596.0314
  -1970580.88649  -1532405.22947  20575302.5524   20575299.9154
      -896.9694
  10107850.64147   7874431.04243  24317507.0444   24317503.5634
     -3318.0164
   4626373.13348   3602857.60847  21554783.3644   21554781.1344
     -1846.0944
  -8427573.48448  -6561367.68347  21018905.0284   21018900.9974
       123.4844
  -6350054.58548  -4946638.60644  22891717.5214   22891717.3254
      2640.2814
  -5183937.49848  -4036241.82544  22968874.3724   22968873.7204
      1964.2974
 04  9 13 23 47 45.0010000  0  7G29G 8G19G27G28G 7G26
  -8590265.06648  -6685567.18345  22669473.3414   22669472.1304
      1588.6884
  -1957079.66449  -1521884.79147  20577871.8494   20577868.7044
      -903.0944
  10157660.52147   7913243.91543  24326986.1224   24326981.7394
     -3323.1094
   4654104.56448   3624466.50647  21560060.2474   21560058.3294
     -1851.3284
  -8429388.01448  -6562781.59747  21018559.9424   21018555.4194
       118.5634
  -6389628.40348  -4977475.29644  22884187.1304   22884186.3214
      2636.2974
  -5213346.81948  -4059158.14744  22963277.9664   22963276.6614
      1957.0944
 04  9 13 23 48  0.0010000  0  7G29G 8G19G27G28G 7G26
  -8614039.60648  -6704092.75945  22664949.2784   22664947.6384
      1581.2664
  -1943486.35349  -1511292.60947  20580458.2944   20580455.7714
      -909.3284
  10207547.12746   7952116.58542  24336477.2714   24336475.7004
     -3328.3444
   4681915.86548   3646137.63647  21565352.7004   21565350.2634
     -1856.7504
  -8431128.28548  -6564137.64147  21018228.5444   21018224.5914
       113.5634
  -6429141.94548  -5008265.00844  22876668.4814   22876667.2824
      2632.2034
  -5242647.27148  -4081989.62444  22957702.0054   22957700.8964
      1949.7344
 04  9 13 23 48 15.0010000  0  7G29G 8G19G27G28G 7G26
  -8637702.94748  -6722531.69345  22660446.0994   22660444.2044
      1573.8284
  -1929799.70448  -1500627.68847  20583062.9504   20583059.8454
      -915.6254
  10257511.25146   7991049.56743  24345986.1464   24345984.2864
     -3333.5624
   4709808.05148   3667871.78647  21570660.2314   21570658.4194
     -1862.2664
  -8432793.20648  -6565434.97647  21017912.0524   21017907.6854
       108.4534
  -6468593.77148  -5039006.64244  22869160.5604   22869159.7824
      2627.9694
  -5271837.39748  -4104735.13544  22952147.5284   22952146.6264
      1942.3444
 04  9 13 23 48 30.0010000  0  7G29G 8G19G27G28G 7G26
  -8661254.70248  -6740883.68445  22655964.6144   22655962.4934
      1566.1724
  -1916019.51749  -1489889.87847  20585684.8644   20585681.9154
      -921.9534
  10307552.65147   8030042.82343  24355508.5674   24355507.0524
     -3338.8594
   4737781.32948   3689669.14447  21575983.8334   21575981.3844
     -1867.8124
  -8434382.76348  -6566673.58547  21017609.5444   21017605.2824
       103.3134
  -6507983.37848  -5069699.79644  22861664.7784   22861664.0954
      2623.6884
  -5300916.65048  -4127394.25944  22946613.4664   22946612.8684
      1934.7344
 04  9 13 23 48 45.0010000  0  7G29G 8G19G27G28G 7G26
  -8684693.54448  -6759147.68145  22651503.9814   22651502.4744
      1559.1254
  -1902144.74549  -1479078.36247  20588325.4744   20588322.0674
      -927.9064
  10357671.96147   8069096.79344  24365046.6464   24365044.2784
     -3343.5944
   4765836.65848   3711530.42647  21581322.0754   21581320.2784
     -1872.8284
  -8435896.13748  -6567852.80747  21017321.6694   21017317.4854
        98.6564
  -6547309.69048  -5100343.60745  22854180.9974   22854180.4854
      2619.9694
  -5329883.76948  -4149966.00744  22941101.5754   22941100.5404
      1927.6564
 04  9 13 23 49  0.0010000  0  7G29G 8G19G27G28G 7G26
  -8708020.09648  -6777324.19245  22647065.2164   22647063.4664
      1551.2034
  -1888176.23148  -1468193.80447  20590983.4584   20590980.6464
      -934.4694
  10407868.22047   8108210.69543  24374598.0054   24374597.1264
     -3349.1564
   4793973.33748   3733455.09447  21586676.3964   21586674.6464
     -1878.5784
  -8437334.16548  -6568973.34347  21017047.7864   21017043.5954
        93.2814
  -6586573.09148  -5130938.41144  22846709.4034   22846709.0994
      2615.3754
  -5358739.36048  -4172450.84244  22935610.5284   22935609.6064
      1919.9384
 04  9 13 23 49 15.0010000  0  7G29G 8G19G27G28G 7G26
  -8731235.48948  -6795414.06745  22642647.7784   22642645.6264
      1544.1724
  -1874115.16849  -1457237.13647  20593659.0604   20593656.3684
      -940.2974
  10458139.65447   8147383.21943  24384164.6924   24384162.7314
     -3353.7504
   4822189.98648   3755442.07747  21592045.8254   21592044.0604
     -1883.5624
  -8438698.24448  -6570036.26547  21016787.9194   21016783.8764
        88.6564
  -6625774.70248  -5161485.06745  22839249.2784   22839248.9074
      2611.5634
  -5387484.49548  -4194849.61544  22930140.3254   22930139.3534
      1912.8284
 04  9 13 23 49 30.0010000  0  7G29G 8G19G27G28G 7G26
  -8754337.84548  -6813415.87345  22638251.4354   22638249.0674
      1536.2344
  -1859960.01348  -1446207.14247  20596352.9274   20596350.3494
      -946.9844
  10508487.51547   8186615.30143  24393745.6534   24393743.3024
     -3359.1414
   4850488.28748   3777492.69346  21597430.9034   21597428.8684
     -1889.4374
  -8439986.93048  -6571040.41247  21016542.9504   21016538.6814
        83.2344
  -6664912.72948  -5191982.15945  22831802.2314   22831801.8844
      2606.8284
  -5416117.29548  -4217160.85144  22924691.6774   22924690.9624
      1904.9534
 04  9 13 23 49 45.0010000  0  7G29G 8G19G27G28G 7G26
  -8777324.10048  -6831327.21445  22633877.1614   22633875.0244
      1528.6564
  -1845707.90149  -1435101.59847  20599064.8564   20599062.1734
      -953.1874
  10558914.31147   8225908.86343  24403341.3414   24403338.8374
     -3364.2034
   4878870.93148   3799609.03146  21602831.9584   21602829.7394
     -1894.8444
  -8441197.35748  -6571983.59847  21016312.8104   21016308.5914
        78.2344
  -6703984.04748  -5222427.29344  22824366.9034   22824366.7984
      2602.6414
  -5444634.48848  -4239382.01544  22919265.4274   22919264.0754
      1897.4534
 04  9 13 23 50  0.0010000  0  7G29G 8G19G27G28G 7G26
  -8800197.63948  -6849150.73745  22629524.9424   22629522.7124
      1521.0004
  -1831362.19248  -1423923.12747  20601795.2314   20601792.0134
      -959.5784
  10609415.97947   8265260.79043  24412952.3564   24412948.7124
     -3369.3594
   4907334.49248   3821788.41846  21608248.0214   21608246.0914
     -1900.3754
  -8442333.32048  -6572868.74747  21016096.3724   21016092.3724
        73.1414
  -6742992.13248  -5252823.14444  22816943.8174   22816943.2674
      2598.3444
  -5473039.53248  -4261515.76644  22913859.9354   22913858.9544
      1889.8134
 04  9 13 23 50 15.0010000  0  7G29G 8G19G27G28G 7G26
  -8822954.60948  -6866883.39445  22625193.7084   22625192.3964
      1513.3754
  -1816919.36949  -1412668.96347  20604543.2784   20604540.2824
      -965.8754
  10659995.86048   8304673.65543  24422576.9974   24422574.9424
     -3374.4374
   4935882.64948   3844033.72246  21613680.9194   21613678.7514
     -1905.8284
  -8443391.32548  -6573693.15347  21015895.2004   21015891.1384
        68.1414
  -6781932.91647  -5283166.56345  22809534.0834   22809533.4154
      2593.9534
  -5501328.58748  -4283559.15844  22908477.0444   22908475.5094
      1882.2664
 04  9 13 23 50 30.0010000  0  7G29G 8G19G27G28G 7G26
  -8845595.18648  -6884525.37145  22620885.3024   22620883.7984
      1505.5164
  -1802379.72049  -1401339.36447  20607310.0054   20607307.1774
      -972.5004
  10710653.32847   8344146.94943  24432216.6464   24432214.9974
     -3379.7504
   4964514.81848   3866344.49647  21619129.0834   21619127.4384
     -1911.5624
  -8444371.79348  -6574457.14647  21015708.3254   21015704.1614
        62.8444
  -6820806.65047  -5313457.71945  22802136.7084   22802135.3804
      2589.3754
  -5529501.70648  -4305512.20044  22903115.7394   22903114.4814
      1874.4224
 04  9 13 23 50 45.0010000  0  8G29G 8G11G19G27G28G 7G26
  -8868120.02248  -6902077.16445  22616599.3494   22616597.9744
      1497.8754
  -1787744.07948  -1389934.97547  20610095.0524   20610092.3724
      -978.8444
    -39450.94955    -26631.08251  24365978.5444   24365978.2084
      1114.6884
  10761387.06147   8383679.69943  24441871.0754   24441869.9314
     -3384.6414
   4993230.23148   3888720.11347  21624593.8724   21624591.4664
     -1917.0624
  -8445275.89648  -6575161.63847  21015536.5364   21015532.4464
        57.7974
  -6859614.04748  -5343697.18245  22794751.4504   22794750.5404
      2585.0004
  -5557559.50848  -4327375.38244  22897775.4194   22897774.5174
      1866.6724
 04  9 13 23 51  0.0010000  0  8G29G 8G11G19G27G28G 7G26
  -8890530.86048  -6919540.12045  22612334.3414   22612332.9504
      1490.2344
  -1773014.25049  -1378457.18547  20612898.2634   20612894.8994
      -985.1874
    -56127.75245    -39625.91242  24362804.6384   24362804.3764
      1108.9224
  10812194.81647   8423270.07543  24451538.9664   24451538.4154
     -3389.5944
   5022026.91448   3911159.08847  21630073.8644   21630071.7354
     -1922.5314
  -8446105.51148  -6575808.07747  21015378.6144   21015374.6924
        52.7974
  -6898356.70048  -5373886.19444  22787378.4744   22787377.9034
      2580.6414
  -5585503.72648  -4349150.05544  22892457.9974   22892456.3564
      1859.1254
 04  9 13 23 51 15.0010000  0  8G29G 8G11G19G27G28G 7G26
  -8912828.52648  -6936914.90745  22608091.7944   22608090.0174
      1482.7664
  -1758191.50448  -1366906.99247  20615718.7714   20615715.7124
      -991.2504
    -72722.54745    -52556.76842  24359646.5364   24359647.2824
      1103.5474
  10863075.03346   8462916.92942  24461220.9504   24461220.1534
     -3394.4374
   5050903.70148   3933660.46746  21635568.8724   21635566.4744
     -1927.7504
  -8446861.96348  -6576397.50647  21015235.2244   21015230.5444
        48.0634
  -6937035.55748  -5404025.51244  22780018.2394   22780017.9154
      2576.5474
  -5613335.15648  -4370836.86044  22887161.9664   22887160.5994
      1851.7194
 04  9 13 23 51 30.0010000  0  8G29G 8G11G19G27G28G 7G26
  -8935011.95948  -6954200.67945  22603870.5284   22603868.9974
      1475.0474
  -1743274.88449  -1355283.64547  20618557.3644   20618554.8294
      -997.6254
    -89233.81245    -65422.71941  24356504.6064   24356504.5794
      1097.9844
  10914028.32447   8502620.77442  24470917.5364   24470915.5874
     -3399.4844
   5079861.62848   3956225.07347  21641079.4504   21641077.0634
     -1933.2664
  -8447544.46348  -6576929.31947  21015104.6064   21015100.5214
        42.9694
  -6975649.45348  -5434114.19945  22772670.7864   22772669.9074
      2572.0004
  -5641052.67348  -4392434.87844  22881887.8024   22881887.1814
      1843.9844
 04  9 13 23 51 45.0010000  0  8G29G 8G11G19G27G28G 7G26
  -8957079.84148  -6971396.39145  22599670.7244   22599668.8924
      1467.2344
  -1728263.00649  -1343586.08147  20621413.8964   20621411.1144
     -1004.0314
   -105660.17945    -78222.36341  24353378.5134   24353379.0524
      1092.2664
  10965055.55547   8542382.30143  24480628.1064   24480625.3374
     -3404.3284
   5108901.79048   3978853.76146  21646605.4894   21646603.5754
     -1938.7974
  -8448151.86448  -6577402.60847  21014989.0754   21014984.8214
        37.9694
  -7014196.92848  -5464151.12945  22765334.9664   22765334.7354
      2567.5164
  -5668654.84748  -4413943.01844  22876635.0364   22876634.4544
      1836.2194
 04  9 13 23 52  0.0010000  0  8G29G 8G11G19G27G28G 7G26
  -8979029.80348  -6988500.23445  22595493.5754   22595491.0524
      1459.2814
  -1713153.95249  -1331812.78547  20624289.3564   20624285.9034
     -1010.5314
   -121999.54945    -90954.22741  24350268.9894   24350268.8454
      1086.2504
  11016158.15447   8582202.49043  24490352.5754   24490350.9154
     -3409.3594
   5138026.14048   4001548.04546  21652147.6854   21652145.3564
     -1944.4694
  -8448682.35648  -6577815.95747  21014888.1854   21014884.0054
        32.6564
  -7052675.90147  -5494134.68045  22758012.4504   22758011.9194
      2562.8444
  -5696139.48848  -4435359.57144  22871404.6774   22871404.0674
      1828.2664
 04  9 13 23 52 15.0010000  0  8G29G 8G11G19G27G28G 7G26
  -9000863.81448  -7005513.74145  22591339.1144   22591337.0524
      1451.6884
  -1697949.68249  -1319965.30547  20627182.4814   20627179.5794
     -1016.7814
   -138253.56845   -103619.64841  24347176.5604   24347176.5094
      1080.7814
  11067333.87447   8622079.60743  24500090.6464   24500089.0674
     -3414.1724
   5167232.55149   4024306.28046  21657705.7004   21657703.3644
     -1949.8284
  -8449138.16948  -6578171.13347  21014801.4274   21014796.9074
        27.8754
  -7091088.15848  -5524066.24845  22750703.2314   22750702.3884
      2558.6884
  -5723508.37548  -4456685.91844  22866196.3024   22866195.1464
      1820.6884
 04  9 13 23 52 30.0010000  0  8G29G 8G11G19G27G28G 7G26
  -9022582.03049  -7022436.99446  22587206.3804   22587204.4934
      1444.2664
  -1682650.69749  -1308044.02147  20630093.6144   20630090.5794
     -1022.8754
   -154422.44045   -116218.72242  24344098.2314   24344099.6734
      1075.2344
  11118581.89946   8662013.06343  24509841.3644   24509841.2514
     -3418.6874
   5196520.73048   4047128.22646  21663278.7944   21663276.5054
     -1955.0164
  -8449519.74448  -6578468.45047  21014728.6534   21014724.4034
        23.1724
  -7129433.74748  -5553945.88245  22743405.9194   22743405.6694
      2554.3754
  -5750761.58648  -4477922.15944  22861011.1464   22861009.7284
      1813.2504
 04  9 13 23 52 45.0010000  0  8G29G 8G11G19G27G28G 7G26
  -9044184.39748  -7039269.98046  22583095.4894   22583094.0364
      1436.3284
  -1667256.93149  -1296048.86747  20633023.0604   20633019.9424
     -1029.4224
   -170506.09345   -128751.34642  24341038.8024   24341038.5874
      1069.5784
  11169901.69346   8702002.42343  24519608.1534   24519607.3884
     -3423.6564
   5225890.43748   4070013.70047  21668867.8564   21668865.4974
     -1960.6564
  -8449827.53348  -6578708.27847  21014669.9354   21014666.0054
        18.1094
  -7167712.81547  -5583773.65345  22736121.9034   22736121.1814
      2549.7344
  -5777899.03148  -4499068.17744  22855847.4584   22855845.8534
      1805.3754
 04  9 13 23 53  0.0010000  0  8G29G 8G11G19G27G28G 7G26
  -9065670.96148  -7056012.74545  22579006.3724   22579004.9664
      1428.4064
  -1651768.77849  -1283980.18847  20635970.3564   20635967.7744
     -1035.7974
   -186504.40844   -141217.50841  24337995.1144   24337993.9744
      1063.5784
  11221292.61947   8742047.28643  24529388.3964   24529386.5634
     -3428.4694
   5255341.37348   4092962.45847  21674472.1464   21674469.8174
     -1966.1564
  -8450061.66048  -6578890.70847  21014625.2784   21014621.2284
        13.1254
  -7205925.21748  -5613549.49245  22728850.1224   22728849.4154
      2545.2034
  -5804920.78048  -4520124.05644  22850705.0754   22850703.2594
      1797.4844
 04  9 13 23 53 15.0010000  0  8G29G 8G11G19G27G28G 7G26
  -9087040.15448  -7072664.04045  22574939.8174   22574937.7244
      1420.7814
  -1636184.72749  -1271836.75747  20638936.0754   20638932.7824
     -1042.0004
   -202415.83344   -153615.90242  24334967.3644   24334966.5054
      1058.0784
  11272755.64548   8782148.35643  24539182.6694   24539178.9074
     -3433.1254
   5284874.94149   4115975.62647  21680092.5914   21680089.8534
     -1971.5314
  -8450220.98548  -6579014.85547  21014595.3174   21014590.8964
         8.2344
  -7244069.50748  -5643272.27244  22721591.8024   22721590.7714
      2540.7974
  -5831825.27948  -4541088.53644  22845584.3564   22845583.5404
      1789.8444
 04  9 13 23 53 30.0010000  0  8G29G 8G11G19G27G28G 7G26
  -9108293.21748  -7089224.84645  22570895.6464   22570893.6034
      1413.0004
  -1620506.15149  -1259619.68347  20641919.3724   20641916.4664
     -1048.3444
   -218241.44344   -165947.53341  24331954.8414   24331954.9504
      1052.0944
  11324289.04847   8822304.27743  24548988.6224   24548985.1774
     -3437.8754
   5314489.60548   4139051.96846  21685727.7864   21685725.8214
     -1976.9844
  -8450307.10348  -6579081.94347  21014578.8494   21014575.1924
         3.3594
  -7282146.72448  -5672942.76244  22714345.4424   22714344.9784
      2536.3134
  -5858613.68548  -4561962.57944  22840486.3174   22840485.8104
      1782.1094
 04  9 13 23 53 45.0010000  0  8G29G 8G11G19G27G28G 7G26
  -9129429.48048  -7105694.65145  22566873.5754   22566871.9194
      1405.2194
  -1604732.64949  -1247328.64547  20644920.8964   20644918.1144
     -1054.6874
   -233980.71144   -178211.75741  24328960.5914   24328960.3494
      1046.3754
  11375892.94247   8862515.08243  24558807.9354   24558806.0244
     -3442.6094
   5344186.04248   4162192.03447  21691378.4114   21691376.4194
     -1982.4694
  -8450319.65748  -6579091.71547  21014576.7164   21014572.5754
        -1.5624
  -7320156.23848  -5702560.51944  22707112.4354   22707111.6884
      2531.7344
  -5885285.19548  -4582745.53244  22835411.1304   22835410.0754
      1774.2034
 04  9 13 23 54  0.0010000  0  8G29G 8G11G19G27G28G 7G26
  -9150445.67048  -7122070.88446  22562874.5364   22562872.9544
      1397.0784
  -1588861.24949  -1234961.31747  20647941.2554   20647938.2314
     -1061.2504
   -249630.22944   -190406.12941  24325981.0364   24325981.7864
      1040.5474
  11427569.96947   8902782.81943  24568641.1854   24568640.3334
     -3447.5474
   5373967.04448   4185397.99246  21697045.8644   21697043.8534
     -1988.2034
  -8450255.65048  -6579041.83147  21014588.6304   21014584.6814
        -6.7504
  -7358094.89948  -5732123.05445  22699893.0284   22699892.3924
      2527.0314
  -5911836.54448  -4603434.83544  22830359.3644   22830358.2004
      1766.1724
 04  9 13 23 54 15.0010000  0  8G29G 8G11G19G27G28G 7G26
  -9171342.39848  -7138354.02945  22558897.2864   22558896.3294
      1389.0634
  -1572892.57349  -1222518.19447  20650980.2314   20650977.1854
     -1067.8284
   -265190.50845   -202530.94441  24323020.8804   24323020.7594
      1034.3444
  11479319.01046   8943106.68743  24578488.9354   24578487.9424
     -3452.2194
   5403831.86748   4208669.27946  21702728.7554   21702726.3564
     -1993.7664
  -8450116.13448  -6578933.10847  21014615.3724   21014610.7674
       -11.8754
  -7395963.11248  -5761630.69244  22692686.6064   22692685.8414
      2522.2194
  -5938268.32548  -4624030.99544  22825328.9424   22825327.6694
      1758.0164
 04  9 13 23 54 30.0010000  0  8G29G 8G11G19G27G28G 7G26
  -9192120.27948  -7154544.56045  22554943.6614   22554941.8174
      1381.0164
  -1556827.22749  -1209999.73547  20654037.1534   20654034.2244
     -1074.4064
   -280662.00745   -214586.62442  24320075.7474   24320076.7394
      1028.2504
  11531138.87747   8983485.73144  24588350.5054   24588349.5014
     -3457.1414
   5433779.75348   4232005.27546  21708428.0524   21708425.5674
     -1999.4534
  -8449902.06248  -6578766.28547  21014655.6064   21014651.1424
       -16.9374
  -7433761.58648  -5791084.00145  22685494.1694   22685493.4194
      2517.3594
  -5964581.11348  -4644534.40244  22820321.9114   22820320.6734
      1750.0634
 04  9 13 23 54 45.0010000  0  8G29G 8G11G19G27G28G 7G26
  -9212779.38648  -7170642.56545  22551012.6854   22551009.8684
      1373.2974
  -1540665.58949  -1197406.25047  20657112.4664   20657109.5014
     -1080.6724
   -296045.04445   -226573.31942  24317148.3174   24317148.6774
      1022.5634
  11583028.84647   9023919.43443  24598225.0994   24598223.1574
     -3461.7504
   5463810.33648   4255405.71146  21714142.5994   21714140.4154
     -2004.7504
  -8449613.71148  -6578541.58247  21014710.7554   21014706.4894
       -21.6724
  -7471490.28648  -5820482.91645  22678313.7714   22678313.6654
      2513.0004
  -5990774.91048  -4664945.11344  22815337.1064   22815335.9424
      1742.3134
 04  9 13 23 55  0.0010000  0  8G29G 8G11G19G27G28G 7G26
  -9233319.48948  -7186647.81845  22547104.0054   22547101.7044
      1365.4064
  -1524407.92949  -1184737.94247  20660206.3564   20660203.0484
     -1087.0004
   -311339.26545   -238490.88242  24314238.2714   24314238.5914
      1016.6884
  11634988.52547   9064407.45443  24608112.5914   24608110.4234
     -3466.2344
   5493923.56948   4278870.55746  21719872.7944   21719871.1034
     -2010.2814
  -8449251.25848  -6578259.14047  21014779.5054   21014775.3454
       -26.5944
  -7509149.10248  -5849827.39545  22671148.0914   22671147.6614
      2508.3284
  -6016849.46648  -4685262.89944  22810376.0054   22810374.2354
      1734.3914
 04  9 13 23 55 15.0010000  0  8G29G 8G11G19G27G28G 7G26
  -9253742.40048  -7202561.76346  22543217.8024   22543216.2204
      1357.5784
  -1508055.80749  -1171996.03247  20663318.1854   20663315.4384
     -1093.3914
   -326546.24445   -250340.39642  24311345.1064   24311345.1694
      1010.6724
  11687015.76847   9104948.16942  24618013.0134   24618010.7904
     -3470.8444
   5524117.53648   4302398.31446  21725618.7554   21725616.3534
     -2015.7034
  -8448816.76148  -6577920.55547  21014861.8804   21014858.2984
       -31.4534
  -7546739.66448  -5879118.68145  22663994.5134   22663994.1104
      2503.6254
  -6042806.54848  -4705489.14544  22805436.5284   22805435.2434
      1726.4064
 04  9 13 23 55 30.0010000  0  8G29G 8G11G19G27G28G 7G26
  -9274044.27349  -7218381.37046  22539354.3414   22539352.5244
      1349.6724
  -1491605.60449  -1159177.69047  20666448.2084   20666445.0404
     -1099.7194
   -341662.13246   -262118.89242  24308468.0134   24308468.0524
      1004.7974
  11739113.76446   9145544.00642  24627925.2634   24627924.5214
     -3475.3124
   5554395.84648   4325991.77946  21731380.1384   21731378.2594
     -2021.1254
  -8448306.78048  -6577523.15647  21014959.4424   21014955.3214
       -36.2974
  -7584258.16849  -5908353.82445  22656855.6614   22656854.2004
      2499.1094
  -6068642.34448  -4725620.89244  22800519.6924   22800518.2204
      1718.5944
 04  9 13 23 55 45.0010000  0  8G29G 8G11G19G27G28G 7G26
  -9294229.38248  -7234110.01746  22535513.8414   22535510.9584
      1341.7034
  -1475062.09049  -1146286.63347  20669596.5444   20669593.6264
     -1106.1254
   -356691.17446   -273829.78142  24305608.6224   24305608.7394
       999.0164
  11791277.70745   9186191.20042  24637852.6384   24637851.0994
     -3479.8594
   5584753.94748   4349647.42746  21737157.5834   21737155.7354
     -2026.5784
  -8447725.76548  -6577070.40947  21015070.0284   21015065.8334
       -41.1724
  -7621708.85148  -5937536.11145  22649728.7244   22649727.6614
      2494.2814
  -6094361.01248  -4745661.36344  22795625.6144   22795624.0244
      1710.5944
 04  9 13 23 56  0.0010000  0  8G29G 8G11G19G27G28G 7G26
  -9314294.64048  -7249745.26445  22531694.7004   22531692.3374
      1333.5944
  -1458422.23149  -1133320.50847  20672762.4504   20672759.7554
     -1112.6724
   -371630.34145   -285470.61942  24302765.3964   24302765.6264
       992.8134
  11843509.97646   9226891.61543  24647791.5994   24647790.7674
     -3484.5314
   5615194.76248   4373367.52447  21742949.7554   21742948.3964
     -2032.3284
  -8447071.14549  -6576560.30147  21015194.9274   21015190.5674
       -46.2504
  -7659088.74948  -5966663.24945  22642615.5054   22642614.5214
      2489.5784
  -6119959.45348  -4765608.15644  22790754.2394   22790752.3964
      1702.3754
 04  9 13 23 56 15.0010000  0  7G29G 8G11G27G28G 7G26
  -9334239.34148  -7265286.56946  22527899.5284   22527897.4114
      1325.5944
  -1441685.15549  -1120278.62847  20675947.8724   20675944.8924
     -1118.9844
   -386478.75345   -297040.74842  24299940.5674   24299939.8064
       986.9064
   5645718.69048   4397152.38646  21748758.4194   21748756.4624
     -2037.6874
  -8446342.41548  -6575992.44947  21015332.9274   21015328.9114
       -51.0474
  -7696396.93548  -5995734.49845  22635515.5134   22635515.0094
      2484.8134
  -6145436.87749  -4785460.65644  22785906.5364   22785904.3724
      1694.4384
 04  9 13 23 56 30.0010000  0  7G29G 8G11G27G28G 7G26
  -9354064.25348  -7280734.53945  22524126.4974   22524124.2354
      1317.6884
  -1424852.08349  -1107161.94547  20679151.1924   20679148.2904
     -1125.3284
   -401237.16946   -308540.74242  24297131.8644   24297131.4704
       980.8914
   5676324.85749   4421001.34146  21754582.9814   21754580.6964
     -2043.0314
  -8445540.74049  -6575367.74047  21015485.4354   21015481.8334
       -55.8124
  -7733634.25148  -6024750.53645  22628429.4974   22628428.9154
      2480.2194
  -6170794.08848  -4805219.47644  22781080.4424   22781079.8104
      1686.5164
 04  9 13 23 56 45.0010000  0  7G29G 8G11G27G28G 7G26
  -9373767.24648  -7296087.50345  22520377.3564   22520375.0364
      1309.4844
  -1407920.94749  -1093968.86247  20682373.2244   20682370.1064
     -1131.9534
   -415903.50946   -319968.99342  24294339.7634   24294340.2784
       974.7664
   5707015.12448   4444915.81846  21760422.6854   21760420.5564
     -2048.7344
  -8444664.25049  -6574684.76347  21015652.3724   21015648.3844
       -60.8754
  -7770798.59448  -6053709.70545  22621357.4114   22621356.8724
      2475.2034
  -6196028.87848  -4824882.89344  22776279.0674   22776277.4114
      1678.3134
 04  9 13 23 57  0.0010000  0  7G29G 8G11G27G28G 7G26
  -9393348.80848  -7311345.85246  22516651.3334   22516648.5954
      1301.2194
  -1390892.35649  -1080699.81847  20685613.4194   20685610.6654
     -1138.6094
   -430478.07346   -331325.67742  24291566.0994   24291566.7434
       968.4064
   5737788.82548   4468895.31246  21766278.8644   21766276.1224
     -2054.5164
  -8443713.72349  -6573944.06947  21015833.1694   21015829.0604
       -65.9694
  -7807890.23048  -6082612.21445  22614299.1384   22614297.8724
      2470.2034
  -6221141.58248  -4844451.19144  22771500.2394   22771498.1694
      1669.9844
 04  9 13 23 57 15.0010000  0  7G29G 8G11G27G28G 7G26
  -9412807.78248  -7326508.67146  22512948.4744   22512945.5954
      1293.2664
  -1373765.35149  -1067354.10347  20688872.4744   20688869.7634
     -1145.0164
   -444959.50746   -342609.89442  24288811.3804   24288811.2124
       962.2974
   5768646.91648   4492940.56046  21772151.0054   21772149.2674
     -2059.9534
  -8442688.29049  -6573145.02947  21016028.4354   21016024.2984
       -70.7814
  -7844908.09149  -6111457.23745  22607254.6384   22607254.1424
      2465.5164
  -6246131.15149  -4863923.55945  22766745.1774   22766743.1494
      1661.9064
 04  9 13 23 57 30.0010000  0  7G29G 8G11G27G28G 7G26
  -9432143.49448  -7341575.44546  22509269.0914   22509266.8964
      1284.7814
  -1356539.64549  -1053931.47347  20692150.3334   20692147.8994
     -1151.8594
   -459347.08746   -353820.95042  24286072.2944   24286073.2634
       955.7664
   5799589.93248   4517051.99046  21778038.8174   21778037.1144
     -2065.9224
  -8441587.61349  -6572287.33347  21016238.0994   21016234.1774
       -76.0004
  -7881851.42548  -6140244.19745  22600224.7314   22600223.9314
      2460.1884
  -6270996.65048  -4883299.20345  22762012.6384   22762011.8294
      1653.3754
 04  9 13 23 57 45.0010000  0  7G29G 8G11G27G28G 7G26
  -9451353.40348  -7356544.17846  22505613.5834   22505611.7354
      1276.7974
  -1339212.73449  -1040429.98547  20695447.8024   20695444.6734
     -1158.1724
   -473638.50246   -364957.01542  24283353.3724   24283353.0914
       949.8284
   5830620.04949   4541231.28046  21783944.2164   21783942.0174
     -2071.3124
  -8440409.51449  -6571369.32447  21016462.2554   21016458.1614
       -80.8754
  -7918717.76048  -6168971.16045  22593208.8804   22593208.6534
      2455.4534
  -6295735.81248  -4902576.44645  22757305.1694   22757303.3564
      1645.2664
 04  9 13 23 58  0.0010000  0  7G29G 8G11G27G28G 7G26
  -9470444.44949  -7371420.29546  22501980.2474   22501978.1384
      1268.7664
  -1321791.75649  -1026855.19947  20698762.8564   20698759.5564
     -1164.5164
   -487840.69846   -376023.63542  24280651.0914   24280650.4274
       943.8594
   5861729.95949   4565472.76346  21789864.3564   21789862.2434
     -2076.5624
  -8439161.25749  -6570396.64147  21016699.8414   21016695.5364
       -85.5314
  -7955514.13048  -6197643.58745  22586207.3494   22586206.5094
      2450.7344
  -6320355.37448  -4921760.48044  22752619.8644   22752617.5174
      1637.3914
 04  9 13 23 58 15.0010000  0  7G29G 8G11G27G28G 7G26
  -9489413.80549  -7386201.56845  22498370.9894   22498368.8494
      1260.7344
  -1304273.83649  -1013204.86847  20702096.5134   20702093.4424
     -1170.9694
   -501950.53146   -387018.21642  24277964.6144   24277965.5674
       937.7034
   5892922.61449   4589778.70646  21795800.2314   21795797.5874
     -2082.1874
  -8437840.27649  -6569367.29647  21016951.6384   21016946.6184
       -90.3914
  -7992237.50048  -6226259.14245  22579219.1384   22579218.2044
      2445.9064
  -6344852.50148  -4940849.11145  22747958.3174   22747957.2944
      1629.1884
 04  9 13 23 58 30.0010000  0  7G29G 8G11G27G28G 7G26
  -9508260.90948  -7400887.60546  22494784.2004   22494781.8374
      1252.4064
  -1286658.69349   -999478.78047  20705448.7164   20705445.2314
     -1177.5314
   -515967.44646   -397940.41542  24275298.2164   24275297.8644
       931.3444
   5924198.14949   4614149.24646  21801751.4974   21801749.5364
     -2087.8124
  -8436446.44749  -6568281.18247  21017216.1224   21017211.8604
       -95.3444
  -8028887.20249  -6254817.29145  22572244.6224   22572244.0714
      2440.8754
  -6369226.46049  -4959841.76245  22743320.1064   22743319.9154
      1620.8594
 04  9 13 23 58 45.0010000  0  7G29G 8G11G27G28G 7G26
  -9526985.70648  -7415478.33446  22491221.1224   22491219.0604
      1244.2504
  -1268946.42649   -985677.01447  20708819.0674   20708816.3064
     -1183.9534
   -529891.38146   -408790.13443  24272648.0674   24272648.4704
       925.2344
   5955556.42448   4638584.23846  21807718.5604   21807716.6854
     -2093.1724
  -8434980.02249  -6567138.49747  21017495.6924   21017491.2284
      -100.0944
  -8065463.38748  -6283318.15845  22565284.5214   22565284.1064
      2436.0314
  -6393477.42049  -4978738.60245  22738706.0134   22738704.0634
      1612.7504
 04  9 13 23 59  0.0010000  0  7G29G 8G11G27G28G 7G26
  -9545587.75748  -7429973.41245  22487681.1854   22487678.3884
      1236.0164
  -1251136.76449   -971799.35247  20712208.0914   20712204.9814
     -1190.5004
   -543721.80946   -419567.02742  24270016.3104   24270016.2004
       918.9534
   5986997.72849   4663083.93846  21813701.9034   21813699.6884
     -2098.8124
  -8433440.77049  -6565939.06747  21017788.2004   21017784.3764
      -105.0624
  -8101965.38749  -6311761.20945  22558337.9114   22558337.3924
      2431.0004
  -6417604.76548  -4997539.08744  22734113.6614   22734112.6034
      1604.3914
 04  9 13 23 59 15.0010000  0  7G29G 8G11G27G28G 7G26
  -9564065.91649  -7444371.93645  22484164.9814   22484162.2594
      1227.6094
  -1233228.85249   -957845.13147  20715615.8564   20715613.1344
     -1197.1874
   -557457.49247   -430270.09742  24267403.3564   24267402.7744
       912.4534
   6018522.96449   4687649.04746  21819700.6224   21819698.6224
     -2104.5004
  -8431827.83049  -6564682.21047  21018095.2314   21018091.2984
      -110.0314
  -8138392.12848  -6340145.63345  22551406.4744   22551405.4664
      2425.8444
  -6441607.15549  -5016242.19944  22729546.4814   22729545.0714
      1595.8914
 04  9 13 23 59 30.0010000  0  7G29G 8G11G27G28G 7G26
  -9582421.70148  -7458675.12946  22480671.6384   22480668.8134
      1219.6414
  -1215224.29349   -943815.61347  20719042.4114   20719039.1304
     -1203.5624
   -571100.01746   -440900.53343  24264806.5284   24264806.4894
       906.3134
   6050130.45349   4712278.25746  21825715.6304   21825713.4934
     -2110.0004
  -8430143.06349  -6563369.39647  21018415.4194   21018411.6384
      -114.7194
  -8174745.04049  -6368472.51545  22544489.0444   22544487.8604
      2420.9694
  -6465486.23748  -5034849.25444  22725002.2474   22724999.8494
      1587.7344
 04  9 13 23 59 45.0010000  0  7G29G 8G11G27G28G 7G26
  -9600654.34148  -7472882.35046  22477202.1694   22477199.5914
      1211.4534
  -1197122.41349   -929710.25547  20722486.6854   20722483.6494
     -1210.0624
   -584648.48746   -451457.69242  24262228.2864   24262227.4814
       900.1094
   6081820.72649   4736971.96046  21831745.8564   21831744.0094
     -2115.5004
  -8428386.04749  -6562000.28447  21018750.1224   21018745.9544
      -119.4694
  -8211023.36148  -6396741.27445  22537585.1144   22537584.0994
      2416.1254
  -6489241.10649  -5053359.51844  22720481.9974   22720479.8534
      1579.5784
 04  9 14  0  0  0.0010000  0  7G29G 8G11G27G28G 7G26
  -9618763.92848  -7486993.69446  22473756.0834   22473754.1694
      1202.9844
  -1178923.43749   -915529.23547  20725949.9664   20725946.8294
     -1216.6874
   -598103.01246   -461941.67742  24259667.9114   24259667.8294
       893.7504
   6113593.33549   4761729.82746  21837792.8964   21837790.2984
     -2121.1724
  -8426557.25649  -6560575.23847  21019098.0754   21019093.7594
      -124.4224
  -8247227.12449  -6424951.93845  22530695.9274   22530694.4384
      2410.9064
  -6512871.90448  -5071773.08645  22715985.2084   22715983.4464
      1571.0784
 04  9 14  0  0 15.0010000  0  7G29G 8G11G27G28G 7G26
  -9636747.06249  -7501006.48046  22470334.0674   22470331.7824
      1194.8444
  -1160624.10249   -901270.01747  20729432.3884   20729428.9354
     -1223.0474
   -611459.80846   -472349.50642  24257125.9584   24257125.7674
       887.4064
   6145451.77949   4786554.57846  21843854.5284   21843852.4034
     -2126.5004
  -8424653.30249  -6559091.62747  21019460.3104   21019456.5754
      -129.2814
  -8283352.90248  -6453101.82745  22523820.7004   22523820.2714
      2406.0164
  -6536375.08448  -5090087.23144  22711512.3964   22711510.7904
      1562.8754
 04  9 14  0  0 30.0010000  0  7G29G 8G11G27G28G 7G26
  -9654605.97148  -7514922.48546  22466935.3724   22466932.9934
      1186.5164
  -1142227.01549   -886934.62747  20732933.1224   20732929.7984
     -1229.6414
   -624721.22246   -482682.98342  24254602.3564   24254602.1694
       880.8914
   6177393.32249   4811444.08346  21849932.8494   21849930.7594
     -2132.1094
  -8422676.98149  -6557551.61947  21019836.5214   21019832.4194
      -134.1254
  -8319402.93049  -6481192.69745  22516961.2784   22516959.9384
      2400.8594
  -6559752.90848  -5108303.68445  22707063.3564   22707063.1734
      1554.4224
 04  9 14  0  0 45.0010000  0  7G29G 8G11G27G28G 7G26
  -9672341.18449  -7528742.10846  22463560.4274   22463557.9194
      1178.1564
  -1123733.03649   -872523.73447  20736452.4664   20736449.2634
     -1236.1724
   -637887.85147   -492942.63242  24252097.0364   24252096.6224
       874.6414
   6209417.33549   4836397.84046  21856027.0674   21856025.1694
     -2137.6254
  -8420629.17349  -6555955.90247  21020226.2944   21020221.8924
      -138.9844
  -8355377.67848  -6509224.91345  22510114.6854   22510114.0054
      2395.8134
  -6583005.83548  -5126422.81445  22702638.5134   22702637.6964
      1545.9534
 04  9 14  0  1  0.0010000  0  7G29G 8G11G27G28G 7G26
  -9689953.92448  -7542466.26346  22460209.4424   22460206.9974
      1170.2034
  -1105143.15849   -858038.11647  20739989.7714   20739987.1034
     -1242.4534
   -650960.76347   -503129.26942  24249609.7714   24249609.0404
       868.4844
   6241522.53248   4861414.87046  21862136.6064   21862134.0794
     -2142.9534
  -8418511.13349  -6554305.48247  21020629.1064   21020625.3134
      -143.5474
  -8391278.31449  -6537199.36845  22503283.0604   22503282.1034
      2390.9534
  -6606135.03148  -5144445.52744  22698236.9584   22698236.1734
      1537.8594
 04  9 14  0  1 15.0010000  0  7G29G 8G11G27G28G 7G26
  -9707442.13949  -7556093.42946  22456881.3334   22456879.0174
      1161.7194
  -1086455.66649   -843476.44047  20743546.0524   20743543.2044
     -1249.0624
   -663937.93446   -513241.28842  24247139.9274   24247139.3844
       861.9694
   6273710.51848   4886496.40646  21868261.6144   21868259.7394
     -2148.5784
  -8416321.39349  -6552599.17047  21021045.4974   21021041.3764
      -148.3124
  -8427102.83848  -6565114.52345  22496465.8414   22496465.1264
      2385.7814
  -6629138.55249  -5162370.32945  22693860.3964   22693858.3254
      1529.3594
 04  9 14  0  1 30.0010000  0  7G29G 8G11G27G28G 7G26
  -9724804.30849  -7569622.36946  22453577.0284   22453575.5754
      1153.4064
  -1067668.97649   -828837.45447  20747120.9664   20747118.2044
     -1255.6414
   -676817.69346   -523277.36143  24244689.0604   24244688.4584
       855.4064
   6305982.65048   4911643.51846  21874403.0284   21874401.2984
     -2154.1874
  -8414058.64749  -6550835.97747  21021476.3334   21021472.1774
      -153.1564
  -8462849.62449  -6592969.10045  22489663.3334   22489662.9624
      2380.6254
  -6652014.65048  -5180195.82545  22689507.0994   22689505.3454
      1520.9844
 04  9 14  0  1 45.0010000  0  7G29G 8G11G27G28G 7G26
  -9742040.81749  -7583053.37746  22450296.9814   22450294.7204
      1144.9224
  -1048783.69249   -814121.65647  20750714.8724   20750711.8414
     -1262.2974
   -689600.51646   -533237.97542  24242256.1614   24242255.1614
       849.0944
   6338338.34349   4936855.72546  21880559.4814   21880557.8064
     -2159.8284
  -8411723.53849  -6549016.40547  21021920.9034   21021916.2164
      -158.0944
  -8498519.04449  -6620763.39545  22482876.0364   22482874.8884
      2375.4384
  -6674763.76449  -5197922.37445  22685178.2714   22685176.1574
      1512.3914
 04  9 14  0  2  0.0010000  0  7G29G 8G11G27G28G 7G26
  -9759152.82549  -7596387.37846  22447040.3104   22447037.9424
      1136.5314
  -1029801.26849   -799330.16847  20754326.5754   20754323.4814
     -1268.9064
   -702287.36446   -543123.78242  24239842.4424   24239841.7714
       842.3914
   6370776.37848   4962132.10246  21886731.9744   21886730.6344
     -2165.5004
  -8409317.62148  -6547141.65547  21022378.8884   21022374.5834
      -162.9374
  -8534112.24848  -6648498.29345  22476102.7084   22476101.9314
      2370.2034
  -6697386.93048  -5215550.80345  22680872.6534   22680870.9854
      1503.7664
 04  9 14  0  2 15.0010000  0  7G29G 8G11G27G28G 7G26
  -9776139.41048  -7609623.64646  22443808.1854   22443805.9544
      1128.1564
  -1010721.05549   -784462.46947  20757957.8414   20757954.7474
     -1275.3754
   -714877.36547   -552934.09142  24237446.3104   24237445.2984
       835.8914
   6403297.24748   4987473.04246  21892920.9894   21892919.1854
     -2170.9224
  -8406840.25049  -6545211.21947  21022850.1534   21022846.3214
      -167.6564
  -8569628.23849  -6676173.03045  22469344.5604   22469343.0324
      2365.0474
  -6719883.31248  -5233080.41145  22676591.8334   22676591.4894
      1495.3914
 04  9 14  0  2 30.0010000  0  7G29G 8G11G27G28G 7G26
  -9793001.52449  -7622762.92546  22440599.5834   22440596.9504
      1120.2344
   -991544.00749   -769519.31347  20761607.3644   20761604.6814
     -1281.4534
   -727371.38147   -562669.58342  24235068.1534   24235067.6814
       830.0474
   6435900.05648   5012877.82046  21899124.9114   21899123.4034
     -2176.0164
  -8404292.53649  -6543225.97147  21023334.9744   21023330.9704
      -171.9694
  -8605067.94449  -6703788.33245  22462600.3024   22462599.1184
      2360.3594
  -6742253.66948  -5250511.81645  22672335.2394   22672334.7004
      1487.3914
 04  9 14  0  2 45.0010000  0  7G29G 8G11G27G28G 7G26
  -9809738.41048  -7635804.62846  22437414.7714   22437412.2714
      1111.7664
   -972269.58649   -754500.28047  20765274.7864   20765272.2984
     -1288.1254
   -739768.46647   -572329.57943  24232708.5284   24232708.6064
       823.3284
   6468585.02648   5038346.60846  21905344.8254   21905343.4314
     -2181.6414
  -8401674.16149  -6541185.67847  21023833.0674   21023829.0954
      -176.7344
  -8640430.63249  -6731343.60445  22455871.0524   22455869.5404
      2355.0634
  -6764497.22648  -5267844.44945  22668101.7864   22668099.6064
      1478.7664
 04  9 14  0  3  0.0010000  0  7G29G 8G11G27G28G 7G26
  -9826348.72848  -7648747.70046  22434253.2784   22434251.3414
      1102.9844
   -952896.35249   -739404.25447  20768961.3884   20768958.7514
     -1294.9534
   -752067.34347   -581913.04843  24230368.9664   24230368.5794
       816.3914
   6501353.62148   5063880.56946  21911580.5364   21911578.7944
     -2187.4844
  -8398984.02749  -6539089.44547  21024344.9584   21024340.6534
      -181.9224
  -8675714.85048  -6758837.74445  22449156.4584   22449155.3174
      2349.5004
  -6786612.66148  -5285077.23044  22663893.6464   22663891.2474
      1469.9384
 04  9 14  0  3 15.0010000  0  7G29G 8G11G27G28G 7G26
  -9842831.06749  -7661591.06046  22431117.1534   22431114.3334
      1094.7034
   -933423.17049   -724230.35647  20772666.8884   20772664.5404
     -1301.4374
   -764266.50947   -591418.84743  24228047.6304   24228047.1304
       810.0474
   6534206.80348   5089480.43346  21917832.7714   21917830.6854
     -2192.8594
  -8396221.12249  -6536936.52147  21024870.6064   21024866.7594
      -186.4694
  -8710919.23949  -6786269.67345  22442457.5994   22442455.6924
      2344.5164
  -6808598.57449  -5302209.09845  22659710.2394   22659708.2244
      1461.5164
 04  9 14  0  3 30.0010000  0  7G29G 8G11G27G28G 7G26
  -9859186.24749  -7674335.32246  22428004.7864   22428002.4974
      1086.2504
   -913851.23449   -708979.48747  20776391.3334   20776388.5674
     -1307.9534
   -776366.71747   -600847.49743  24225744.2864   24225743.9624
       803.5314
   6567143.65148   5115145.49646  21924100.3024   21924098.7004
     -2198.4534
  -8393386.44849  -6534727.67547  21025409.8964   21025405.6494
      -191.2034
  -8746044.44548  -6813639.91445  22435773.2864   22435771.8764
      2339.2664
  -6830455.73549  -5319240.61545  22655551.3334   22655548.7434
      1452.9534
 04  9 14  0  3 45.0010000  0  7G29G 8G11G27G28G 7G26
  -9875415.43949  -7686981.43546  22424916.7474   22424914.2944
      1077.9224
   -894181.51549   -693652.43847  20780134.0994   20780131.5954
     -1314.4224
   -788369.06147   -610199.89043  24223460.8964   24223459.6184
       797.0164
   6600162.77849   5140874.67446  21930383.4744   21930381.1304
     -2203.9224
  -8390481.45749  -6532464.03847  21025963.0834   21025958.5364
      -195.8594
  -8781091.69149  -6840949.38745  22429103.7944   22429102.7354
      2334.0634
  -6852185.08948  -5336172.56245  22651415.7164   22651413.3964
      1444.5474
 04  9 14  0  4  0.0010000  0  7G29G 8G11G27G28G 7G26
  -9891517.15949  -7699528.20746  22421852.0054   22421849.8684
      1069.1724
   -874413.16349   -678248.53447  20783896.2864   20783893.8254
     -1321.2194
   -800272.12147   -619474.96143  24221195.8024   24221194.8884
       790.2974
   6633265.38049   5166668.90046  21936683.1534   21936680.8884
     -2209.6094
  -8387504.90549  -6530144.63947  21026529.4894   21026525.0244
      -200.7504
  -8816059.57249  -6868197.04145  22422449.4194   22422448.4814
      2328.5314
  -6873785.29348  -5353003.85545  22647304.8564   22647304.5014
      1435.7344
 04  9 14  0  4 15.0010000  0  7G29G 8G11G27G28G 7G26
  -9907493.43849  -7711977.22446  22418812.5284   22418810.4584
      1060.6564
   -854548.16949   -662769.31447  20787676.3724   20787673.1854
     -1327.8444
   -812077.71247   -628674.04843  24218949.2314   24218948.7044
       783.5164
   6666449.39448   5192526.55346  21942997.0994   21942995.3724
     -2215.2344
  -8384459.15349  -6527771.30947  21027108.9664   21027104.9114
      -205.5784
  -8850949.78149  -6895384.15745  22415810.4584   22415809.0174
      2323.1724
  -6895258.18648  -5369735.92945  22643218.9424   22643217.8104
      1427.0164
 04  9 14  0  4 30.0010000  0  7G29G 8G11G27G28G 7G26
  -9923341.43748  -7724326.28546  22415796.1064   22415794.6924
      1052.3754
   -834583.91749   -647212.75447  20791475.3414   20791472.4114
     -1334.1874
   -823783.05048   -637795.04443  24216721.5754   24216720.5444
       777.0784
   6699717.30349   5218449.58946  21949328.2784   21949326.0604
     -2220.6094
  -8381341.80049  -6525342.18647  21027702.3964   21027697.9384
      -210.1094
  -8885759.68049  -6922508.69445  22409186.0834   22409184.6464
      2318.0634
  -6916600.98849  -5386366.66145  22639158.0914   22639156.5364
      1418.5474
 04  9 14  0  4 45.0010000  0  7G29G 8G11G27G28G 7G26
  -9939062.99449  -7736576.83946  22412804.6614   22412802.4814
      1043.8134
   -814521.99449   -631580.08147  20795292.7554   20795290.2354
     -1340.7664
   -835389.87046   -646839.23642  24214512.8254   24214512.5524
       770.4064
   6733067.11748   5244436.44046  21955674.3884   21955672.9464
     -2226.0944
  -8378154.99249  -6522858.93947  21028308.6144   21028304.5444
      -214.8124
  -8920491.04049  -6949572.04145  22402577.1614   22402575.8134
      2312.6884
  -6937815.49948  -5402897.42545  22635121.1854   22635119.0324
      1409.9224
 04  9 14  0  5  0.0010000  0  7G29G 8G11G27G28G 7G26
  -9954654.88849  -7748726.34446  22409837.9194   22409835.2164
      1035.0634
   -794359.57349   -615869.11247  20799129.6694   20799126.7204
     -1347.6564
   -846894.88947   -655804.12843  24212323.5994   24212322.5014
       763.4534
   6766501.78748   5270489.42446  21962036.5284   21962035.1344
     -2231.8914
  -8374895.61649  -6520319.16647  21028928.8884   21028924.5914
      -219.8594
  -8955140.64949  -6976571.66845  22395983.4814   22395981.7434
      2307.1094
  -6958898.43549  -5419325.66945  22631109.2004   22631107.0484
      1401.0164
 04  9 14  0  5 15.0010000  0  7G29G 8G11G27G28G 7G26
  -9970116.77149  -7760774.53846  22406895.2004   22406893.0324
      1026.7034
   -774096.46249   -600079.66647  20802985.6464   20802982.9074
     -1353.9064
   -858297.69446   -664689.30943  24210153.1774   24210152.7674
       757.0164
   6800021.60048   5296608.73646  21968415.3724   21968413.1614
     -2237.1874
  -8371563.68049  -6517722.83947  21029562.5994   21029558.5524
      -224.3124
  -8989707.98349  -7003507.20246  22389405.3564   22389404.0364
      2302.0784
  -6979849.39348  -5435651.04445  22627121.4894   22627120.7244
      1392.5784
 04  9 14  0  5 30.0010000  0  7G29G 8G11G27G28G 7G26
  -9985450.78048  -7772723.11246  22403977.3494   22403974.8684
      1017.9844
   -753735.04149   -584213.63447  20806860.3644   20806857.3024
     -1360.7974
   -869600.30446   -673496.52042  24208002.3414   24208002.0244
       750.1724
   6833624.13348   5322792.51146  21974809.9814   21974808.6614
     -2242.9224
  -8368161.55449  -6515071.81447  21030210.2554   21030205.6494
      -229.1094
  -9024195.08749  -7030380.22345  22382842.4744   22382841.0604
      2296.4534
  -7000670.38648  -5451875.15845  22623159.2634   22623157.5994
      1383.7814
 04  9 14  0  5 45.0010000  0  7G29G 8G11G27G28G 7G26
 -10000653.64249  -7784569.47446  22401084.1694   22401082.1384
      1009.2974
   -733272.31749   -568268.64247  20810754.3414   20810751.5484
     -1367.3914
   -880799.58546   -682223.12642  24205872.0214   24205870.6734
       743.4384
   6867312.36148   5349043.06246  21981220.3884   21981218.5054
     -2248.5944
  -8364686.39048  -6512363.87947  21030871.2634   21030867.2634
      -233.9224
  -9058598.85049  -7057188.29445  22376295.4424   22376294.0094
      2290.9844
  -7021358.25349  -5467995.54845  22619223.2944   22619221.1814
      1374.9224
 04  9 14  0  6  0.0010000  0  7G29G 8G11G27G28G 7G26
 -10015728.16149  -7796315.83346  22398216.0524   22398213.1694
      1000.8594
   -712710.92449   -552246.76847  20814667.0444   20814664.1854
     -1373.9224
   -891898.13346   -690871.26642  24203759.5364   24203758.7824
       736.6414
   6901083.47148   5375358.21046  21987646.8494   21987645.1964
     -2254.0474
  -8361141.16448  -6509601.36247  21031546.2314   21031542.0954
      -238.5474
  -9092921.90949  -7083933.48745  22369764.1694   22369762.5674
      2285.6094
  -7041915.66649  -5484014.27245  22615311.2314   22615308.3764
      1366.2814
